<?xml version="1.0" encoding="utf-8"?>
<gpx xmlns:xsi="http://www.w3.org/2001/XMLSchema-instance" xmlns:xsd="http://www.w3.org/2001/XMLSchema" version="1.1" creator="Shapelink.com" xmlns="http://www.topografix.com/GPX/1/1" xmlns:gpxtpx="http://www.garmin.com/xmlschemas/TrackPointExtension/v1">
  <metadata>
    <name>Løping 4.93 km, 2013-05-13</name>
    <desc></desc>
    <author><name>Mikael Blom</name></author> 
    <time>2013-05-13T17:59:59Z</time>
  </metadata>
  <trk>
    <name>Løping 4.93 km, 2013-05-13</name>
    <trkseg>
      <trkpt lat="59.9744432" lon="17.7277698">
        <ele>27.5349</ele>
        <time>2013-05-13T17:59:59Z</time>
      </trkpt>
      <trkpt lat="59.9744522" lon="17.7277647">
        <ele>27.0543</ele>
        <time>2013-05-13T18:00:00Z</time>
      </trkpt>
      <trkpt lat="59.9744637" lon="17.7277488">
        <ele>27.0543</ele>
        <time>2013-05-13T18:00:01Z</time>
      </trkpt>
      <trkpt lat="59.9744849" lon="17.7277415">
        <ele>27.0543</ele>
        <time>2013-05-13T18:00:02Z</time>
      </trkpt>
      <trkpt lat="59.974509" lon="17.7277282">
        <ele>27.0543</ele>
        <time>2013-05-13T18:00:03Z</time>
      </trkpt>
      <trkpt lat="59.9745312" lon="17.7277027">
        <ele>26.5736</ele>
        <time>2013-05-13T18:00:04Z</time>
      </trkpt>
      <trkpt lat="59.9745557" lon="17.7276691">
        <ele>26.5736</ele>
        <time>2013-05-13T18:00:05Z</time>
      </trkpt>
      <trkpt lat="59.9745869" lon="17.7276375">
        <ele>26.5736</ele>
        <time>2013-05-13T18:00:06Z</time>
      </trkpt>
      <trkpt lat="59.9746162" lon="17.7276101">
        <ele>26.5736</ele>
        <time>2013-05-13T18:00:07Z</time>
      </trkpt>
      <trkpt lat="59.974644" lon="17.7275809">
        <ele>26.5736</ele>
        <time>2013-05-13T18:00:08Z</time>
      </trkpt>
      <trkpt lat="59.9746702" lon="17.7275555">
        <ele>27.0543</ele>
        <time>2013-05-13T18:00:09Z</time>
      </trkpt>
      <trkpt lat="59.9747004" lon="17.7275347">
        <ele>26.5736</ele>
        <time>2013-05-13T18:00:10Z</time>
      </trkpt>
      <trkpt lat="59.9747329" lon="17.7275069">
        <ele>27.0543</ele>
        <time>2013-05-13T18:00:11Z</time>
      </trkpt>
      <trkpt lat="59.974763" lon="17.7274717">
        <ele>27.0543</ele>
        <time>2013-05-13T18:00:12Z</time>
      </trkpt>
      <trkpt lat="59.9747864" lon="17.7274414">
        <ele>27.0543</ele>
        <time>2013-05-13T18:00:13Z</time>
      </trkpt>
      <trkpt lat="59.9748091" lon="17.7274195">
        <ele>26.5736</ele>
        <time>2013-05-13T18:00:14Z</time>
      </trkpt>
      <trkpt lat="59.9748353" lon="17.7273935">
        <ele>26.5736</ele>
        <time>2013-05-13T18:00:15Z</time>
      </trkpt>
      <trkpt lat="59.9748572" lon="17.7273686">
        <ele>26.0929</ele>
        <time>2013-05-13T18:00:16Z</time>
      </trkpt>
      <trkpt lat="59.9748847" lon="17.7273505">
        <ele>26.0929</ele>
        <time>2013-05-13T18:00:17Z</time>
      </trkpt>
      <trkpt lat="59.9749153" lon="17.7273251">
        <ele>26.0929</ele>
        <time>2013-05-13T18:00:18Z</time>
      </trkpt>
      <trkpt lat="59.9749447" lon="17.7272941">
        <ele>26.0929</ele>
        <time>2013-05-13T18:00:19Z</time>
      </trkpt>
      <trkpt lat="59.9749733" lon="17.7272655">
        <ele>26.0929</ele>
        <time>2013-05-13T18:00:20Z</time>
      </trkpt>
      <trkpt lat="59.9750023" lon="17.7272361">
        <ele>26.0929</ele>
        <time>2013-05-13T18:00:21Z</time>
      </trkpt>
      <trkpt lat="59.9750286" lon="17.7272133">
        <ele>26.0929</ele>
        <time>2013-05-13T18:00:22Z</time>
      </trkpt>
      <trkpt lat="59.9750577" lon="17.7271971">
        <ele>26.0929</ele>
        <time>2013-05-13T18:00:23Z</time>
      </trkpt>
      <trkpt lat="59.975079" lon="17.7271798">
        <ele>25.6123</ele>
        <time>2013-05-13T18:00:24Z</time>
      </trkpt>
      <trkpt lat="59.9750965" lon="17.7271517">
        <ele>25.1317</ele>
        <time>2013-05-13T18:00:25Z</time>
      </trkpt>
      <trkpt lat="59.9751116" lon="17.7271175">
        <ele>25.1317</ele>
        <time>2013-05-13T18:00:26Z</time>
      </trkpt>
      <trkpt lat="59.9751221" lon="17.7270954">
        <ele>24.651</ele>
        <time>2013-05-13T18:00:27Z</time>
      </trkpt>
      <trkpt lat="59.9751333" lon="17.727066">
        <ele>24.651</ele>
        <time>2013-05-13T18:00:28Z</time>
      </trkpt>
      <trkpt lat="59.9751494" lon="17.7270279">
        <ele>25.1317</ele>
        <time>2013-05-13T18:00:29Z</time>
      </trkpt>
      <trkpt lat="59.9751676" lon="17.7269966">
        <ele>24.651</ele>
        <time>2013-05-13T18:00:30Z</time>
      </trkpt>
      <trkpt lat="59.9751866" lon="17.7269646">
        <ele>24.1703</ele>
        <time>2013-05-13T18:00:31Z</time>
      </trkpt>
      <trkpt lat="59.9752093" lon="17.7269371">
        <ele>24.651</ele>
        <time>2013-05-13T18:00:32Z</time>
      </trkpt>
      <trkpt lat="59.975234" lon="17.7269034">
        <ele>24.651</ele>
        <time>2013-05-13T18:00:33Z</time>
      </trkpt>
      <trkpt lat="59.9752674" lon="17.7268744">
        <ele>25.1317</ele>
        <time>2013-05-13T18:00:34Z</time>
      </trkpt>
      <trkpt lat="59.9752908" lon="17.7268532">
        <ele>25.1317</ele>
        <time>2013-05-13T18:00:35Z</time>
      </trkpt>
      <trkpt lat="59.9753156" lon="17.7268283">
        <ele>25.1317</ele>
        <time>2013-05-13T18:00:36Z</time>
      </trkpt>
      <trkpt lat="59.9753391" lon="17.7268053">
        <ele>24.651</ele>
        <time>2013-05-13T18:00:37Z</time>
      </trkpt>
      <trkpt lat="59.9753633" lon="17.7267784">
        <ele>25.1317</ele>
        <time>2013-05-13T18:00:38Z</time>
      </trkpt>
      <trkpt lat="59.9753811" lon="17.726749">
        <ele>25.1317</ele>
        <time>2013-05-13T18:00:39Z</time>
      </trkpt>
      <trkpt lat="59.9754077" lon="17.726722">
        <ele>25.1317</ele>
        <time>2013-05-13T18:00:40Z</time>
      </trkpt>
      <trkpt lat="59.9754313" lon="17.7266998">
        <ele>25.6123</ele>
        <time>2013-05-13T18:00:41Z</time>
      </trkpt>
      <trkpt lat="59.9754548" lon="17.7266808">
        <ele>25.6123</ele>
        <time>2013-05-13T18:00:42Z</time>
      </trkpt>
      <trkpt lat="59.9754784" lon="17.7266647">
        <ele>25.1317</ele>
        <time>2013-05-13T18:00:43Z</time>
      </trkpt>
      <trkpt lat="59.9755015" lon="17.7266499">
        <ele>25.1317</ele>
        <time>2013-05-13T18:00:44Z</time>
      </trkpt>
      <trkpt lat="59.9755256" lon="17.7266294">
        <ele>25.1317</ele>
        <time>2013-05-13T18:00:45Z</time>
      </trkpt>
      <trkpt lat="59.9755503" lon="17.7266051">
        <ele>25.1317</ele>
        <time>2013-05-13T18:00:46Z</time>
      </trkpt>
      <trkpt lat="59.9755731" lon="17.7265816">
        <ele>25.1317</ele>
        <time>2013-05-13T18:00:47Z</time>
      </trkpt>
      <trkpt lat="59.9756005" lon="17.7265536">
        <ele>25.1317</ele>
        <time>2013-05-13T18:00:48Z</time>
      </trkpt>
      <trkpt lat="59.975627" lon="17.7265264">
        <ele>25.1317</ele>
        <time>2013-05-13T18:00:49Z</time>
      </trkpt>
      <trkpt lat="59.9756468" lon="17.726503">
        <ele>25.1317</ele>
        <time>2013-05-13T18:00:50Z</time>
      </trkpt>
      <trkpt lat="59.9756698" lon="17.7264858">
        <ele>24.651</ele>
        <time>2013-05-13T18:00:51Z</time>
      </trkpt>
      <trkpt lat="59.9756944" lon="17.7264663">
        <ele>24.651</ele>
        <time>2013-05-13T18:00:52Z</time>
      </trkpt>
      <trkpt lat="59.975715" lon="17.7264398">
        <ele>24.1703</ele>
        <time>2013-05-13T18:00:53Z</time>
      </trkpt>
      <trkpt lat="59.9757347" lon="17.7264112">
        <ele>24.1703</ele>
        <time>2013-05-13T18:00:54Z</time>
      </trkpt>
      <trkpt lat="59.9757566" lon="17.7263899">
        <ele>24.1703</ele>
        <time>2013-05-13T18:00:55Z</time>
      </trkpt>
      <trkpt lat="59.9757781" lon="17.7263687">
        <ele>24.1703</ele>
        <time>2013-05-13T18:00:56Z</time>
      </trkpt>
      <trkpt lat="59.975803" lon="17.7263453">
        <ele>24.651</ele>
        <time>2013-05-13T18:00:57Z</time>
      </trkpt>
      <trkpt lat="59.9758264" lon="17.7263226">
        <ele>24.651</ele>
        <time>2013-05-13T18:00:58Z</time>
      </trkpt>
      <trkpt lat="59.9758463" lon="17.7263004">
        <ele>24.1703</ele>
        <time>2013-05-13T18:00:59Z</time>
      </trkpt>
      <trkpt lat="59.9758651" lon="17.7262787">
        <ele>24.1703</ele>
        <time>2013-05-13T18:01:00Z</time>
      </trkpt>
      <trkpt lat="59.9758884" lon="17.726258">
        <ele>24.651</ele>
        <time>2013-05-13T18:01:01Z</time>
      </trkpt>
      <trkpt lat="59.9759128" lon="17.7262336">
        <ele>24.651</ele>
        <time>2013-05-13T18:01:02Z</time>
      </trkpt>
      <trkpt lat="59.9759332" lon="17.7262084">
        <ele>24.1703</ele>
        <time>2013-05-13T18:01:03Z</time>
      </trkpt>
      <trkpt lat="59.9759565" lon="17.7261833">
        <ele>24.1703</ele>
        <time>2013-05-13T18:01:04Z</time>
      </trkpt>
      <trkpt lat="59.9759762" lon="17.7261627">
        <ele>23.6896</ele>
        <time>2013-05-13T18:01:05Z</time>
      </trkpt>
      <trkpt lat="59.9759963" lon="17.7261394">
        <ele>23.6896</ele>
        <time>2013-05-13T18:01:06Z</time>
      </trkpt>
      <trkpt lat="59.976017" lon="17.7261158">
        <ele>23.6896</ele>
        <time>2013-05-13T18:01:07Z</time>
      </trkpt>
      <trkpt lat="59.9760368" lon="17.7260968">
        <ele>23.209</ele>
        <time>2013-05-13T18:01:08Z</time>
      </trkpt>
      <trkpt lat="59.9760573" lon="17.7260797">
        <ele>23.209</ele>
        <time>2013-05-13T18:01:09Z</time>
      </trkpt>
      <trkpt lat="59.9760796" lon="17.7260552">
        <ele>23.209</ele>
        <time>2013-05-13T18:01:10Z</time>
      </trkpt>
      <trkpt lat="59.976101" lon="17.7260328">
        <ele>23.209</ele>
        <time>2013-05-13T18:01:11Z</time>
      </trkpt>
      <trkpt lat="59.9761217" lon="17.7260115">
        <ele>23.209</ele>
        <time>2013-05-13T18:01:12Z</time>
      </trkpt>
      <trkpt lat="59.9761424" lon="17.7259881">
        <ele>22.7283</ele>
        <time>2013-05-13T18:01:13Z</time>
      </trkpt>
      <trkpt lat="59.9761666" lon="17.7259705">
        <ele>22.7283</ele>
        <time>2013-05-13T18:01:14Z</time>
      </trkpt>
      <trkpt lat="59.9761915" lon="17.7259561">
        <ele>22.7283</ele>
        <time>2013-05-13T18:01:15Z</time>
      </trkpt>
      <trkpt lat="59.9762124" lon="17.7259382">
        <ele>22.7283</ele>
        <time>2013-05-13T18:01:16Z</time>
      </trkpt>
      <trkpt lat="59.9762337" lon="17.7259191">
        <ele>22.7283</ele>
        <time>2013-05-13T18:01:17Z</time>
      </trkpt>
      <trkpt lat="59.976255" lon="17.7258989">
        <ele>22.7283</ele>
        <time>2013-05-13T18:01:18Z</time>
      </trkpt>
      <trkpt lat="59.9762751" lon="17.7258752">
        <ele>22.7283</ele>
        <time>2013-05-13T18:01:19Z</time>
      </trkpt>
      <trkpt lat="59.9762952" lon="17.7258517">
        <ele>22.7283</ele>
        <time>2013-05-13T18:01:20Z</time>
      </trkpt>
      <trkpt lat="59.9763185" lon="17.7258351">
        <ele>22.7283</ele>
        <time>2013-05-13T18:01:21Z</time>
      </trkpt>
      <trkpt lat="59.9763381" lon="17.725818">
        <ele>22.2476</ele>
        <time>2013-05-13T18:01:22Z</time>
      </trkpt>
      <trkpt lat="59.9763604" lon="17.7257976">
        <ele>22.2476</ele>
        <time>2013-05-13T18:01:23Z</time>
      </trkpt>
      <trkpt lat="59.9763824" lon="17.7257758">
        <ele>22.7283</ele>
        <time>2013-05-13T18:01:24Z</time>
      </trkpt>
      <trkpt lat="59.9764024" lon="17.7257566">
        <ele>22.7283</ele>
        <time>2013-05-13T18:01:25Z</time>
      </trkpt>
      <trkpt lat="59.9764232" lon="17.7257373">
        <ele>22.7283</ele>
        <time>2013-05-13T18:01:26Z</time>
      </trkpt>
      <trkpt lat="59.9764446" lon="17.7257134">
        <ele>22.7283</ele>
        <time>2013-05-13T18:01:27Z</time>
      </trkpt>
      <trkpt lat="59.9764666" lon="17.7256943">
        <ele>22.7283</ele>
        <time>2013-05-13T18:01:28Z</time>
      </trkpt>
      <trkpt lat="59.9764859" lon="17.7256729">
        <ele>22.7283</ele>
        <time>2013-05-13T18:01:29Z</time>
      </trkpt>
      <trkpt lat="59.9765067" lon="17.725647">
        <ele>23.209</ele>
        <time>2013-05-13T18:01:30Z</time>
      </trkpt>
      <trkpt lat="59.976529" lon="17.7256238">
        <ele>22.7283</ele>
        <time>2013-05-13T18:01:31Z</time>
      </trkpt>
      <trkpt lat="59.9765501" lon="17.7256017">
        <ele>22.7283</ele>
        <time>2013-05-13T18:01:32Z</time>
      </trkpt>
      <trkpt lat="59.9765723" lon="17.7255768">
        <ele>22.7283</ele>
        <time>2013-05-13T18:01:33Z</time>
      </trkpt>
      <trkpt lat="59.9765958" lon="17.7255551">
        <ele>22.7283</ele>
        <time>2013-05-13T18:01:34Z</time>
      </trkpt>
      <trkpt lat="59.9766179" lon="17.7255329">
        <ele>22.7283</ele>
        <time>2013-05-13T18:01:35Z</time>
      </trkpt>
      <trkpt lat="59.9766385" lon="17.7255082">
        <ele>22.7283</ele>
        <time>2013-05-13T18:01:36Z</time>
      </trkpt>
      <trkpt lat="59.9766621" lon="17.7254877">
        <ele>22.7283</ele>
        <time>2013-05-13T18:01:37Z</time>
      </trkpt>
      <trkpt lat="59.9766868" lon="17.7254688">
        <ele>22.7283</ele>
        <time>2013-05-13T18:01:38Z</time>
      </trkpt>
      <trkpt lat="59.976709" lon="17.7254445">
        <ele>22.7283</ele>
        <time>2013-05-13T18:01:39Z</time>
      </trkpt>
      <trkpt lat="59.9767314" lon="17.7254205">
        <ele>22.7283</ele>
        <time>2013-05-13T18:01:40Z</time>
      </trkpt>
      <trkpt lat="59.9767543" lon="17.7254017">
        <ele>22.7283</ele>
        <time>2013-05-13T18:01:41Z</time>
      </trkpt>
      <trkpt lat="59.9767749" lon="17.7253834">
        <ele>22.7283</ele>
        <time>2013-05-13T18:01:42Z</time>
      </trkpt>
      <trkpt lat="59.9767957" lon="17.7253613">
        <ele>22.7283</ele>
        <time>2013-05-13T18:01:43Z</time>
      </trkpt>
      <trkpt lat="59.9768179" lon="17.7253412">
        <ele>22.7283</ele>
        <time>2013-05-13T18:01:44Z</time>
      </trkpt>
      <trkpt lat="59.9768387" lon="17.7253204">
        <ele>22.7283</ele>
        <time>2013-05-13T18:01:45Z</time>
      </trkpt>
      <trkpt lat="59.9768597" lon="17.725299">
        <ele>22.7283</ele>
        <time>2013-05-13T18:01:46Z</time>
      </trkpt>
      <trkpt lat="59.9768835" lon="17.7252795">
        <ele>23.209</ele>
        <time>2013-05-13T18:01:47Z</time>
      </trkpt>
      <trkpt lat="59.9769045" lon="17.7252577">
        <ele>23.209</ele>
        <time>2013-05-13T18:01:48Z</time>
      </trkpt>
      <trkpt lat="59.9769245" lon="17.7252364">
        <ele>23.209</ele>
        <time>2013-05-13T18:01:49Z</time>
      </trkpt>
      <trkpt lat="59.9769453" lon="17.7252156">
        <ele>23.209</ele>
        <time>2013-05-13T18:01:50Z</time>
      </trkpt>
      <trkpt lat="59.9769671" lon="17.725195">
        <ele>23.209</ele>
        <time>2013-05-13T18:01:51Z</time>
      </trkpt>
      <trkpt lat="59.9769883" lon="17.725176">
        <ele>23.209</ele>
        <time>2013-05-13T18:01:52Z</time>
      </trkpt>
      <trkpt lat="59.9770107" lon="17.7251534">
        <ele>23.209</ele>
        <time>2013-05-13T18:01:53Z</time>
      </trkpt>
      <trkpt lat="59.9770334" lon="17.7251299">
        <ele>23.6896</ele>
        <time>2013-05-13T18:01:54Z</time>
      </trkpt>
      <trkpt lat="59.9770553" lon="17.725112">
        <ele>23.6896</ele>
        <time>2013-05-13T18:01:55Z</time>
      </trkpt>
      <trkpt lat="59.9770764" lon="17.7250919">
        <ele>24.1703</ele>
        <time>2013-05-13T18:01:56Z</time>
      </trkpt>
      <trkpt lat="59.9770976" lon="17.7250695">
        <ele>24.1703</ele>
        <time>2013-05-13T18:01:57Z</time>
      </trkpt>
      <trkpt lat="59.97712" lon="17.7250506">
        <ele>24.651</ele>
        <time>2013-05-13T18:01:58Z</time>
      </trkpt>
      <trkpt lat="59.9771423" lon="17.7250338">
        <ele>24.651</ele>
        <time>2013-05-13T18:01:59Z</time>
      </trkpt>
      <trkpt lat="59.9771654" lon="17.7250184">
        <ele>24.651</ele>
        <time>2013-05-13T18:02:00Z</time>
      </trkpt>
      <trkpt lat="59.9771907" lon="17.7250063">
        <ele>25.1317</ele>
        <time>2013-05-13T18:02:01Z</time>
      </trkpt>
      <trkpt lat="59.9772141" lon="17.7249955">
        <ele>25.1317</ele>
        <time>2013-05-13T18:02:02Z</time>
      </trkpt>
      <trkpt lat="59.9772392" lon="17.7249876">
        <ele>25.1317</ele>
        <time>2013-05-13T18:02:03Z</time>
      </trkpt>
      <trkpt lat="59.9772666" lon="17.7249904">
        <ele>25.6123</ele>
        <time>2013-05-13T18:02:04Z</time>
      </trkpt>
      <trkpt lat="59.9772922" lon="17.7249905">
        <ele>25.6123</ele>
        <time>2013-05-13T18:02:05Z</time>
      </trkpt>
      <trkpt lat="59.9773179" lon="17.724992">
        <ele>26.0929</ele>
        <time>2013-05-13T18:02:06Z</time>
      </trkpt>
      <trkpt lat="59.9773452" lon="17.7249956">
        <ele>26.0929</ele>
        <time>2013-05-13T18:02:07Z</time>
      </trkpt>
      <trkpt lat="59.9773692" lon="17.7249997">
        <ele>26.5736</ele>
        <time>2013-05-13T18:02:08Z</time>
      </trkpt>
      <trkpt lat="59.9773946" lon="17.725004">
        <ele>26.5736</ele>
        <time>2013-05-13T18:02:09Z</time>
      </trkpt>
      <trkpt lat="59.9774209" lon="17.7250127">
        <ele>27.0543</ele>
        <time>2013-05-13T18:02:10Z</time>
      </trkpt>
      <trkpt lat="59.9774453" lon="17.7250206">
        <ele>27.5349</ele>
        <time>2013-05-13T18:02:11Z</time>
      </trkpt>
      <trkpt lat="59.9774707" lon="17.7250262">
        <ele>27.5349</ele>
        <time>2013-05-13T18:02:12Z</time>
      </trkpt>
      <trkpt lat="59.977497" lon="17.725032">
        <ele>28.0155</ele>
        <time>2013-05-13T18:02:13Z</time>
      </trkpt>
      <trkpt lat="59.977521" lon="17.7250373">
        <ele>28.0155</ele>
        <time>2013-05-13T18:02:14Z</time>
      </trkpt>
      <trkpt lat="59.9775457" lon="17.7250458">
        <ele>28.4962</ele>
        <time>2013-05-13T18:02:15Z</time>
      </trkpt>
      <trkpt lat="59.9775688" lon="17.7250522">
        <ele>28.4962</ele>
        <time>2013-05-13T18:02:16Z</time>
      </trkpt>
      <trkpt lat="59.9775924" lon="17.7250583">
        <ele>28.9769</ele>
        <time>2013-05-13T18:02:17Z</time>
      </trkpt>
      <trkpt lat="59.9776178" lon="17.7250638">
        <ele>28.9769</ele>
        <time>2013-05-13T18:02:18Z</time>
      </trkpt>
      <trkpt lat="59.977642" lon="17.7250662">
        <ele>29.4575</ele>
        <time>2013-05-13T18:02:19Z</time>
      </trkpt>
      <trkpt lat="59.9776664" lon="17.7250711">
        <ele>29.4575</ele>
        <time>2013-05-13T18:02:20Z</time>
      </trkpt>
      <trkpt lat="59.9776911" lon="17.7250794">
        <ele>29.4575</ele>
        <time>2013-05-13T18:02:21Z</time>
      </trkpt>
      <trkpt lat="59.9777146" lon="17.7250838">
        <ele>29.9381</ele>
        <time>2013-05-13T18:02:22Z</time>
      </trkpt>
      <trkpt lat="59.9777384" lon="17.7250857">
        <ele>29.9381</ele>
        <time>2013-05-13T18:02:23Z</time>
      </trkpt>
      <trkpt lat="59.9777643" lon="17.7250945">
        <ele>30.4188</ele>
        <time>2013-05-13T18:02:24Z</time>
      </trkpt>
      <trkpt lat="59.977788" lon="17.7251012">
        <ele>30.4188</ele>
        <time>2013-05-13T18:02:25Z</time>
      </trkpt>
      <trkpt lat="59.9778125" lon="17.7251059">
        <ele>30.4188</ele>
        <time>2013-05-13T18:02:26Z</time>
      </trkpt>
      <trkpt lat="59.97784" lon="17.7251126">
        <ele>30.8995</ele>
        <time>2013-05-13T18:02:27Z</time>
      </trkpt>
      <trkpt lat="59.9778662" lon="17.7251179">
        <ele>31.3801</ele>
        <time>2013-05-13T18:02:28Z</time>
      </trkpt>
      <trkpt lat="59.9778913" lon="17.7251218">
        <ele>31.3801</ele>
        <time>2013-05-13T18:02:29Z</time>
      </trkpt>
      <trkpt lat="59.9779166" lon="17.725126">
        <ele>31.8607</ele>
        <time>2013-05-13T18:02:30Z</time>
      </trkpt>
      <trkpt lat="59.9779394" lon="17.7251298">
        <ele>31.8607</ele>
        <time>2013-05-13T18:02:31Z</time>
      </trkpt>
      <trkpt lat="59.9779623" lon="17.7251337">
        <ele>31.8607</ele>
        <time>2013-05-13T18:02:32Z</time>
      </trkpt>
      <trkpt lat="59.9779885" lon="17.7251402">
        <ele>31.8607</ele>
        <time>2013-05-13T18:02:33Z</time>
      </trkpt>
      <trkpt lat="59.978012" lon="17.7251458">
        <ele>31.3801</ele>
        <time>2013-05-13T18:02:34Z</time>
      </trkpt>
      <trkpt lat="59.9780368" lon="17.7251509">
        <ele>31.3801</ele>
        <time>2013-05-13T18:02:35Z</time>
      </trkpt>
      <trkpt lat="59.9780627" lon="17.7251593">
        <ele>31.8607</ele>
        <time>2013-05-13T18:02:36Z</time>
      </trkpt>
      <trkpt lat="59.9780858" lon="17.7251679">
        <ele>31.8607</ele>
        <time>2013-05-13T18:02:37Z</time>
      </trkpt>
      <trkpt lat="59.9781078" lon="17.7251755">
        <ele>31.8607</ele>
        <time>2013-05-13T18:02:38Z</time>
      </trkpt>
      <trkpt lat="59.9781316" lon="17.7251871">
        <ele>32.3416</ele>
        <time>2013-05-13T18:02:39Z</time>
      </trkpt>
      <trkpt lat="59.978156" lon="17.7252022">
        <ele>32.3416</ele>
        <time>2013-05-13T18:02:40Z</time>
      </trkpt>
      <trkpt lat="59.9781792" lon="17.7252131">
        <ele>32.8223</ele>
        <time>2013-05-13T18:02:41Z</time>
      </trkpt>
      <trkpt lat="59.9782036" lon="17.7252212">
        <ele>32.3416</ele>
        <time>2013-05-13T18:02:42Z</time>
      </trkpt>
      <trkpt lat="59.978229" lon="17.7252357">
        <ele>32.8223</ele>
        <time>2013-05-13T18:02:43Z</time>
      </trkpt>
      <trkpt lat="59.9782519" lon="17.7252503">
        <ele>33.3029</ele>
        <time>2013-05-13T18:02:44Z</time>
      </trkpt>
      <trkpt lat="59.9782746" lon="17.725264">
        <ele>33.3029</ele>
        <time>2013-05-13T18:02:45Z</time>
      </trkpt>
      <trkpt lat="59.978298" lon="17.7252829">
        <ele>33.3029</ele>
        <time>2013-05-13T18:02:46Z</time>
      </trkpt>
      <trkpt lat="59.9783202" lon="17.7252989">
        <ele>33.7834</ele>
        <time>2013-05-13T18:02:47Z</time>
      </trkpt>
      <trkpt lat="59.9783424" lon="17.7253152">
        <ele>33.7834</ele>
        <time>2013-05-13T18:02:48Z</time>
      </trkpt>
      <trkpt lat="59.9783648" lon="17.7253339">
        <ele>33.7834</ele>
        <time>2013-05-13T18:02:49Z</time>
      </trkpt>
      <trkpt lat="59.9783871" lon="17.7253508">
        <ele>33.7834</ele>
        <time>2013-05-13T18:02:50Z</time>
      </trkpt>
      <trkpt lat="59.9784093" lon="17.7253658">
        <ele>33.7834</ele>
        <time>2013-05-13T18:02:51Z</time>
      </trkpt>
      <trkpt lat="59.978432" lon="17.7253862">
        <ele>33.7834</ele>
        <time>2013-05-13T18:02:52Z</time>
      </trkpt>
      <trkpt lat="59.9784533" lon="17.7254064">
        <ele>33.3029</ele>
        <time>2013-05-13T18:02:53Z</time>
      </trkpt>
      <trkpt lat="59.9784731" lon="17.72542">
        <ele>33.3029</ele>
        <time>2013-05-13T18:02:54Z</time>
      </trkpt>
      <trkpt lat="59.978495" lon="17.7254342">
        <ele>33.3029</ele>
        <time>2013-05-13T18:02:55Z</time>
      </trkpt>
      <trkpt lat="59.9785169" lon="17.7254474">
        <ele>33.3029</ele>
        <time>2013-05-13T18:02:56Z</time>
      </trkpt>
      <trkpt lat="59.9785394" lon="17.7254616">
        <ele>33.3029</ele>
        <time>2013-05-13T18:02:57Z</time>
      </trkpt>
      <trkpt lat="59.9785624" lon="17.7254795">
        <ele>33.3029</ele>
        <time>2013-05-13T18:02:58Z</time>
      </trkpt>
      <trkpt lat="59.9785832" lon="17.725497">
        <ele>33.3029</ele>
        <time>2013-05-13T18:02:59Z</time>
      </trkpt>
      <trkpt lat="59.9785969" lon="17.7255153">
        <ele>32.3416</ele>
        <time>2013-05-13T18:03:00Z</time>
      </trkpt>
      <trkpt lat="59.9786131" lon="17.7255358">
        <ele>31.3801</ele>
        <time>2013-05-13T18:03:01Z</time>
      </trkpt>
      <trkpt lat="59.9786347" lon="17.725552">
        <ele>31.3801</ele>
        <time>2013-05-13T18:03:02Z</time>
      </trkpt>
      <trkpt lat="59.9786577" lon="17.7255633">
        <ele>31.3801</ele>
        <time>2013-05-13T18:03:03Z</time>
      </trkpt>
      <trkpt lat="59.9786798" lon="17.7255746">
        <ele>30.8995</ele>
        <time>2013-05-13T18:03:04Z</time>
      </trkpt>
      <trkpt lat="59.9787031" lon="17.7255876">
        <ele>30.8995</ele>
        <time>2013-05-13T18:03:05Z</time>
      </trkpt>
      <trkpt lat="59.9787254" lon="17.7255989">
        <ele>30.8995</ele>
        <time>2013-05-13T18:03:06Z</time>
      </trkpt>
      <trkpt lat="59.978748" lon="17.7256125">
        <ele>30.8995</ele>
        <time>2013-05-13T18:03:07Z</time>
      </trkpt>
      <trkpt lat="59.9787696" lon="17.725624">
        <ele>30.8995</ele>
        <time>2013-05-13T18:03:08Z</time>
      </trkpt>
      <trkpt lat="59.9787924" lon="17.7256353">
        <ele>30.8995</ele>
        <time>2013-05-13T18:03:09Z</time>
      </trkpt>
      <trkpt lat="59.9788139" lon="17.7256471">
        <ele>30.4188</ele>
        <time>2013-05-13T18:03:10Z</time>
      </trkpt>
      <trkpt lat="59.9788351" lon="17.7256586">
        <ele>30.4188</ele>
        <time>2013-05-13T18:03:11Z</time>
      </trkpt>
      <trkpt lat="59.9788584" lon="17.7256706">
        <ele>30.4188</ele>
        <time>2013-05-13T18:03:12Z</time>
      </trkpt>
      <trkpt lat="59.9788812" lon="17.7256864">
        <ele>30.4188</ele>
        <time>2013-05-13T18:03:13Z</time>
      </trkpt>
      <trkpt lat="59.9789009" lon="17.7257035">
        <ele>29.9381</ele>
        <time>2013-05-13T18:03:14Z</time>
      </trkpt>
      <trkpt lat="59.9789211" lon="17.7257194">
        <ele>29.9381</ele>
        <time>2013-05-13T18:03:15Z</time>
      </trkpt>
      <trkpt lat="59.9789407" lon="17.7257418">
        <ele>29.9381</ele>
        <time>2013-05-13T18:03:16Z</time>
      </trkpt>
      <trkpt lat="59.9789598" lon="17.7257673">
        <ele>29.9381</ele>
        <time>2013-05-13T18:03:17Z</time>
      </trkpt>
      <trkpt lat="59.9789752" lon="17.7257928">
        <ele>29.4575</ele>
        <time>2013-05-13T18:03:18Z</time>
      </trkpt>
      <trkpt lat="59.9789895" lon="17.7258213">
        <ele>29.4575</ele>
        <time>2013-05-13T18:03:19Z</time>
      </trkpt>
      <trkpt lat="59.9790029" lon="17.7258568">
        <ele>28.4962</ele>
        <time>2013-05-13T18:03:20Z</time>
      </trkpt>
      <trkpt lat="59.9790174" lon="17.7258922">
        <ele>28.4962</ele>
        <time>2013-05-13T18:03:21Z</time>
      </trkpt>
      <trkpt lat="59.9790314" lon="17.7259244">
        <ele>28.4962</ele>
        <time>2013-05-13T18:03:22Z</time>
      </trkpt>
      <trkpt lat="59.9790467" lon="17.7259606">
        <ele>28.0155</ele>
        <time>2013-05-13T18:03:23Z</time>
      </trkpt>
      <trkpt lat="59.9790623" lon="17.7259934">
        <ele>27.5349</ele>
        <time>2013-05-13T18:03:24Z</time>
      </trkpt>
      <trkpt lat="59.9790788" lon="17.7260221">
        <ele>27.5349</ele>
        <time>2013-05-13T18:03:25Z</time>
      </trkpt>
      <trkpt lat="59.9790964" lon="17.7260543">
        <ele>27.5349</ele>
        <time>2013-05-13T18:03:26Z</time>
      </trkpt>
      <trkpt lat="59.9791132" lon="17.7260839">
        <ele>27.5349</ele>
        <time>2013-05-13T18:03:27Z</time>
      </trkpt>
      <trkpt lat="59.9791314" lon="17.7261105">
        <ele>27.0543</ele>
        <time>2013-05-13T18:03:28Z</time>
      </trkpt>
      <trkpt lat="59.9791535" lon="17.7261373">
        <ele>27.5349</ele>
        <time>2013-05-13T18:03:29Z</time>
      </trkpt>
      <trkpt lat="59.9791741" lon="17.7261607">
        <ele>27.0543</ele>
        <time>2013-05-13T18:03:30Z</time>
      </trkpt>
      <trkpt lat="59.9791964" lon="17.7261808">
        <ele>27.0543</ele>
        <time>2013-05-13T18:03:31Z</time>
      </trkpt>
      <trkpt lat="59.9792184" lon="17.7262025">
        <ele>27.0543</ele>
        <time>2013-05-13T18:03:32Z</time>
      </trkpt>
      <trkpt lat="59.97924" lon="17.7262264">
        <ele>27.0543</ele>
        <time>2013-05-13T18:03:33Z</time>
      </trkpt>
      <trkpt lat="59.9792624" lon="17.7262453">
        <ele>27.0543</ele>
        <time>2013-05-13T18:03:34Z</time>
      </trkpt>
      <trkpt lat="59.9792842" lon="17.7262611">
        <ele>27.0543</ele>
        <time>2013-05-13T18:03:35Z</time>
      </trkpt>
      <trkpt lat="59.9793101" lon="17.7262751">
        <ele>27.0543</ele>
        <time>2013-05-13T18:03:36Z</time>
      </trkpt>
      <trkpt lat="59.9793404" lon="17.7262818">
        <ele>26.5736</ele>
        <time>2013-05-13T18:03:37Z</time>
      </trkpt>
      <trkpt lat="59.9793684" lon="17.7262864">
        <ele>26.5736</ele>
        <time>2013-05-13T18:03:38Z</time>
      </trkpt>
      <trkpt lat="59.9793917" lon="17.7262985">
        <ele>27.0543</ele>
        <time>2013-05-13T18:03:39Z</time>
      </trkpt>
      <trkpt lat="59.9794168" lon="17.7263099">
        <ele>27.0543</ele>
        <time>2013-05-13T18:03:40Z</time>
      </trkpt>
      <trkpt lat="59.9794401" lon="17.7263159">
        <ele>27.0543</ele>
        <time>2013-05-13T18:03:41Z</time>
      </trkpt>
      <trkpt lat="59.9794651" lon="17.7263241">
        <ele>27.0543</ele>
        <time>2013-05-13T18:03:42Z</time>
      </trkpt>
      <trkpt lat="59.9794913" lon="17.726329">
        <ele>27.5349</ele>
        <time>2013-05-13T18:03:43Z</time>
      </trkpt>
      <trkpt lat="59.9795176" lon="17.7263316">
        <ele>28.0155</ele>
        <time>2013-05-13T18:03:44Z</time>
      </trkpt>
      <trkpt lat="59.979543" lon="17.7263393">
        <ele>28.0155</ele>
        <time>2013-05-13T18:03:45Z</time>
      </trkpt>
      <trkpt lat="59.9795665" lon="17.7263505">
        <ele>28.0155</ele>
        <time>2013-05-13T18:03:46Z</time>
      </trkpt>
      <trkpt lat="59.9795858" lon="17.7263663">
        <ele>28.0155</ele>
        <time>2013-05-13T18:03:47Z</time>
      </trkpt>
      <trkpt lat="59.9796057" lon="17.726389">
        <ele>27.5349</ele>
        <time>2013-05-13T18:03:48Z</time>
      </trkpt>
      <trkpt lat="59.9796251" lon="17.7264138">
        <ele>27.5349</ele>
        <time>2013-05-13T18:03:49Z</time>
      </trkpt>
      <trkpt lat="59.9796425" lon="17.726441">
        <ele>27.5349</ele>
        <time>2013-05-13T18:03:50Z</time>
      </trkpt>
      <trkpt lat="59.9796583" lon="17.7264762">
        <ele>27.0543</ele>
        <time>2013-05-13T18:03:51Z</time>
      </trkpt>
      <trkpt lat="59.979671" lon="17.7265176">
        <ele>26.5736</ele>
        <time>2013-05-13T18:03:52Z</time>
      </trkpt>
      <trkpt lat="59.979683" lon="17.7265564">
        <ele>26.0929</ele>
        <time>2013-05-13T18:03:53Z</time>
      </trkpt>
      <trkpt lat="59.9796945" lon="17.7265958">
        <ele>25.6123</ele>
        <time>2013-05-13T18:03:54Z</time>
      </trkpt>
      <trkpt lat="59.9797078" lon="17.7266346">
        <ele>25.1317</ele>
        <time>2013-05-13T18:03:55Z</time>
      </trkpt>
      <trkpt lat="59.9797217" lon="17.7266694">
        <ele>25.1317</ele>
        <time>2013-05-13T18:03:56Z</time>
      </trkpt>
      <trkpt lat="59.9797357" lon="17.7267028">
        <ele>24.651</ele>
        <time>2013-05-13T18:03:57Z</time>
      </trkpt>
      <trkpt lat="59.9797488" lon="17.7267349">
        <ele>24.1703</ele>
        <time>2013-05-13T18:03:58Z</time>
      </trkpt>
      <trkpt lat="59.9797643" lon="17.7267646">
        <ele>24.1703</ele>
        <time>2013-05-13T18:03:59Z</time>
      </trkpt>
      <trkpt lat="59.9797782" lon="17.7267957">
        <ele>24.1703</ele>
        <time>2013-05-13T18:04:00Z</time>
      </trkpt>
      <trkpt lat="59.9797916" lon="17.7268279">
        <ele>23.6896</ele>
        <time>2013-05-13T18:04:01Z</time>
      </trkpt>
      <trkpt lat="59.9798073" lon="17.7268577">
        <ele>23.6896</ele>
        <time>2013-05-13T18:04:02Z</time>
      </trkpt>
      <trkpt lat="59.9798253" lon="17.7268863">
        <ele>24.1703</ele>
        <time>2013-05-13T18:04:03Z</time>
      </trkpt>
      <trkpt lat="59.97984" lon="17.7269169">
        <ele>24.1703</ele>
        <time>2013-05-13T18:04:04Z</time>
      </trkpt>
      <trkpt lat="59.9798566" lon="17.7269464">
        <ele>24.651</ele>
        <time>2013-05-13T18:04:05Z</time>
      </trkpt>
      <trkpt lat="59.9798747" lon="17.726976">
        <ele>25.1317</ele>
        <time>2013-05-13T18:04:06Z</time>
      </trkpt>
      <trkpt lat="59.9798892" lon="17.7270084">
        <ele>25.1317</ele>
        <time>2013-05-13T18:04:07Z</time>
      </trkpt>
      <trkpt lat="59.9799037" lon="17.7270397">
        <ele>24.651</ele>
        <time>2013-05-13T18:04:08Z</time>
      </trkpt>
      <trkpt lat="59.9799227" lon="17.7270703">
        <ele>24.651</ele>
        <time>2013-05-13T18:04:09Z</time>
      </trkpt>
      <trkpt lat="59.9799416" lon="17.7271064">
        <ele>25.1317</ele>
        <time>2013-05-13T18:04:10Z</time>
      </trkpt>
      <trkpt lat="59.9799623" lon="17.7271391">
        <ele>24.651</ele>
        <time>2013-05-13T18:04:11Z</time>
      </trkpt>
      <trkpt lat="59.9799793" lon="17.727169">
        <ele>24.651</ele>
        <time>2013-05-13T18:04:12Z</time>
      </trkpt>
      <trkpt lat="59.9799945" lon="17.7272031">
        <ele>24.651</ele>
        <time>2013-05-13T18:04:13Z</time>
      </trkpt>
      <trkpt lat="59.9800099" lon="17.727237">
        <ele>24.651</ele>
        <time>2013-05-13T18:04:14Z</time>
      </trkpt>
      <trkpt lat="59.9800248" lon="17.7272684">
        <ele>24.651</ele>
        <time>2013-05-13T18:04:15Z</time>
      </trkpt>
      <trkpt lat="59.9800444" lon="17.7273016">
        <ele>24.651</ele>
        <time>2013-05-13T18:04:16Z</time>
      </trkpt>
      <trkpt lat="59.9800617" lon="17.7273338">
        <ele>24.651</ele>
        <time>2013-05-13T18:04:17Z</time>
      </trkpt>
      <trkpt lat="59.9800768" lon="17.727364">
        <ele>24.651</ele>
        <time>2013-05-13T18:04:18Z</time>
      </trkpt>
      <trkpt lat="59.9800947" lon="17.7273943">
        <ele>24.651</ele>
        <time>2013-05-13T18:04:19Z</time>
      </trkpt>
      <trkpt lat="59.9801121" lon="17.7274282">
        <ele>25.1317</ele>
        <time>2013-05-13T18:04:20Z</time>
      </trkpt>
      <trkpt lat="59.9801291" lon="17.7274596">
        <ele>25.1317</ele>
        <time>2013-05-13T18:04:21Z</time>
      </trkpt>
      <trkpt lat="59.9801434" lon="17.7274902">
        <ele>24.651</ele>
        <time>2013-05-13T18:04:22Z</time>
      </trkpt>
      <trkpt lat="59.9801594" lon="17.727524">
        <ele>25.1317</ele>
        <time>2013-05-13T18:04:23Z</time>
      </trkpt>
      <trkpt lat="59.9801751" lon="17.7275523">
        <ele>25.1317</ele>
        <time>2013-05-13T18:04:24Z</time>
      </trkpt>
      <trkpt lat="59.9801939" lon="17.727584">
        <ele>25.6123</ele>
        <time>2013-05-13T18:04:25Z</time>
      </trkpt>
      <trkpt lat="59.9802115" lon="17.7276201">
        <ele>25.6123</ele>
        <time>2013-05-13T18:04:26Z</time>
      </trkpt>
      <trkpt lat="59.9802258" lon="17.7276504">
        <ele>25.6123</ele>
        <time>2013-05-13T18:04:27Z</time>
      </trkpt>
      <trkpt lat="59.9802431" lon="17.727682">
        <ele>25.1317</ele>
        <time>2013-05-13T18:04:28Z</time>
      </trkpt>
      <trkpt lat="59.9802625" lon="17.7277165">
        <ele>25.6123</ele>
        <time>2013-05-13T18:04:29Z</time>
      </trkpt>
      <trkpt lat="59.9802813" lon="17.7277477">
        <ele>25.6123</ele>
        <time>2013-05-13T18:04:30Z</time>
      </trkpt>
      <trkpt lat="59.9802974" lon="17.7277768">
        <ele>25.6123</ele>
        <time>2013-05-13T18:04:31Z</time>
      </trkpt>
      <trkpt lat="59.9803146" lon="17.7278077">
        <ele>26.0929</ele>
        <time>2013-05-13T18:04:32Z</time>
      </trkpt>
      <trkpt lat="59.9803321" lon="17.7278339">
        <ele>26.5736</ele>
        <time>2013-05-13T18:04:33Z</time>
      </trkpt>
      <trkpt lat="59.9803501" lon="17.7278665">
        <ele>26.5736</ele>
        <time>2013-05-13T18:04:34Z</time>
      </trkpt>
      <trkpt lat="59.9803638" lon="17.7279036">
        <ele>26.5736</ele>
        <time>2013-05-13T18:04:35Z</time>
      </trkpt>
      <trkpt lat="59.9803792" lon="17.7279364">
        <ele>26.5736</ele>
        <time>2013-05-13T18:04:36Z</time>
      </trkpt>
      <trkpt lat="59.9803984" lon="17.7279669">
        <ele>27.0543</ele>
        <time>2013-05-13T18:04:37Z</time>
      </trkpt>
      <trkpt lat="59.9804143" lon="17.7279985">
        <ele>27.5349</ele>
        <time>2013-05-13T18:04:38Z</time>
      </trkpt>
      <trkpt lat="59.9804278" lon="17.7280271">
        <ele>27.5349</ele>
        <time>2013-05-13T18:04:39Z</time>
      </trkpt>
      <trkpt lat="59.9804461" lon="17.728057">
        <ele>28.0155</ele>
        <time>2013-05-13T18:04:40Z</time>
      </trkpt>
      <trkpt lat="59.980464" lon="17.728089">
        <ele>28.4962</ele>
        <time>2013-05-13T18:04:41Z</time>
      </trkpt>
      <trkpt lat="59.9804834" lon="17.7281191">
        <ele>28.4962</ele>
        <time>2013-05-13T18:04:42Z</time>
      </trkpt>
      <trkpt lat="59.9805029" lon="17.7281487">
        <ele>28.4962</ele>
        <time>2013-05-13T18:04:43Z</time>
      </trkpt>
      <trkpt lat="59.9805243" lon="17.7281799">
        <ele>28.0155</ele>
        <time>2013-05-13T18:04:44Z</time>
      </trkpt>
      <trkpt lat="59.9805445" lon="17.7282117">
        <ele>28.0155</ele>
        <time>2013-05-13T18:04:45Z</time>
      </trkpt>
      <trkpt lat="59.980565" lon="17.7282429">
        <ele>28.4962</ele>
        <time>2013-05-13T18:04:46Z</time>
      </trkpt>
      <trkpt lat="59.9805859" lon="17.7282732">
        <ele>28.9769</ele>
        <time>2013-05-13T18:04:47Z</time>
      </trkpt>
      <trkpt lat="59.9806041" lon="17.7283016">
        <ele>28.4962</ele>
        <time>2013-05-13T18:04:48Z</time>
      </trkpt>
      <trkpt lat="59.9806253" lon="17.728336">
        <ele>28.9769</ele>
        <time>2013-05-13T18:04:49Z</time>
      </trkpt>
      <trkpt lat="59.9806419" lon="17.7283705">
        <ele>28.9769</ele>
        <time>2013-05-13T18:04:50Z</time>
      </trkpt>
      <trkpt lat="59.9806582" lon="17.7284">
        <ele>29.4575</ele>
        <time>2013-05-13T18:04:51Z</time>
      </trkpt>
      <trkpt lat="59.9806726" lon="17.7284355">
        <ele>29.4575</ele>
        <time>2013-05-13T18:04:52Z</time>
      </trkpt>
      <trkpt lat="59.9806888" lon="17.7284725">
        <ele>29.4575</ele>
        <time>2013-05-13T18:04:53Z</time>
      </trkpt>
      <trkpt lat="59.9807044" lon="17.728503">
        <ele>29.4575</ele>
        <time>2013-05-13T18:04:54Z</time>
      </trkpt>
      <trkpt lat="59.9807214" lon="17.7285341">
        <ele>29.9381</ele>
        <time>2013-05-13T18:04:55Z</time>
      </trkpt>
      <trkpt lat="59.9807363" lon="17.7285655">
        <ele>30.4188</ele>
        <time>2013-05-13T18:04:56Z</time>
      </trkpt>
      <trkpt lat="59.9807513" lon="17.7285945">
        <ele>30.4188</ele>
        <time>2013-05-13T18:04:57Z</time>
      </trkpt>
      <trkpt lat="59.9807677" lon="17.728628">
        <ele>30.4188</ele>
        <time>2013-05-13T18:04:58Z</time>
      </trkpt>
      <trkpt lat="59.9807829" lon="17.7286588">
        <ele>30.4188</ele>
        <time>2013-05-13T18:04:59Z</time>
      </trkpt>
      <trkpt lat="59.9808018" lon="17.7286848">
        <ele>30.4188</ele>
        <time>2013-05-13T18:05:00Z</time>
      </trkpt>
      <trkpt lat="59.9808189" lon="17.7287155">
        <ele>30.4188</ele>
        <time>2013-05-13T18:05:01Z</time>
      </trkpt>
      <trkpt lat="59.9808304" lon="17.7287442">
        <ele>29.9381</ele>
        <time>2013-05-13T18:05:02Z</time>
      </trkpt>
      <trkpt lat="59.9808412" lon="17.7287732">
        <ele>29.9381</ele>
        <time>2013-05-13T18:05:03Z</time>
      </trkpt>
      <trkpt lat="59.9808542" lon="17.728805">
        <ele>30.4188</ele>
        <time>2013-05-13T18:05:04Z</time>
      </trkpt>
      <trkpt lat="59.9808681" lon="17.728834">
        <ele>30.4188</ele>
        <time>2013-05-13T18:05:05Z</time>
      </trkpt>
      <trkpt lat="59.9808884" lon="17.7288547">
        <ele>30.4188</ele>
        <time>2013-05-13T18:05:06Z</time>
      </trkpt>
      <trkpt lat="59.9809102" lon="17.7288724">
        <ele>30.4188</ele>
        <time>2013-05-13T18:05:07Z</time>
      </trkpt>
      <trkpt lat="59.9809282" lon="17.7288864">
        <ele>30.4188</ele>
        <time>2013-05-13T18:05:08Z</time>
      </trkpt>
      <trkpt lat="59.980953" lon="17.7288931">
        <ele>30.4188</ele>
        <time>2013-05-13T18:05:09Z</time>
      </trkpt>
      <trkpt lat="59.9809791" lon="17.7288978">
        <ele>30.8995</ele>
        <time>2013-05-13T18:05:10Z</time>
      </trkpt>
      <trkpt lat="59.9810036" lon="17.7289091">
        <ele>31.3801</ele>
        <time>2013-05-13T18:05:11Z</time>
      </trkpt>
      <trkpt lat="59.9810252" lon="17.7289137">
        <ele>31.8607</ele>
        <time>2013-05-13T18:05:12Z</time>
      </trkpt>
      <trkpt lat="59.9810462" lon="17.7289143">
        <ele>32.3416</ele>
        <time>2013-05-13T18:05:13Z</time>
      </trkpt>
      <trkpt lat="59.9810635" lon="17.7289091">
        <ele>31.8607</ele>
        <time>2013-05-13T18:05:14Z</time>
      </trkpt>
      <trkpt lat="59.9810857" lon="17.7289031">
        <ele>32.3416</ele>
        <time>2013-05-13T18:05:15Z</time>
      </trkpt>
      <trkpt lat="59.981108" lon="17.7288919">
        <ele>32.8223</ele>
        <time>2013-05-13T18:05:16Z</time>
      </trkpt>
      <trkpt lat="59.9811287" lon="17.7288781">
        <ele>33.3029</ele>
        <time>2013-05-13T18:05:17Z</time>
      </trkpt>
      <trkpt lat="59.9811478" lon="17.7288618">
        <ele>33.7834</ele>
        <time>2013-05-13T18:05:18Z</time>
      </trkpt>
      <trkpt lat="59.9811696" lon="17.7288471">
        <ele>34.7449</ele>
        <time>2013-05-13T18:05:19Z</time>
      </trkpt>
      <trkpt lat="59.9811913" lon="17.7288285">
        <ele>35.2255</ele>
        <time>2013-05-13T18:05:20Z</time>
      </trkpt>
      <trkpt lat="59.9812096" lon="17.7288087">
        <ele>35.2255</ele>
        <time>2013-05-13T18:05:21Z</time>
      </trkpt>
      <trkpt lat="59.9812291" lon="17.7287895">
        <ele>36.1868</ele>
        <time>2013-05-13T18:05:22Z</time>
      </trkpt>
      <trkpt lat="59.981248" lon="17.7287697">
        <ele>36.1868</ele>
        <time>2013-05-13T18:05:23Z</time>
      </trkpt>
      <trkpt lat="59.9812656" lon="17.728752">
        <ele>35.7061</ele>
        <time>2013-05-13T18:05:24Z</time>
      </trkpt>
      <trkpt lat="59.9812811" lon="17.7287351">
        <ele>35.7061</ele>
        <time>2013-05-13T18:05:25Z</time>
      </trkpt>
      <trkpt lat="59.9812986" lon="17.7287175">
        <ele>35.7061</ele>
        <time>2013-05-13T18:05:26Z</time>
      </trkpt>
      <trkpt lat="59.9813197" lon="17.7287015">
        <ele>35.7061</ele>
        <time>2013-05-13T18:05:27Z</time>
      </trkpt>
      <trkpt lat="59.9813386" lon="17.7286848">
        <ele>35.2255</ele>
        <time>2013-05-13T18:05:28Z</time>
      </trkpt>
      <trkpt lat="59.9813557" lon="17.7286614">
        <ele>34.7449</ele>
        <time>2013-05-13T18:05:29Z</time>
      </trkpt>
      <trkpt lat="59.9813764" lon="17.7286352">
        <ele>35.2255</ele>
        <time>2013-05-13T18:05:30Z</time>
      </trkpt>
      <trkpt lat="59.9813971" lon="17.7286109">
        <ele>35.2255</ele>
        <time>2013-05-13T18:05:31Z</time>
      </trkpt>
      <trkpt lat="59.9814135" lon="17.7285902">
        <ele>35.2255</ele>
        <time>2013-05-13T18:05:32Z</time>
      </trkpt>
      <trkpt lat="59.9814268" lon="17.7285673">
        <ele>34.7449</ele>
        <time>2013-05-13T18:05:33Z</time>
      </trkpt>
      <trkpt lat="59.9814451" lon="17.7285439">
        <ele>34.7449</ele>
        <time>2013-05-13T18:05:34Z</time>
      </trkpt>
      <trkpt lat="59.9814649" lon="17.7285232">
        <ele>34.7449</ele>
        <time>2013-05-13T18:05:35Z</time>
      </trkpt>
      <trkpt lat="59.9814822" lon="17.7284997">
        <ele>35.2255</ele>
        <time>2013-05-13T18:05:36Z</time>
      </trkpt>
      <trkpt lat="59.981495" lon="17.7284724">
        <ele>34.7449</ele>
        <time>2013-05-13T18:05:37Z</time>
      </trkpt>
      <trkpt lat="59.9815085" lon="17.7284462">
        <ele>34.7449</ele>
        <time>2013-05-13T18:05:38Z</time>
      </trkpt>
      <trkpt lat="59.9815261" lon="17.7284243">
        <ele>34.7449</ele>
        <time>2013-05-13T18:05:39Z</time>
      </trkpt>
      <trkpt lat="59.9815432" lon="17.7284019">
        <ele>34.7449</ele>
        <time>2013-05-13T18:05:40Z</time>
      </trkpt>
      <trkpt lat="59.9815565" lon="17.7283714">
        <ele>34.2642</ele>
        <time>2013-05-13T18:05:41Z</time>
      </trkpt>
      <trkpt lat="59.9815729" lon="17.7283436">
        <ele>34.2642</ele>
        <time>2013-05-13T18:05:42Z</time>
      </trkpt>
      <trkpt lat="59.9815922" lon="17.7283201">
        <ele>34.2642</ele>
        <time>2013-05-13T18:05:43Z</time>
      </trkpt>
      <trkpt lat="59.9816098" lon="17.728301">
        <ele>33.7834</ele>
        <time>2013-05-13T18:05:44Z</time>
      </trkpt>
      <trkpt lat="59.9816267" lon="17.728282">
        <ele>33.7834</ele>
        <time>2013-05-13T18:05:45Z</time>
      </trkpt>
      <trkpt lat="59.9816464" lon="17.7282677">
        <ele>33.7834</ele>
        <time>2013-05-13T18:05:46Z</time>
      </trkpt>
      <trkpt lat="59.9816674" lon="17.7282507">
        <ele>33.7834</ele>
        <time>2013-05-13T18:05:47Z</time>
      </trkpt>
      <trkpt lat="59.9816872" lon="17.7282332">
        <ele>33.7834</ele>
        <time>2013-05-13T18:05:48Z</time>
      </trkpt>
      <trkpt lat="59.9817084" lon="17.7282161">
        <ele>33.7834</ele>
        <time>2013-05-13T18:05:49Z</time>
      </trkpt>
      <trkpt lat="59.9817326" lon="17.7281939">
        <ele>34.2642</ele>
        <time>2013-05-13T18:05:50Z</time>
      </trkpt>
      <trkpt lat="59.9817541" lon="17.7281719">
        <ele>34.2642</ele>
        <time>2013-05-13T18:05:51Z</time>
      </trkpt>
      <trkpt lat="59.9817737" lon="17.7281511">
        <ele>33.7834</ele>
        <time>2013-05-13T18:05:52Z</time>
      </trkpt>
      <trkpt lat="59.9817969" lon="17.728128">
        <ele>33.7834</ele>
        <time>2013-05-13T18:05:53Z</time>
      </trkpt>
      <trkpt lat="59.9818187" lon="17.7281062">
        <ele>34.2642</ele>
        <time>2013-05-13T18:05:54Z</time>
      </trkpt>
      <trkpt lat="59.9818374" lon="17.7280834">
        <ele>34.2642</ele>
        <time>2013-05-13T18:05:55Z</time>
      </trkpt>
      <trkpt lat="59.9818582" lon="17.7280664">
        <ele>34.7449</ele>
        <time>2013-05-13T18:05:56Z</time>
      </trkpt>
      <trkpt lat="59.9818789" lon="17.7280501">
        <ele>34.7449</ele>
        <time>2013-05-13T18:05:57Z</time>
      </trkpt>
      <trkpt lat="59.9818968" lon="17.7280306">
        <ele>34.7449</ele>
        <time>2013-05-13T18:05:58Z</time>
      </trkpt>
      <trkpt lat="59.9819146" lon="17.7280037">
        <ele>34.7449</ele>
        <time>2013-05-13T18:05:59Z</time>
      </trkpt>
      <trkpt lat="59.9819377" lon="17.7279686">
        <ele>35.2255</ele>
        <time>2013-05-13T18:06:00Z</time>
      </trkpt>
      <trkpt lat="59.9819616" lon="17.7279219">
        <ele>34.7449</ele>
        <time>2013-05-13T18:06:01Z</time>
      </trkpt>
      <trkpt lat="59.9819829" lon="17.7278845">
        <ele>35.2255</ele>
        <time>2013-05-13T18:06:02Z</time>
      </trkpt>
      <trkpt lat="59.9820025" lon="17.7278589">
        <ele>35.2255</ele>
        <time>2013-05-13T18:06:03Z</time>
      </trkpt>
      <trkpt lat="59.9820219" lon="17.7278409">
        <ele>35.7061</ele>
        <time>2013-05-13T18:06:04Z</time>
      </trkpt>
      <trkpt lat="59.9820394" lon="17.7278154">
        <ele>35.7061</ele>
        <time>2013-05-13T18:06:05Z</time>
      </trkpt>
      <trkpt lat="59.9820574" lon="17.7277882">
        <ele>35.7061</ele>
        <time>2013-05-13T18:06:06Z</time>
      </trkpt>
      <trkpt lat="59.982075" lon="17.7277684">
        <ele>36.1868</ele>
        <time>2013-05-13T18:06:07Z</time>
      </trkpt>
      <trkpt lat="59.9820921" lon="17.7277457">
        <ele>36.6675</ele>
        <time>2013-05-13T18:06:08Z</time>
      </trkpt>
      <trkpt lat="59.9821111" lon="17.7277203">
        <ele>36.6675</ele>
        <time>2013-05-13T18:06:09Z</time>
      </trkpt>
      <trkpt lat="59.9821305" lon="17.7276973">
        <ele>37.1481</ele>
        <time>2013-05-13T18:06:10Z</time>
      </trkpt>
      <trkpt lat="59.9821482" lon="17.7276715">
        <ele>37.1481</ele>
        <time>2013-05-13T18:06:11Z</time>
      </trkpt>
      <trkpt lat="59.9821701" lon="17.727645">
        <ele>36.6675</ele>
        <time>2013-05-13T18:06:12Z</time>
      </trkpt>
      <trkpt lat="59.9821819" lon="17.7276157">
        <ele>36.1868</ele>
        <time>2013-05-13T18:06:13Z</time>
      </trkpt>
      <trkpt lat="59.9821901" lon="17.7275882">
        <ele>35.7061</ele>
        <time>2013-05-13T18:06:14Z</time>
      </trkpt>
      <trkpt lat="59.9822009" lon="17.7275649">
        <ele>35.2255</ele>
        <time>2013-05-13T18:06:15Z</time>
      </trkpt>
      <trkpt lat="59.9822134" lon="17.7275422">
        <ele>34.7449</ele>
        <time>2013-05-13T18:06:16Z</time>
      </trkpt>
      <trkpt lat="59.9822247" lon="17.7275173">
        <ele>34.7449</ele>
        <time>2013-05-13T18:06:17Z</time>
      </trkpt>
      <trkpt lat="59.9822373" lon="17.7274902">
        <ele>34.2642</ele>
        <time>2013-05-13T18:06:18Z</time>
      </trkpt>
      <trkpt lat="59.9822511" lon="17.7274664">
        <ele>34.2642</ele>
        <time>2013-05-13T18:06:19Z</time>
      </trkpt>
      <trkpt lat="59.9822623" lon="17.7274402">
        <ele>34.2642</ele>
        <time>2013-05-13T18:06:20Z</time>
      </trkpt>
      <trkpt lat="59.9822731" lon="17.7274085">
        <ele>33.7834</ele>
        <time>2013-05-13T18:06:21Z</time>
      </trkpt>
      <trkpt lat="59.9822855" lon="17.7273733">
        <ele>33.3029</ele>
        <time>2013-05-13T18:06:22Z</time>
      </trkpt>
      <trkpt lat="59.9822995" lon="17.7273374">
        <ele>33.3029</ele>
        <time>2013-05-13T18:06:23Z</time>
      </trkpt>
      <trkpt lat="59.9823118" lon="17.7273003">
        <ele>33.7834</ele>
        <time>2013-05-13T18:06:24Z</time>
      </trkpt>
      <trkpt lat="59.9823233" lon="17.7272586">
        <ele>33.7834</ele>
        <time>2013-05-13T18:06:25Z</time>
      </trkpt>
      <trkpt lat="59.9823356" lon="17.727221">
        <ele>34.2642</ele>
        <time>2013-05-13T18:06:26Z</time>
      </trkpt>
      <trkpt lat="59.9823482" lon="17.7271874">
        <ele>34.2642</ele>
        <time>2013-05-13T18:06:27Z</time>
      </trkpt>
      <trkpt lat="59.9823615" lon="17.7271556">
        <ele>34.7449</ele>
        <time>2013-05-13T18:06:28Z</time>
      </trkpt>
      <trkpt lat="59.982378" lon="17.7271244">
        <ele>34.7449</ele>
        <time>2013-05-13T18:06:29Z</time>
      </trkpt>
      <trkpt lat="59.9823938" lon="17.7270889">
        <ele>35.2255</ele>
        <time>2013-05-13T18:06:30Z</time>
      </trkpt>
      <trkpt lat="59.9824078" lon="17.7270515">
        <ele>35.2255</ele>
        <time>2013-05-13T18:06:31Z</time>
      </trkpt>
      <trkpt lat="59.982425" lon="17.727021">
        <ele>35.2255</ele>
        <time>2013-05-13T18:06:32Z</time>
      </trkpt>
      <trkpt lat="59.9824434" lon="17.726996">
        <ele>35.7061</ele>
        <time>2013-05-13T18:06:33Z</time>
      </trkpt>
      <trkpt lat="59.9824607" lon="17.7269732">
        <ele>35.7061</ele>
        <time>2013-05-13T18:06:34Z</time>
      </trkpt>
      <trkpt lat="59.9824787" lon="17.72695">
        <ele>35.7061</ele>
        <time>2013-05-13T18:06:35Z</time>
      </trkpt>
      <trkpt lat="59.9824977" lon="17.7269278">
        <ele>36.1868</ele>
        <time>2013-05-13T18:06:36Z</time>
      </trkpt>
      <trkpt lat="59.982513" lon="17.7269091">
        <ele>35.7061</ele>
        <time>2013-05-13T18:06:37Z</time>
      </trkpt>
      <trkpt lat="59.98253" lon="17.7268919">
        <ele>35.2255</ele>
        <time>2013-05-13T18:06:38Z</time>
      </trkpt>
      <trkpt lat="59.9825513" lon="17.726879">
        <ele>35.2255</ele>
        <time>2013-05-13T18:06:39Z</time>
      </trkpt>
      <trkpt lat="59.982573" lon="17.7268641">
        <ele>35.7061</ele>
        <time>2013-05-13T18:06:40Z</time>
      </trkpt>
      <trkpt lat="59.9825879" lon="17.7268442">
        <ele>34.7449</ele>
        <time>2013-05-13T18:06:41Z</time>
      </trkpt>
      <trkpt lat="59.982604" lon="17.7268229">
        <ele>34.7449</ele>
        <time>2013-05-13T18:06:42Z</time>
      </trkpt>
      <trkpt lat="59.9826228" lon="17.726804">
        <ele>34.2642</ele>
        <time>2013-05-13T18:06:43Z</time>
      </trkpt>
      <trkpt lat="59.9826415" lon="17.7267801">
        <ele>34.2642</ele>
        <time>2013-05-13T18:06:44Z</time>
      </trkpt>
      <trkpt lat="59.982661" lon="17.7267567">
        <ele>34.2642</ele>
        <time>2013-05-13T18:06:45Z</time>
      </trkpt>
      <trkpt lat="59.9826826" lon="17.726735">
        <ele>34.7449</ele>
        <time>2013-05-13T18:06:46Z</time>
      </trkpt>
      <trkpt lat="59.9827046" lon="17.726719">
        <ele>34.7449</ele>
        <time>2013-05-13T18:06:47Z</time>
      </trkpt>
      <trkpt lat="59.9827233" lon="17.7266988">
        <ele>34.7449</ele>
        <time>2013-05-13T18:06:48Z</time>
      </trkpt>
      <trkpt lat="59.982742" lon="17.7266787">
        <ele>34.7449</ele>
        <time>2013-05-13T18:06:49Z</time>
      </trkpt>
      <trkpt lat="59.9827625" lon="17.7266661">
        <ele>34.2642</ele>
        <time>2013-05-13T18:06:50Z</time>
      </trkpt>
      <trkpt lat="59.9827842" lon="17.7266552">
        <ele>34.2642</ele>
        <time>2013-05-13T18:06:51Z</time>
      </trkpt>
      <trkpt lat="59.9828064" lon="17.7266456">
        <ele>34.2642</ele>
        <time>2013-05-13T18:06:52Z</time>
      </trkpt>
      <trkpt lat="59.98283" lon="17.7266391">
        <ele>34.2642</ele>
        <time>2013-05-13T18:06:53Z</time>
      </trkpt>
      <trkpt lat="59.9828544" lon="17.726636">
        <ele>34.7449</ele>
        <time>2013-05-13T18:06:54Z</time>
      </trkpt>
      <trkpt lat="59.9828766" lon="17.7266314">
        <ele>34.7449</ele>
        <time>2013-05-13T18:06:55Z</time>
      </trkpt>
      <trkpt lat="59.9828976" lon="17.726625">
        <ele>34.7449</ele>
        <time>2013-05-13T18:06:56Z</time>
      </trkpt>
      <trkpt lat="59.9829195" lon="17.7266227">
        <ele>34.2642</ele>
        <time>2013-05-13T18:06:57Z</time>
      </trkpt>
      <trkpt lat="59.9829433" lon="17.7266231">
        <ele>34.2642</ele>
        <time>2013-05-13T18:06:58Z</time>
      </trkpt>
      <trkpt lat="59.9829647" lon="17.726619">
        <ele>34.2642</ele>
        <time>2013-05-13T18:06:59Z</time>
      </trkpt>
      <trkpt lat="59.9829863" lon="17.7266142">
        <ele>34.2642</ele>
        <time>2013-05-13T18:07:00Z</time>
      </trkpt>
      <trkpt lat="59.9830091" lon="17.7266123">
        <ele>34.2642</ele>
        <time>2013-05-13T18:07:01Z</time>
      </trkpt>
      <trkpt lat="59.9830309" lon="17.7266109">
        <ele>33.7834</ele>
        <time>2013-05-13T18:07:02Z</time>
      </trkpt>
      <trkpt lat="59.9830536" lon="17.7266116">
        <ele>34.2642</ele>
        <time>2013-05-13T18:07:03Z</time>
      </trkpt>
      <trkpt lat="59.9830772" lon="17.7266165">
        <ele>34.2642</ele>
        <time>2013-05-13T18:07:04Z</time>
      </trkpt>
      <trkpt lat="59.9831014" lon="17.7266162">
        <ele>34.2642</ele>
        <time>2013-05-13T18:07:05Z</time>
      </trkpt>
      <trkpt lat="59.9831242" lon="17.7266143">
        <ele>34.2642</ele>
        <time>2013-05-13T18:07:06Z</time>
      </trkpt>
      <trkpt lat="59.9831486" lon="17.726614">
        <ele>34.2642</ele>
        <time>2013-05-13T18:07:07Z</time>
      </trkpt>
      <trkpt lat="59.9831738" lon="17.7266133">
        <ele>34.2642</ele>
        <time>2013-05-13T18:07:08Z</time>
      </trkpt>
      <trkpt lat="59.9831987" lon="17.7266105">
        <ele>34.2642</ele>
        <time>2013-05-13T18:07:09Z</time>
      </trkpt>
      <trkpt lat="59.9832231" lon="17.7266081">
        <ele>34.7449</ele>
        <time>2013-05-13T18:07:10Z</time>
      </trkpt>
      <trkpt lat="59.983246" lon="17.7266096">
        <ele>34.2642</ele>
        <time>2013-05-13T18:07:11Z</time>
      </trkpt>
      <trkpt lat="59.9832676" lon="17.7266093">
        <ele>34.2642</ele>
        <time>2013-05-13T18:07:12Z</time>
      </trkpt>
      <trkpt lat="59.9832937" lon="17.7266092">
        <ele>34.7449</ele>
        <time>2013-05-13T18:07:13Z</time>
      </trkpt>
      <trkpt lat="59.9833211" lon="17.7266111">
        <ele>35.2255</ele>
        <time>2013-05-13T18:07:14Z</time>
      </trkpt>
      <trkpt lat="59.9833449" lon="17.7266123">
        <ele>35.7061</ele>
        <time>2013-05-13T18:07:15Z</time>
      </trkpt>
      <trkpt lat="59.9833718" lon="17.7266155">
        <ele>35.7061</ele>
        <time>2013-05-13T18:07:16Z</time>
      </trkpt>
      <trkpt lat="59.9833982" lon="17.7266173">
        <ele>36.1868</ele>
        <time>2013-05-13T18:07:17Z</time>
      </trkpt>
      <trkpt lat="59.9834209" lon="17.7266154">
        <ele>36.1868</ele>
        <time>2013-05-13T18:07:18Z</time>
      </trkpt>
      <trkpt lat="59.9834447" lon="17.7266131">
        <ele>36.1868</ele>
        <time>2013-05-13T18:07:19Z</time>
      </trkpt>
      <trkpt lat="59.9834687" lon="17.7266126">
        <ele>36.1868</ele>
        <time>2013-05-13T18:07:20Z</time>
      </trkpt>
      <trkpt lat="59.9834903" lon="17.7266071">
        <ele>36.1868</ele>
        <time>2013-05-13T18:07:21Z</time>
      </trkpt>
      <trkpt lat="59.9835125" lon="17.7266051">
        <ele>35.7061</ele>
        <time>2013-05-13T18:07:22Z</time>
      </trkpt>
      <trkpt lat="59.9835354" lon="17.7266052">
        <ele>35.7061</ele>
        <time>2013-05-13T18:07:23Z</time>
      </trkpt>
      <trkpt lat="59.9835573" lon="17.7266065">
        <ele>35.7061</ele>
        <time>2013-05-13T18:07:24Z</time>
      </trkpt>
      <trkpt lat="59.9835807" lon="17.7266064">
        <ele>35.7061</ele>
        <time>2013-05-13T18:07:25Z</time>
      </trkpt>
      <trkpt lat="59.9836037" lon="17.7266092">
        <ele>36.1868</ele>
        <time>2013-05-13T18:07:26Z</time>
      </trkpt>
      <trkpt lat="59.9836257" lon="17.7266105">
        <ele>36.6675</ele>
        <time>2013-05-13T18:07:27Z</time>
      </trkpt>
      <trkpt lat="59.9836492" lon="17.7266102">
        <ele>36.6675</ele>
        <time>2013-05-13T18:07:28Z</time>
      </trkpt>
      <trkpt lat="59.9836728" lon="17.7266133">
        <ele>36.6675</ele>
        <time>2013-05-13T18:07:29Z</time>
      </trkpt>
      <trkpt lat="59.9836946" lon="17.7266128">
        <ele>36.6675</ele>
        <time>2013-05-13T18:07:30Z</time>
      </trkpt>
      <trkpt lat="59.9837176" lon="17.7266139">
        <ele>36.6675</ele>
        <time>2013-05-13T18:07:31Z</time>
      </trkpt>
      <trkpt lat="59.9837422" lon="17.7266128">
        <ele>37.1481</ele>
        <time>2013-05-13T18:07:32Z</time>
      </trkpt>
      <trkpt lat="59.9837643" lon="17.7266061">
        <ele>37.6287</ele>
        <time>2013-05-13T18:07:33Z</time>
      </trkpt>
      <trkpt lat="59.9837878" lon="17.7266038">
        <ele>37.6287</ele>
        <time>2013-05-13T18:07:34Z</time>
      </trkpt>
      <trkpt lat="59.9838121" lon="17.7266052">
        <ele>37.6287</ele>
        <time>2013-05-13T18:07:35Z</time>
      </trkpt>
      <trkpt lat="59.9838349" lon="17.7266038">
        <ele>37.6287</ele>
        <time>2013-05-13T18:07:36Z</time>
      </trkpt>
      <trkpt lat="59.9838592" lon="17.7266029">
        <ele>37.6287</ele>
        <time>2013-05-13T18:07:37Z</time>
      </trkpt>
      <trkpt lat="59.9838845" lon="17.7266057">
        <ele>38.1094</ele>
        <time>2013-05-13T18:07:38Z</time>
      </trkpt>
      <trkpt lat="59.9839079" lon="17.7266065">
        <ele>38.1094</ele>
        <time>2013-05-13T18:07:39Z</time>
      </trkpt>
      <trkpt lat="59.9839308" lon="17.7266091">
        <ele>38.1094</ele>
        <time>2013-05-13T18:07:40Z</time>
      </trkpt>
      <trkpt lat="59.9839556" lon="17.7266107">
        <ele>38.1094</ele>
        <time>2013-05-13T18:07:41Z</time>
      </trkpt>
      <trkpt lat="59.9839793" lon="17.7266083">
        <ele>37.6287</ele>
        <time>2013-05-13T18:07:42Z</time>
      </trkpt>
      <trkpt lat="59.9840031" lon="17.7266092">
        <ele>37.1481</ele>
        <time>2013-05-13T18:07:43Z</time>
      </trkpt>
      <trkpt lat="59.9840277" lon="17.72661">
        <ele>37.1481</ele>
        <time>2013-05-13T18:07:44Z</time>
      </trkpt>
      <trkpt lat="59.9840498" lon="17.7266059">
        <ele>36.6675</ele>
        <time>2013-05-13T18:07:45Z</time>
      </trkpt>
      <trkpt lat="59.9840747" lon="17.7266033">
        <ele>36.6675</ele>
        <time>2013-05-13T18:07:46Z</time>
      </trkpt>
      <trkpt lat="59.9840982" lon="17.7266028">
        <ele>36.6675</ele>
        <time>2013-05-13T18:07:47Z</time>
      </trkpt>
      <trkpt lat="59.9841217" lon="17.7266007">
        <ele>37.1481</ele>
        <time>2013-05-13T18:07:48Z</time>
      </trkpt>
      <trkpt lat="59.9841471" lon="17.726603">
        <ele>37.6287</ele>
        <time>2013-05-13T18:07:49Z</time>
      </trkpt>
      <trkpt lat="59.9841716" lon="17.7266019">
        <ele>37.6287</ele>
        <time>2013-05-13T18:07:50Z</time>
      </trkpt>
      <trkpt lat="59.9841942" lon="17.7266">
        <ele>37.6287</ele>
        <time>2013-05-13T18:07:51Z</time>
      </trkpt>
      <trkpt lat="59.9842177" lon="17.7266008">
        <ele>37.6287</ele>
        <time>2013-05-13T18:07:52Z</time>
      </trkpt>
      <trkpt lat="59.9842395" lon="17.7265968">
        <ele>38.1094</ele>
        <time>2013-05-13T18:07:53Z</time>
      </trkpt>
      <trkpt lat="59.9842628" lon="17.726594">
        <ele>38.1094</ele>
        <time>2013-05-13T18:07:54Z</time>
      </trkpt>
      <trkpt lat="59.9842867" lon="17.7265962">
        <ele>38.1094</ele>
        <time>2013-05-13T18:07:55Z</time>
      </trkpt>
      <trkpt lat="59.9843109" lon="17.726594">
        <ele>38.1094</ele>
        <time>2013-05-13T18:07:56Z</time>
      </trkpt>
      <trkpt lat="59.984333" lon="17.7265922">
        <ele>38.1094</ele>
        <time>2013-05-13T18:07:57Z</time>
      </trkpt>
      <trkpt lat="59.9843564" lon="17.7265916">
        <ele>38.5901</ele>
        <time>2013-05-13T18:07:58Z</time>
      </trkpt>
      <trkpt lat="59.9843814" lon="17.7265952">
        <ele>38.5901</ele>
        <time>2013-05-13T18:07:59Z</time>
      </trkpt>
      <trkpt lat="59.984404" lon="17.7265966">
        <ele>39.0707</ele>
        <time>2013-05-13T18:08:00Z</time>
      </trkpt>
      <trkpt lat="59.9844279" lon="17.7265957">
        <ele>39.5513</ele>
        <time>2013-05-13T18:08:01Z</time>
      </trkpt>
      <trkpt lat="59.9844523" lon="17.7265978">
        <ele>39.5513</ele>
        <time>2013-05-13T18:08:02Z</time>
      </trkpt>
      <trkpt lat="59.9844753" lon="17.7265943">
        <ele>40.0321</ele>
        <time>2013-05-13T18:08:03Z</time>
      </trkpt>
      <trkpt lat="59.9844978" lon="17.7265891">
        <ele>40.0321</ele>
        <time>2013-05-13T18:08:04Z</time>
      </trkpt>
      <trkpt lat="59.9845216" lon="17.726588">
        <ele>40.0321</ele>
        <time>2013-05-13T18:08:05Z</time>
      </trkpt>
      <trkpt lat="59.984544" lon="17.7265889">
        <ele>40.0321</ele>
        <time>2013-05-13T18:08:06Z</time>
      </trkpt>
      <trkpt lat="59.9845663" lon="17.7265839">
        <ele>40.0321</ele>
        <time>2013-05-13T18:08:07Z</time>
      </trkpt>
      <trkpt lat="59.9845895" lon="17.7265838">
        <ele>40.0321</ele>
        <time>2013-05-13T18:08:08Z</time>
      </trkpt>
      <trkpt lat="59.9846135" lon="17.7265877">
        <ele>40.5128</ele>
        <time>2013-05-13T18:08:09Z</time>
      </trkpt>
      <trkpt lat="59.9846366" lon="17.7265877">
        <ele>40.9934</ele>
        <time>2013-05-13T18:08:10Z</time>
      </trkpt>
      <trkpt lat="59.9846585" lon="17.7265854">
        <ele>40.9934</ele>
        <time>2013-05-13T18:08:11Z</time>
      </trkpt>
      <trkpt lat="59.9846813" lon="17.7265854">
        <ele>40.9934</ele>
        <time>2013-05-13T18:08:12Z</time>
      </trkpt>
      <trkpt lat="59.9847068" lon="17.7265843">
        <ele>41.474</ele>
        <time>2013-05-13T18:08:13Z</time>
      </trkpt>
      <trkpt lat="59.9847334" lon="17.7265819">
        <ele>41.474</ele>
        <time>2013-05-13T18:08:14Z</time>
      </trkpt>
      <trkpt lat="59.984758" lon="17.7265884">
        <ele>41.474</ele>
        <time>2013-05-13T18:08:15Z</time>
      </trkpt>
      <trkpt lat="59.984783" lon="17.7265971">
        <ele>41.474</ele>
        <time>2013-05-13T18:08:16Z</time>
      </trkpt>
      <trkpt lat="59.984807" lon="17.7266013">
        <ele>41.474</ele>
        <time>2013-05-13T18:08:17Z</time>
      </trkpt>
      <trkpt lat="59.9848308" lon="17.726602">
        <ele>41.474</ele>
        <time>2013-05-13T18:08:18Z</time>
      </trkpt>
      <trkpt lat="59.9848548" lon="17.7266051">
        <ele>41.474</ele>
        <time>2013-05-13T18:08:19Z</time>
      </trkpt>
      <trkpt lat="59.9848802" lon="17.726604">
        <ele>41.474</ele>
        <time>2013-05-13T18:08:20Z</time>
      </trkpt>
      <trkpt lat="59.9849066" lon="17.7265957">
        <ele>40.9934</ele>
        <time>2013-05-13T18:08:21Z</time>
      </trkpt>
      <trkpt lat="59.9849345" lon="17.7265921">
        <ele>40.9934</ele>
        <time>2013-05-13T18:08:22Z</time>
      </trkpt>
      <trkpt lat="59.9849567" lon="17.7265952">
        <ele>40.9934</ele>
        <time>2013-05-13T18:08:23Z</time>
      </trkpt>
      <trkpt lat="59.9849807" lon="17.7265951">
        <ele>41.474</ele>
        <time>2013-05-13T18:08:24Z</time>
      </trkpt>
      <trkpt lat="59.9850025" lon="17.7265957">
        <ele>41.474</ele>
        <time>2013-05-13T18:08:25Z</time>
      </trkpt>
      <trkpt lat="59.9850247" lon="17.7265962">
        <ele>40.9934</ele>
        <time>2013-05-13T18:08:26Z</time>
      </trkpt>
      <trkpt lat="59.9850471" lon="17.726594">
        <ele>40.5128</ele>
        <time>2013-05-13T18:08:27Z</time>
      </trkpt>
      <trkpt lat="59.9850694" lon="17.7265898">
        <ele>40.5128</ele>
        <time>2013-05-13T18:08:28Z</time>
      </trkpt>
      <trkpt lat="59.9850915" lon="17.7265874">
        <ele>40.0321</ele>
        <time>2013-05-13T18:08:29Z</time>
      </trkpt>
      <trkpt lat="59.9851133" lon="17.7265843">
        <ele>40.0321</ele>
        <time>2013-05-13T18:08:30Z</time>
      </trkpt>
      <trkpt lat="59.9851331" lon="17.7265822">
        <ele>40.0321</ele>
        <time>2013-05-13T18:08:31Z</time>
      </trkpt>
      <trkpt lat="59.9851542" lon="17.7265833">
        <ele>40.0321</ele>
        <time>2013-05-13T18:08:32Z</time>
      </trkpt>
      <trkpt lat="59.9851768" lon="17.7265838">
        <ele>40.5128</ele>
        <time>2013-05-13T18:08:33Z</time>
      </trkpt>
      <trkpt lat="59.9852009" lon="17.7265831">
        <ele>40.5128</ele>
        <time>2013-05-13T18:08:34Z</time>
      </trkpt>
      <trkpt lat="59.9852268" lon="17.7265872">
        <ele>40.5128</ele>
        <time>2013-05-13T18:08:35Z</time>
      </trkpt>
      <trkpt lat="59.9852496" lon="17.7265873">
        <ele>40.9934</ele>
        <time>2013-05-13T18:08:36Z</time>
      </trkpt>
      <trkpt lat="59.9852719" lon="17.7265837">
        <ele>40.9934</ele>
        <time>2013-05-13T18:08:37Z</time>
      </trkpt>
      <trkpt lat="59.9852977" lon="17.7265849">
        <ele>40.9934</ele>
        <time>2013-05-13T18:08:38Z</time>
      </trkpt>
      <trkpt lat="59.9853205" lon="17.7265852">
        <ele>40.9934</ele>
        <time>2013-05-13T18:08:39Z</time>
      </trkpt>
      <trkpt lat="59.9853397" lon="17.7265831">
        <ele>40.5128</ele>
        <time>2013-05-13T18:08:40Z</time>
      </trkpt>
      <trkpt lat="59.9853607" lon="17.7265838">
        <ele>40.5128</ele>
        <time>2013-05-13T18:08:41Z</time>
      </trkpt>
      <trkpt lat="59.9853862" lon="17.7265843">
        <ele>40.9934</ele>
        <time>2013-05-13T18:08:42Z</time>
      </trkpt>
      <trkpt lat="59.9854108" lon="17.7265796">
        <ele>40.9934</ele>
        <time>2013-05-13T18:08:43Z</time>
      </trkpt>
      <trkpt lat="59.985435" lon="17.7265806">
        <ele>40.9934</ele>
        <time>2013-05-13T18:08:44Z</time>
      </trkpt>
      <trkpt lat="59.9854583" lon="17.7265829">
        <ele>40.9934</ele>
        <time>2013-05-13T18:08:45Z</time>
      </trkpt>
      <trkpt lat="59.9854812" lon="17.7265808">
        <ele>40.9934</ele>
        <time>2013-05-13T18:08:46Z</time>
      </trkpt>
      <trkpt lat="59.9855061" lon="17.7265807">
        <ele>40.9934</ele>
        <time>2013-05-13T18:08:47Z</time>
      </trkpt>
      <trkpt lat="59.9855307" lon="17.7265797">
        <ele>40.9934</ele>
        <time>2013-05-13T18:08:48Z</time>
      </trkpt>
      <trkpt lat="59.9855564" lon="17.7265762">
        <ele>40.9934</ele>
        <time>2013-05-13T18:08:49Z</time>
      </trkpt>
      <trkpt lat="59.9855821" lon="17.7265777">
        <ele>40.9934</ele>
        <time>2013-05-13T18:08:50Z</time>
      </trkpt>
      <trkpt lat="59.9856059" lon="17.7265815">
        <ele>40.9934</ele>
        <time>2013-05-13T18:08:51Z</time>
      </trkpt>
      <trkpt lat="59.9856308" lon="17.7265796">
        <ele>40.9934</ele>
        <time>2013-05-13T18:08:52Z</time>
      </trkpt>
      <trkpt lat="59.9856586" lon="17.7265781">
        <ele>40.9934</ele>
        <time>2013-05-13T18:08:53Z</time>
      </trkpt>
      <trkpt lat="59.9856837" lon="17.7265736">
        <ele>40.5128</ele>
        <time>2013-05-13T18:08:54Z</time>
      </trkpt>
      <trkpt lat="59.9857084" lon="17.7265672">
        <ele>40.5128</ele>
        <time>2013-05-13T18:08:55Z</time>
      </trkpt>
      <trkpt lat="59.9857356" lon="17.7265645">
        <ele>40.5128</ele>
        <time>2013-05-13T18:08:56Z</time>
      </trkpt>
      <trkpt lat="59.9857612" lon="17.7265604">
        <ele>40.5128</ele>
        <time>2013-05-13T18:08:57Z</time>
      </trkpt>
      <trkpt lat="59.9857871" lon="17.7265548">
        <ele>40.5128</ele>
        <time>2013-05-13T18:08:58Z</time>
      </trkpt>
      <trkpt lat="59.985812" lon="17.7265517">
        <ele>40.5128</ele>
        <time>2013-05-13T18:08:59Z</time>
      </trkpt>
      <trkpt lat="59.9858347" lon="17.7265551">
        <ele>40.5128</ele>
        <time>2013-05-13T18:09:00Z</time>
      </trkpt>
      <trkpt lat="59.9858562" lon="17.7265606">
        <ele>40.0321</ele>
        <time>2013-05-13T18:09:01Z</time>
      </trkpt>
      <trkpt lat="59.9858779" lon="17.7265635">
        <ele>39.5513</ele>
        <time>2013-05-13T18:09:02Z</time>
      </trkpt>
      <trkpt lat="59.9859007" lon="17.7265605">
        <ele>40.0321</ele>
        <time>2013-05-13T18:09:03Z</time>
      </trkpt>
      <trkpt lat="59.985924" lon="17.7265564">
        <ele>40.0321</ele>
        <time>2013-05-13T18:09:04Z</time>
      </trkpt>
      <trkpt lat="59.9859484" lon="17.7265575">
        <ele>40.0321</ele>
        <time>2013-05-13T18:09:05Z</time>
      </trkpt>
      <trkpt lat="59.9859712" lon="17.72656">
        <ele>40.0321</ele>
        <time>2013-05-13T18:09:06Z</time>
      </trkpt>
      <trkpt lat="59.985995" lon="17.7265624">
        <ele>40.5128</ele>
        <time>2013-05-13T18:09:07Z</time>
      </trkpt>
      <trkpt lat="59.9860179" lon="17.7265665">
        <ele>40.5128</ele>
        <time>2013-05-13T18:09:08Z</time>
      </trkpt>
      <trkpt lat="59.9860401" lon="17.7265683">
        <ele>40.0321</ele>
        <time>2013-05-13T18:09:09Z</time>
      </trkpt>
      <trkpt lat="59.9860645" lon="17.7265673">
        <ele>40.5128</ele>
        <time>2013-05-13T18:09:10Z</time>
      </trkpt>
      <trkpt lat="59.9860877" lon="17.7265712">
        <ele>40.5128</ele>
        <time>2013-05-13T18:09:11Z</time>
      </trkpt>
      <trkpt lat="59.98611" lon="17.7265724">
        <ele>40.0321</ele>
        <time>2013-05-13T18:09:12Z</time>
      </trkpt>
      <trkpt lat="59.986135" lon="17.7265735">
        <ele>40.0321</ele>
        <time>2013-05-13T18:09:13Z</time>
      </trkpt>
      <trkpt lat="59.9861612" lon="17.7265767">
        <ele>40.5128</ele>
        <time>2013-05-13T18:09:14Z</time>
      </trkpt>
      <trkpt lat="59.9861836" lon="17.7265786">
        <ele>40.0321</ele>
        <time>2013-05-13T18:09:15Z</time>
      </trkpt>
      <trkpt lat="59.9862075" lon="17.7265781">
        <ele>40.5128</ele>
        <time>2013-05-13T18:09:16Z</time>
      </trkpt>
      <trkpt lat="59.9862306" lon="17.7265749">
        <ele>40.5128</ele>
        <time>2013-05-13T18:09:17Z</time>
      </trkpt>
      <trkpt lat="59.9862533" lon="17.7265713">
        <ele>40.5128</ele>
        <time>2013-05-13T18:09:18Z</time>
      </trkpt>
      <trkpt lat="59.9862731" lon="17.7265661">
        <ele>40.5128</ele>
        <time>2013-05-13T18:09:19Z</time>
      </trkpt>
      <trkpt lat="59.9862959" lon="17.7265651">
        <ele>40.5128</ele>
        <time>2013-05-13T18:09:20Z</time>
      </trkpt>
      <trkpt lat="59.9863188" lon="17.7265639">
        <ele>40.0321</ele>
        <time>2013-05-13T18:09:21Z</time>
      </trkpt>
      <trkpt lat="59.98634" lon="17.7265604">
        <ele>39.5513</ele>
        <time>2013-05-13T18:09:22Z</time>
      </trkpt>
      <trkpt lat="59.9863607" lon="17.7265595">
        <ele>39.0707</ele>
        <time>2013-05-13T18:09:23Z</time>
      </trkpt>
      <trkpt lat="59.9863833" lon="17.7265614">
        <ele>39.0707</ele>
        <time>2013-05-13T18:09:24Z</time>
      </trkpt>
      <trkpt lat="59.9864061" lon="17.7265634">
        <ele>39.0707</ele>
        <time>2013-05-13T18:09:25Z</time>
      </trkpt>
      <trkpt lat="59.9864285" lon="17.7265651">
        <ele>38.5901</ele>
        <time>2013-05-13T18:09:26Z</time>
      </trkpt>
      <trkpt lat="59.9864514" lon="17.7265708">
        <ele>38.5901</ele>
        <time>2013-05-13T18:09:27Z</time>
      </trkpt>
      <trkpt lat="59.9864737" lon="17.726575">
        <ele>38.5901</ele>
        <time>2013-05-13T18:09:28Z</time>
      </trkpt>
      <trkpt lat="59.9864954" lon="17.7265741">
        <ele>38.1094</ele>
        <time>2013-05-13T18:09:29Z</time>
      </trkpt>
      <trkpt lat="59.9865171" lon="17.7265759">
        <ele>37.6287</ele>
        <time>2013-05-13T18:09:30Z</time>
      </trkpt>
      <trkpt lat="59.9865389" lon="17.7265746">
        <ele>37.6287</ele>
        <time>2013-05-13T18:09:31Z</time>
      </trkpt>
      <trkpt lat="59.986562" lon="17.7265709">
        <ele>37.6287</ele>
        <time>2013-05-13T18:09:32Z</time>
      </trkpt>
      <trkpt lat="59.9865844" lon="17.7265697">
        <ele>37.6287</ele>
        <time>2013-05-13T18:09:33Z</time>
      </trkpt>
      <trkpt lat="59.9866047" lon="17.7265709">
        <ele>37.6287</ele>
        <time>2013-05-13T18:09:34Z</time>
      </trkpt>
      <trkpt lat="59.986625" lon="17.7265709">
        <ele>37.1481</ele>
        <time>2013-05-13T18:09:35Z</time>
      </trkpt>
      <trkpt lat="59.9866477" lon="17.7265667">
        <ele>36.6675</ele>
        <time>2013-05-13T18:09:36Z</time>
      </trkpt>
      <trkpt lat="59.9866716" lon="17.7265656">
        <ele>37.1481</ele>
        <time>2013-05-13T18:09:37Z</time>
      </trkpt>
      <trkpt lat="59.9866953" lon="17.7265657">
        <ele>37.1481</ele>
        <time>2013-05-13T18:09:38Z</time>
      </trkpt>
      <trkpt lat="59.9867182" lon="17.7265675">
        <ele>37.1481</ele>
        <time>2013-05-13T18:09:39Z</time>
      </trkpt>
      <trkpt lat="59.9867415" lon="17.7265714">
        <ele>37.1481</ele>
        <time>2013-05-13T18:09:40Z</time>
      </trkpt>
      <trkpt lat="59.986762" lon="17.7265735">
        <ele>37.1481</ele>
        <time>2013-05-13T18:09:41Z</time>
      </trkpt>
      <trkpt lat="59.9867808" lon="17.7265736">
        <ele>36.6675</ele>
        <time>2013-05-13T18:09:42Z</time>
      </trkpt>
      <trkpt lat="59.9868041" lon="17.7265745">
        <ele>36.6675</ele>
        <time>2013-05-13T18:09:43Z</time>
      </trkpt>
      <trkpt lat="59.9868257" lon="17.7265738">
        <ele>36.6675</ele>
        <time>2013-05-13T18:09:44Z</time>
      </trkpt>
      <trkpt lat="59.9868477" lon="17.7265736">
        <ele>36.6675</ele>
        <time>2013-05-13T18:09:45Z</time>
      </trkpt>
      <trkpt lat="59.9868702" lon="17.7265761">
        <ele>36.6675</ele>
        <time>2013-05-13T18:09:46Z</time>
      </trkpt>
      <trkpt lat="59.9868907" lon="17.726579">
        <ele>36.1868</ele>
        <time>2013-05-13T18:09:47Z</time>
      </trkpt>
      <trkpt lat="59.9869113" lon="17.726579">
        <ele>36.6675</ele>
        <time>2013-05-13T18:09:48Z</time>
      </trkpt>
      <trkpt lat="59.9869339" lon="17.7265743">
        <ele>36.6675</ele>
        <time>2013-05-13T18:09:49Z</time>
      </trkpt>
      <trkpt lat="59.9869579" lon="17.7265729">
        <ele>36.6675</ele>
        <time>2013-05-13T18:09:50Z</time>
      </trkpt>
      <trkpt lat="59.9869797" lon="17.7265735">
        <ele>37.1481</ele>
        <time>2013-05-13T18:09:51Z</time>
      </trkpt>
      <trkpt lat="59.9870014" lon="17.726572">
        <ele>37.1481</ele>
        <time>2013-05-13T18:09:52Z</time>
      </trkpt>
      <trkpt lat="59.9870249" lon="17.7265729">
        <ele>37.1481</ele>
        <time>2013-05-13T18:09:53Z</time>
      </trkpt>
      <trkpt lat="59.9870477" lon="17.7265748">
        <ele>37.6287</ele>
        <time>2013-05-13T18:09:54Z</time>
      </trkpt>
      <trkpt lat="59.9870704" lon="17.7265777">
        <ele>37.1481</ele>
        <time>2013-05-13T18:09:55Z</time>
      </trkpt>
      <trkpt lat="59.9870952" lon="17.7265834">
        <ele>37.6287</ele>
        <time>2013-05-13T18:09:56Z</time>
      </trkpt>
      <trkpt lat="59.9871186" lon="17.7265843">
        <ele>37.1481</ele>
        <time>2013-05-13T18:09:57Z</time>
      </trkpt>
      <trkpt lat="59.9871408" lon="17.7265838">
        <ele>37.1481</ele>
        <time>2013-05-13T18:09:58Z</time>
      </trkpt>
      <trkpt lat="59.9871648" lon="17.7265823">
        <ele>37.6287</ele>
        <time>2013-05-13T18:09:59Z</time>
      </trkpt>
      <trkpt lat="59.9871886" lon="17.7265802">
        <ele>37.6287</ele>
        <time>2013-05-13T18:10:00Z</time>
      </trkpt>
      <trkpt lat="59.9872132" lon="17.7265753">
        <ele>38.1094</ele>
        <time>2013-05-13T18:10:01Z</time>
      </trkpt>
      <trkpt lat="59.9872386" lon="17.7265715">
        <ele>38.5901</ele>
        <time>2013-05-13T18:10:02Z</time>
      </trkpt>
      <trkpt lat="59.9872634" lon="17.726572">
        <ele>38.5901</ele>
        <time>2013-05-13T18:10:03Z</time>
      </trkpt>
      <trkpt lat="59.9872855" lon="17.7265707">
        <ele>38.5901</ele>
        <time>2013-05-13T18:10:04Z</time>
      </trkpt>
      <trkpt lat="59.98731" lon="17.7265703">
        <ele>38.5901</ele>
        <time>2013-05-13T18:10:05Z</time>
      </trkpt>
      <trkpt lat="59.9873355" lon="17.726572">
        <ele>38.5901</ele>
        <time>2013-05-13T18:10:06Z</time>
      </trkpt>
      <trkpt lat="59.9873559" lon="17.7265712">
        <ele>38.5901</ele>
        <time>2013-05-13T18:10:07Z</time>
      </trkpt>
      <trkpt lat="59.9873776" lon="17.7265699">
        <ele>38.1094</ele>
        <time>2013-05-13T18:10:08Z</time>
      </trkpt>
      <trkpt lat="59.9874017" lon="17.7265704">
        <ele>38.5901</ele>
        <time>2013-05-13T18:10:09Z</time>
      </trkpt>
      <trkpt lat="59.987424" lon="17.7265687">
        <ele>38.1094</ele>
        <time>2013-05-13T18:10:10Z</time>
      </trkpt>
      <trkpt lat="59.9874474" lon="17.726565">
        <ele>38.1094</ele>
        <time>2013-05-13T18:10:11Z</time>
      </trkpt>
      <trkpt lat="59.9874712" lon="17.7265627">
        <ele>38.1094</ele>
        <time>2013-05-13T18:10:12Z</time>
      </trkpt>
      <trkpt lat="59.9874935" lon="17.7265631">
        <ele>38.1094</ele>
        <time>2013-05-13T18:10:13Z</time>
      </trkpt>
      <trkpt lat="59.9875184" lon="17.7265621">
        <ele>38.1094</ele>
        <time>2013-05-13T18:10:14Z</time>
      </trkpt>
      <trkpt lat="59.9875432" lon="17.726563">
        <ele>38.5901</ele>
        <time>2013-05-13T18:10:15Z</time>
      </trkpt>
      <trkpt lat="59.9875641" lon="17.7265618">
        <ele>38.1094</ele>
        <time>2013-05-13T18:10:16Z</time>
      </trkpt>
      <trkpt lat="59.9875878" lon="17.7265593">
        <ele>38.5901</ele>
        <time>2013-05-13T18:10:17Z</time>
      </trkpt>
      <trkpt lat="59.9876116" lon="17.7265564">
        <ele>38.5901</ele>
        <time>2013-05-13T18:10:18Z</time>
      </trkpt>
      <trkpt lat="59.9876331" lon="17.7265538">
        <ele>38.5901</ele>
        <time>2013-05-13T18:10:19Z</time>
      </trkpt>
      <trkpt lat="59.9876558" lon="17.7265525">
        <ele>38.5901</ele>
        <time>2013-05-13T18:10:20Z</time>
      </trkpt>
      <trkpt lat="59.9876804" lon="17.7265559">
        <ele>38.5901</ele>
        <time>2013-05-13T18:10:21Z</time>
      </trkpt>
      <trkpt lat="59.9877047" lon="17.7265591">
        <ele>38.5901</ele>
        <time>2013-05-13T18:10:22Z</time>
      </trkpt>
      <trkpt lat="59.9877292" lon="17.7265593">
        <ele>38.5901</ele>
        <time>2013-05-13T18:10:23Z</time>
      </trkpt>
      <trkpt lat="59.987753" lon="17.7265621">
        <ele>38.1094</ele>
        <time>2013-05-13T18:10:24Z</time>
      </trkpt>
      <trkpt lat="59.9877767" lon="17.7265606">
        <ele>38.1094</ele>
        <time>2013-05-13T18:10:25Z</time>
      </trkpt>
      <trkpt lat="59.9878018" lon="17.7265615">
        <ele>38.1094</ele>
        <time>2013-05-13T18:10:26Z</time>
      </trkpt>
      <trkpt lat="59.9878268" lon="17.7265653">
        <ele>38.1094</ele>
        <time>2013-05-13T18:10:27Z</time>
      </trkpt>
      <trkpt lat="59.9878521" lon="17.7265653">
        <ele>38.5901</ele>
        <time>2013-05-13T18:10:28Z</time>
      </trkpt>
      <trkpt lat="59.9878763" lon="17.7265668">
        <ele>38.5901</ele>
        <time>2013-05-13T18:10:29Z</time>
      </trkpt>
      <trkpt lat="59.9879013" lon="17.7265729">
        <ele>39.0707</ele>
        <time>2013-05-13T18:10:30Z</time>
      </trkpt>
      <trkpt lat="59.9879252" lon="17.7265739">
        <ele>38.5901</ele>
        <time>2013-05-13T18:10:31Z</time>
      </trkpt>
      <trkpt lat="59.987951" lon="17.7265735">
        <ele>39.0707</ele>
        <time>2013-05-13T18:10:32Z</time>
      </trkpt>
      <trkpt lat="59.9879753" lon="17.7265734">
        <ele>39.0707</ele>
        <time>2013-05-13T18:10:33Z</time>
      </trkpt>
      <trkpt lat="59.9879998" lon="17.7265703">
        <ele>39.0707</ele>
        <time>2013-05-13T18:10:34Z</time>
      </trkpt>
      <trkpt lat="59.9880264" lon="17.7265729">
        <ele>39.0707</ele>
        <time>2013-05-13T18:10:35Z</time>
      </trkpt>
      <trkpt lat="59.9880501" lon="17.7265746">
        <ele>39.0707</ele>
        <time>2013-05-13T18:10:36Z</time>
      </trkpt>
      <trkpt lat="59.9880727" lon="17.726575">
        <ele>39.0707</ele>
        <time>2013-05-13T18:10:37Z</time>
      </trkpt>
      <trkpt lat="59.988096" lon="17.7265767">
        <ele>39.0707</ele>
        <time>2013-05-13T18:10:38Z</time>
      </trkpt>
      <trkpt lat="59.9881186" lon="17.7265777">
        <ele>39.0707</ele>
        <time>2013-05-13T18:10:39Z</time>
      </trkpt>
      <trkpt lat="59.9881406" lon="17.7265782">
        <ele>39.0707</ele>
        <time>2013-05-13T18:10:40Z</time>
      </trkpt>
      <trkpt lat="59.9881642" lon="17.7265805">
        <ele>39.0707</ele>
        <time>2013-05-13T18:10:41Z</time>
      </trkpt>
      <trkpt lat="59.9881876" lon="17.7265796">
        <ele>39.0707</ele>
        <time>2013-05-13T18:10:42Z</time>
      </trkpt>
      <trkpt lat="59.9882115" lon="17.7265774">
        <ele>39.0707</ele>
        <time>2013-05-13T18:10:43Z</time>
      </trkpt>
      <trkpt lat="59.9882369" lon="17.7265759">
        <ele>39.5513</ele>
        <time>2013-05-13T18:10:44Z</time>
      </trkpt>
      <trkpt lat="59.988259" lon="17.7265699">
        <ele>39.5513</ele>
        <time>2013-05-13T18:10:45Z</time>
      </trkpt>
      <trkpt lat="59.9882805" lon="17.7265662">
        <ele>39.5513</ele>
        <time>2013-05-13T18:10:46Z</time>
      </trkpt>
      <trkpt lat="59.9883018" lon="17.7265653">
        <ele>39.0707</ele>
        <time>2013-05-13T18:10:47Z</time>
      </trkpt>
      <trkpt lat="59.9883218" lon="17.7265622">
        <ele>39.0707</ele>
        <time>2013-05-13T18:10:48Z</time>
      </trkpt>
      <trkpt lat="59.9883434" lon="17.7265626">
        <ele>39.0707</ele>
        <time>2013-05-13T18:10:49Z</time>
      </trkpt>
      <trkpt lat="59.9883674" lon="17.7265662">
        <ele>39.0707</ele>
        <time>2013-05-13T18:10:50Z</time>
      </trkpt>
      <trkpt lat="59.9883906" lon="17.7265686">
        <ele>39.0707</ele>
        <time>2013-05-13T18:10:51Z</time>
      </trkpt>
      <trkpt lat="59.9884064" lon="17.7265684">
        <ele>38.5901</ele>
        <time>2013-05-13T18:10:52Z</time>
      </trkpt>
      <trkpt lat="59.9884289" lon="17.7265692">
        <ele>38.1094</ele>
        <time>2013-05-13T18:10:53Z</time>
      </trkpt>
      <trkpt lat="59.988451" lon="17.7265733">
        <ele>38.1094</ele>
        <time>2013-05-13T18:10:54Z</time>
      </trkpt>
      <trkpt lat="59.9884741" lon="17.7265785">
        <ele>38.5901</ele>
        <time>2013-05-13T18:10:55Z</time>
      </trkpt>
      <trkpt lat="59.9884979" lon="17.726587">
        <ele>38.1094</ele>
        <time>2013-05-13T18:10:56Z</time>
      </trkpt>
      <trkpt lat="59.9885211" lon="17.7265916">
        <ele>38.1094</ele>
        <time>2013-05-13T18:10:57Z</time>
      </trkpt>
      <trkpt lat="59.9885441" lon="17.7265964">
        <ele>38.1094</ele>
        <time>2013-05-13T18:10:58Z</time>
      </trkpt>
      <trkpt lat="59.9885668" lon="17.726607">
        <ele>38.1094</ele>
        <time>2013-05-13T18:10:59Z</time>
      </trkpt>
      <trkpt lat="59.9885908" lon="17.7266168">
        <ele>38.1094</ele>
        <time>2013-05-13T18:11:00Z</time>
      </trkpt>
      <trkpt lat="59.9886146" lon="17.7266221">
        <ele>38.1094</ele>
        <time>2013-05-13T18:11:01Z</time>
      </trkpt>
      <trkpt lat="59.9886382" lon="17.7266243">
        <ele>37.6287</ele>
        <time>2013-05-13T18:11:02Z</time>
      </trkpt>
      <trkpt lat="59.9886603" lon="17.7266276">
        <ele>38.1094</ele>
        <time>2013-05-13T18:11:03Z</time>
      </trkpt>
      <trkpt lat="59.9886844" lon="17.7266335">
        <ele>38.1094</ele>
        <time>2013-05-13T18:11:04Z</time>
      </trkpt>
      <trkpt lat="59.9887099" lon="17.7266368">
        <ele>38.1094</ele>
        <time>2013-05-13T18:11:05Z</time>
      </trkpt>
      <trkpt lat="59.9887321" lon="17.7266398">
        <ele>38.5901</ele>
        <time>2013-05-13T18:11:06Z</time>
      </trkpt>
      <trkpt lat="59.9887537" lon="17.7266397">
        <ele>38.1094</ele>
        <time>2013-05-13T18:11:07Z</time>
      </trkpt>
      <trkpt lat="59.9887784" lon="17.7266392">
        <ele>38.1094</ele>
        <time>2013-05-13T18:11:08Z</time>
      </trkpt>
      <trkpt lat="59.988803" lon="17.7266398">
        <ele>38.1094</ele>
        <time>2013-05-13T18:11:09Z</time>
      </trkpt>
      <trkpt lat="59.9888245" lon="17.7266393">
        <ele>37.6287</ele>
        <time>2013-05-13T18:11:10Z</time>
      </trkpt>
      <trkpt lat="59.9888492" lon="17.7266416">
        <ele>38.1094</ele>
        <time>2013-05-13T18:11:11Z</time>
      </trkpt>
      <trkpt lat="59.9888731" lon="17.7266442">
        <ele>37.6287</ele>
        <time>2013-05-13T18:11:12Z</time>
      </trkpt>
      <trkpt lat="59.9888979" lon="17.7266485">
        <ele>38.1094</ele>
        <time>2013-05-13T18:11:13Z</time>
      </trkpt>
      <trkpt lat="59.9889227" lon="17.7266536">
        <ele>38.1094</ele>
        <time>2013-05-13T18:11:14Z</time>
      </trkpt>
      <trkpt lat="59.9889477" lon="17.7266533">
        <ele>38.1094</ele>
        <time>2013-05-13T18:11:15Z</time>
      </trkpt>
      <trkpt lat="59.9889741" lon="17.7266547">
        <ele>38.5901</ele>
        <time>2013-05-13T18:11:16Z</time>
      </trkpt>
      <trkpt lat="59.9889962" lon="17.726657">
        <ele>38.1094</ele>
        <time>2013-05-13T18:11:17Z</time>
      </trkpt>
      <trkpt lat="59.989014" lon="17.7266546">
        <ele>37.6287</ele>
        <time>2013-05-13T18:11:18Z</time>
      </trkpt>
      <trkpt lat="59.9890338" lon="17.7266563">
        <ele>37.1481</ele>
        <time>2013-05-13T18:11:19Z</time>
      </trkpt>
      <trkpt lat="59.9890526" lon="17.7266593">
        <ele>36.1868</ele>
        <time>2013-05-13T18:11:20Z</time>
      </trkpt>
      <trkpt lat="59.9890704" lon="17.7266575">
        <ele>35.7061</ele>
        <time>2013-05-13T18:11:21Z</time>
      </trkpt>
      <trkpt lat="59.9890918" lon="17.7266579">
        <ele>35.2255</ele>
        <time>2013-05-13T18:11:22Z</time>
      </trkpt>
      <trkpt lat="59.9891099" lon="17.7266527">
        <ele>34.7449</ele>
        <time>2013-05-13T18:11:23Z</time>
      </trkpt>
      <trkpt lat="59.989132" lon="17.7266429">
        <ele>34.7449</ele>
        <time>2013-05-13T18:11:24Z</time>
      </trkpt>
      <trkpt lat="59.9891555" lon="17.7266377">
        <ele>35.2255</ele>
        <time>2013-05-13T18:11:25Z</time>
      </trkpt>
      <trkpt lat="59.9891765" lon="17.7266331">
        <ele>35.2255</ele>
        <time>2013-05-13T18:11:26Z</time>
      </trkpt>
      <trkpt lat="59.9891977" lon="17.7266257">
        <ele>35.2255</ele>
        <time>2013-05-13T18:11:27Z</time>
      </trkpt>
      <trkpt lat="59.9892201" lon="17.726623">
        <ele>35.2255</ele>
        <time>2013-05-13T18:11:28Z</time>
      </trkpt>
      <trkpt lat="59.9892413" lon="17.7266166">
        <ele>35.7061</ele>
        <time>2013-05-13T18:11:29Z</time>
      </trkpt>
      <trkpt lat="59.9892608" lon="17.7266098">
        <ele>35.7061</ele>
        <time>2013-05-13T18:11:30Z</time>
      </trkpt>
      <trkpt lat="59.9892843" lon="17.726608">
        <ele>35.2255</ele>
        <time>2013-05-13T18:11:31Z</time>
      </trkpt>
      <trkpt lat="59.9893091" lon="17.7265995">
        <ele>35.2255</ele>
        <time>2013-05-13T18:11:32Z</time>
      </trkpt>
      <trkpt lat="59.9893336" lon="17.726589">
        <ele>35.2255</ele>
        <time>2013-05-13T18:11:33Z</time>
      </trkpt>
      <trkpt lat="59.9893558" lon="17.7265838">
        <ele>35.2255</ele>
        <time>2013-05-13T18:11:34Z</time>
      </trkpt>
      <trkpt lat="59.9893771" lon="17.7265797">
        <ele>35.2255</ele>
        <time>2013-05-13T18:11:35Z</time>
      </trkpt>
      <trkpt lat="59.9894014" lon="17.7265767">
        <ele>35.2255</ele>
        <time>2013-05-13T18:11:36Z</time>
      </trkpt>
      <trkpt lat="59.9894242" lon="17.726574">
        <ele>35.2255</ele>
        <time>2013-05-13T18:11:37Z</time>
      </trkpt>
      <trkpt lat="59.9894447" lon="17.7265696">
        <ele>35.2255</ele>
        <time>2013-05-13T18:11:38Z</time>
      </trkpt>
      <trkpt lat="59.9894665" lon="17.7265704">
        <ele>35.2255</ele>
        <time>2013-05-13T18:11:39Z</time>
      </trkpt>
      <trkpt lat="59.9894854" lon="17.7265682">
        <ele>35.2255</ele>
        <time>2013-05-13T18:11:40Z</time>
      </trkpt>
      <trkpt lat="59.9895055" lon="17.7265636">
        <ele>34.7449</ele>
        <time>2013-05-13T18:11:41Z</time>
      </trkpt>
      <trkpt lat="59.9895211" lon="17.7265611">
        <ele>33.7834</ele>
        <time>2013-05-13T18:11:42Z</time>
      </trkpt>
      <trkpt lat="59.9895411" lon="17.7265486">
        <ele>33.3029</ele>
        <time>2013-05-13T18:11:43Z</time>
      </trkpt>
      <trkpt lat="59.989561" lon="17.726534">
        <ele>32.8223</ele>
        <time>2013-05-13T18:11:44Z</time>
      </trkpt>
      <trkpt lat="59.9895833" lon="17.7265253">
        <ele>32.8223</ele>
        <time>2013-05-13T18:11:45Z</time>
      </trkpt>
      <trkpt lat="59.989602" lon="17.7265231">
        <ele>32.3416</ele>
        <time>2013-05-13T18:11:46Z</time>
      </trkpt>
      <trkpt lat="59.9896203" lon="17.7265228">
        <ele>31.8607</ele>
        <time>2013-05-13T18:11:47Z</time>
      </trkpt>
      <trkpt lat="59.98964" lon="17.7265304">
        <ele>31.3801</ele>
        <time>2013-05-13T18:11:48Z</time>
      </trkpt>
      <trkpt lat="59.9896589" lon="17.7265567">
        <ele>31.3801</ele>
        <time>2013-05-13T18:11:49Z</time>
      </trkpt>
      <trkpt lat="59.989677" lon="17.7265978">
        <ele>31.3801</ele>
        <time>2013-05-13T18:11:50Z</time>
      </trkpt>
      <trkpt lat="59.9896822" lon="17.7266398">
        <ele>30.8995</ele>
        <time>2013-05-13T18:11:51Z</time>
      </trkpt>
      <trkpt lat="59.9896827" lon="17.7266784">
        <ele>30.8995</ele>
        <time>2013-05-13T18:11:52Z</time>
      </trkpt>
      <trkpt lat="59.9896776" lon="17.7267159">
        <ele>29.9381</ele>
        <time>2013-05-13T18:11:53Z</time>
      </trkpt>
      <trkpt lat="59.9896748" lon="17.7267613">
        <ele>29.4575</ele>
        <time>2013-05-13T18:11:54Z</time>
      </trkpt>
      <trkpt lat="59.9896723" lon="17.7268123">
        <ele>28.9769</ele>
        <time>2013-05-13T18:11:55Z</time>
      </trkpt>
      <trkpt lat="59.9896692" lon="17.7268618">
        <ele>28.4962</ele>
        <time>2013-05-13T18:11:56Z</time>
      </trkpt>
      <trkpt lat="59.9896655" lon="17.7269138">
        <ele>28.0155</ele>
        <time>2013-05-13T18:11:57Z</time>
      </trkpt>
      <trkpt lat="59.9896623" lon="17.7269688">
        <ele>27.5349</ele>
        <time>2013-05-13T18:11:58Z</time>
      </trkpt>
      <trkpt lat="59.9896553" lon="17.727022">
        <ele>27.0543</ele>
        <time>2013-05-13T18:11:59Z</time>
      </trkpt>
      <trkpt lat="59.9896459" lon="17.7270794">
        <ele>27.0543</ele>
        <time>2013-05-13T18:12:00Z</time>
      </trkpt>
      <trkpt lat="59.9896355" lon="17.7271267">
        <ele>26.5736</ele>
        <time>2013-05-13T18:12:01Z</time>
      </trkpt>
      <trkpt lat="59.9896253" lon="17.7271645">
        <ele>26.0929</ele>
        <time>2013-05-13T18:12:02Z</time>
      </trkpt>
      <trkpt lat="59.9896172" lon="17.7272061">
        <ele>26.0929</ele>
        <time>2013-05-13T18:12:03Z</time>
      </trkpt>
      <trkpt lat="59.9896055" lon="17.727249">
        <ele>25.6123</ele>
        <time>2013-05-13T18:12:04Z</time>
      </trkpt>
      <trkpt lat="59.9895963" lon="17.7272908">
        <ele>25.1317</ele>
        <time>2013-05-13T18:12:05Z</time>
      </trkpt>
      <trkpt lat="59.9896024" lon="17.7273257">
        <ele>25.1317</ele>
        <time>2013-05-13T18:12:06Z</time>
      </trkpt>
      <trkpt lat="59.9896036" lon="17.7273654">
        <ele>24.651</ele>
        <time>2013-05-13T18:12:07Z</time>
      </trkpt>
      <trkpt lat="59.9895961" lon="17.7274105">
        <ele>24.651</ele>
        <time>2013-05-13T18:12:08Z</time>
      </trkpt>
      <trkpt lat="59.9895942" lon="17.7274597">
        <ele>24.651</ele>
        <time>2013-05-13T18:12:09Z</time>
      </trkpt>
      <trkpt lat="59.9895935" lon="17.7275028">
        <ele>24.651</ele>
        <time>2013-05-13T18:12:10Z</time>
      </trkpt>
      <trkpt lat="59.9895889" lon="17.7275412">
        <ele>24.651</ele>
        <time>2013-05-13T18:12:11Z</time>
      </trkpt>
      <trkpt lat="59.9895869" lon="17.7275798">
        <ele>24.651</ele>
        <time>2013-05-13T18:12:12Z</time>
      </trkpt>
      <trkpt lat="59.9895853" lon="17.727611">
        <ele>24.651</ele>
        <time>2013-05-13T18:12:13Z</time>
      </trkpt>
      <trkpt lat="59.9895838" lon="17.7276435">
        <ele>24.651</ele>
        <time>2013-05-13T18:12:14Z</time>
      </trkpt>
      <trkpt lat="59.9895842" lon="17.7276797">
        <ele>24.651</ele>
        <time>2013-05-13T18:12:15Z</time>
      </trkpt>
      <trkpt lat="59.9895802" lon="17.7277266">
        <ele>24.1703</ele>
        <time>2013-05-13T18:12:16Z</time>
      </trkpt>
      <trkpt lat="59.9895759" lon="17.7277688">
        <ele>24.1703</ele>
        <time>2013-05-13T18:12:17Z</time>
      </trkpt>
      <trkpt lat="59.989572" lon="17.7278119">
        <ele>24.651</ele>
        <time>2013-05-13T18:12:18Z</time>
      </trkpt>
      <trkpt lat="59.9895693" lon="17.7278584">
        <ele>24.651</ele>
        <time>2013-05-13T18:12:19Z</time>
      </trkpt>
      <trkpt lat="59.9895691" lon="17.7279031">
        <ele>25.1317</ele>
        <time>2013-05-13T18:12:20Z</time>
      </trkpt>
      <trkpt lat="59.9895677" lon="17.7279418">
        <ele>25.6123</ele>
        <time>2013-05-13T18:12:21Z</time>
      </trkpt>
      <trkpt lat="59.9895654" lon="17.7279773">
        <ele>26.0929</ele>
        <time>2013-05-13T18:12:22Z</time>
      </trkpt>
      <trkpt lat="59.9895636" lon="17.7280182">
        <ele>26.0929</ele>
        <time>2013-05-13T18:12:23Z</time>
      </trkpt>
      <trkpt lat="59.9895625" lon="17.7280674">
        <ele>26.0929</ele>
        <time>2013-05-13T18:12:24Z</time>
      </trkpt>
      <trkpt lat="59.989561" lon="17.7281114">
        <ele>26.5736</ele>
        <time>2013-05-13T18:12:25Z</time>
      </trkpt>
      <trkpt lat="59.9895588" lon="17.7281503">
        <ele>27.0543</ele>
        <time>2013-05-13T18:12:26Z</time>
      </trkpt>
      <trkpt lat="59.9895561" lon="17.7281881">
        <ele>27.0543</ele>
        <time>2013-05-13T18:12:27Z</time>
      </trkpt>
      <trkpt lat="59.9895509" lon="17.7282281">
        <ele>27.5349</ele>
        <time>2013-05-13T18:12:28Z</time>
      </trkpt>
      <trkpt lat="59.9895465" lon="17.7282704">
        <ele>27.5349</ele>
        <time>2013-05-13T18:12:29Z</time>
      </trkpt>
      <trkpt lat="59.9895421" lon="17.7283124">
        <ele>28.0155</ele>
        <time>2013-05-13T18:12:30Z</time>
      </trkpt>
      <trkpt lat="59.9895364" lon="17.7283568">
        <ele>28.4962</ele>
        <time>2013-05-13T18:12:31Z</time>
      </trkpt>
      <trkpt lat="59.989532" lon="17.7284003">
        <ele>28.4962</ele>
        <time>2013-05-13T18:12:32Z</time>
      </trkpt>
      <trkpt lat="59.9895295" lon="17.7284446">
        <ele>28.4962</ele>
        <time>2013-05-13T18:12:33Z</time>
      </trkpt>
      <trkpt lat="59.9895247" lon="17.7284896">
        <ele>28.9769</ele>
        <time>2013-05-13T18:12:34Z</time>
      </trkpt>
      <trkpt lat="59.9895201" lon="17.7285315">
        <ele>28.9769</ele>
        <time>2013-05-13T18:12:35Z</time>
      </trkpt>
      <trkpt lat="59.9895171" lon="17.728573">
        <ele>28.9769</ele>
        <time>2013-05-13T18:12:36Z</time>
      </trkpt>
      <trkpt lat="59.9895126" lon="17.7286164">
        <ele>29.4575</ele>
        <time>2013-05-13T18:12:37Z</time>
      </trkpt>
      <trkpt lat="59.9895025" lon="17.7286538">
        <ele>28.9769</ele>
        <time>2013-05-13T18:12:38Z</time>
      </trkpt>
      <trkpt lat="59.9894921" lon="17.7286925">
        <ele>28.9769</ele>
        <time>2013-05-13T18:12:39Z</time>
      </trkpt>
      <trkpt lat="59.9894776" lon="17.7287279">
        <ele>28.9769</ele>
        <time>2013-05-13T18:12:40Z</time>
      </trkpt>
      <trkpt lat="59.989463" lon="17.7287589">
        <ele>28.9769</ele>
        <time>2013-05-13T18:12:41Z</time>
      </trkpt>
      <trkpt lat="59.98945" lon="17.7287859">
        <ele>28.9769</ele>
        <time>2013-05-13T18:12:42Z</time>
      </trkpt>
      <trkpt lat="59.9894362" lon="17.7288123">
        <ele>28.9769</ele>
        <time>2013-05-13T18:12:43Z</time>
      </trkpt>
      <trkpt lat="59.9894212" lon="17.7288313">
        <ele>28.4962</ele>
        <time>2013-05-13T18:12:44Z</time>
      </trkpt>
      <trkpt lat="59.9894025" lon="17.7288413">
        <ele>28.4962</ele>
        <time>2013-05-13T18:12:45Z</time>
      </trkpt>
      <trkpt lat="59.9893832" lon="17.7288647">
        <ele>28.0155</ele>
        <time>2013-05-13T18:12:46Z</time>
      </trkpt>
      <trkpt lat="59.9893621" lon="17.7288963">
        <ele>28.0155</ele>
        <time>2013-05-13T18:12:47Z</time>
      </trkpt>
      <trkpt lat="59.9893404" lon="17.7289251">
        <ele>28.4962</ele>
        <time>2013-05-13T18:12:48Z</time>
      </trkpt>
      <trkpt lat="59.9893204" lon="17.7289532">
        <ele>28.0155</ele>
        <time>2013-05-13T18:12:49Z</time>
      </trkpt>
      <trkpt lat="59.9893016" lon="17.7289808">
        <ele>28.0155</ele>
        <time>2013-05-13T18:12:50Z</time>
      </trkpt>
      <trkpt lat="59.9892843" lon="17.7290032">
        <ele>27.5349</ele>
        <time>2013-05-13T18:12:51Z</time>
      </trkpt>
      <trkpt lat="59.9892669" lon="17.7290256">
        <ele>27.0543</ele>
        <time>2013-05-13T18:12:52Z</time>
      </trkpt>
      <trkpt lat="59.9892475" lon="17.7290536">
        <ele>27.5349</ele>
        <time>2013-05-13T18:12:53Z</time>
      </trkpt>
      <trkpt lat="59.9892282" lon="17.7290796">
        <ele>27.5349</ele>
        <time>2013-05-13T18:12:54Z</time>
      </trkpt>
      <trkpt lat="59.9892113" lon="17.7290988">
        <ele>27.0543</ele>
        <time>2013-05-13T18:12:55Z</time>
      </trkpt>
      <trkpt lat="59.9891933" lon="17.7291226">
        <ele>27.0543</ele>
        <time>2013-05-13T18:12:56Z</time>
      </trkpt>
      <trkpt lat="59.989173" lon="17.7291485">
        <ele>27.5349</ele>
        <time>2013-05-13T18:12:57Z</time>
      </trkpt>
      <trkpt lat="59.9891554" lon="17.7291716">
        <ele>27.5349</ele>
        <time>2013-05-13T18:12:58Z</time>
      </trkpt>
      <trkpt lat="59.9891383" lon="17.7292003">
        <ele>27.0543</ele>
        <time>2013-05-13T18:12:59Z</time>
      </trkpt>
      <trkpt lat="59.9891196" lon="17.7292281">
        <ele>27.0543</ele>
        <time>2013-05-13T18:13:00Z</time>
      </trkpt>
      <trkpt lat="59.9891031" lon="17.7292505">
        <ele>26.5736</ele>
        <time>2013-05-13T18:13:01Z</time>
      </trkpt>
      <trkpt lat="59.9890861" lon="17.7292734">
        <ele>26.5736</ele>
        <time>2013-05-13T18:13:02Z</time>
      </trkpt>
      <trkpt lat="59.9890653" lon="17.7292991">
        <ele>26.5736</ele>
        <time>2013-05-13T18:13:03Z</time>
      </trkpt>
      <trkpt lat="59.9890449" lon="17.7293237">
        <ele>26.5736</ele>
        <time>2013-05-13T18:13:04Z</time>
      </trkpt>
      <trkpt lat="59.9890257" lon="17.7293584">
        <ele>26.5736</ele>
        <time>2013-05-13T18:13:05Z</time>
      </trkpt>
      <trkpt lat="59.9890062" lon="17.7293878">
        <ele>26.5736</ele>
        <time>2013-05-13T18:13:06Z</time>
      </trkpt>
      <trkpt lat="59.9889829" lon="17.7294145">
        <ele>27.0543</ele>
        <time>2013-05-13T18:13:07Z</time>
      </trkpt>
      <trkpt lat="59.9889591" lon="17.7294412">
        <ele>27.0543</ele>
        <time>2013-05-13T18:13:08Z</time>
      </trkpt>
      <trkpt lat="59.9889383" lon="17.7294632">
        <ele>27.0543</ele>
        <time>2013-05-13T18:13:09Z</time>
      </trkpt>
      <trkpt lat="59.9889159" lon="17.7294904">
        <ele>27.5349</ele>
        <time>2013-05-13T18:13:10Z</time>
      </trkpt>
      <trkpt lat="59.9888956" lon="17.7295209">
        <ele>28.0155</ele>
        <time>2013-05-13T18:13:11Z</time>
      </trkpt>
      <trkpt lat="59.9888794" lon="17.7295477">
        <ele>28.0155</ele>
        <time>2013-05-13T18:13:12Z</time>
      </trkpt>
      <trkpt lat="59.9888644" lon="17.7295676">
        <ele>28.0155</ele>
        <time>2013-05-13T18:13:13Z</time>
      </trkpt>
      <trkpt lat="59.9888441" lon="17.729592">
        <ele>28.0155</ele>
        <time>2013-05-13T18:13:14Z</time>
      </trkpt>
      <trkpt lat="59.9888222" lon="17.72961">
        <ele>28.0155</ele>
        <time>2013-05-13T18:13:15Z</time>
      </trkpt>
      <trkpt lat="59.9888012" lon="17.7296313">
        <ele>28.0155</ele>
        <time>2013-05-13T18:13:16Z</time>
      </trkpt>
      <trkpt lat="59.988781" lon="17.7296555">
        <ele>28.0155</ele>
        <time>2013-05-13T18:13:17Z</time>
      </trkpt>
      <trkpt lat="59.9887604" lon="17.72968">
        <ele>28.4962</ele>
        <time>2013-05-13T18:13:18Z</time>
      </trkpt>
      <trkpt lat="59.9887378" lon="17.7297084">
        <ele>28.4962</ele>
        <time>2013-05-13T18:13:19Z</time>
      </trkpt>
      <trkpt lat="59.9887178" lon="17.7297363">
        <ele>28.4962</ele>
        <time>2013-05-13T18:13:20Z</time>
      </trkpt>
      <trkpt lat="59.9886983" lon="17.7297608">
        <ele>28.4962</ele>
        <time>2013-05-13T18:13:21Z</time>
      </trkpt>
      <trkpt lat="59.9886786" lon="17.7297767">
        <ele>28.9769</ele>
        <time>2013-05-13T18:13:22Z</time>
      </trkpt>
      <trkpt lat="59.988654" lon="17.7298008">
        <ele>29.9381</ele>
        <time>2013-05-13T18:13:23Z</time>
      </trkpt>
      <trkpt lat="59.9886307" lon="17.729831">
        <ele>29.9381</ele>
        <time>2013-05-13T18:13:24Z</time>
      </trkpt>
      <trkpt lat="59.9886063" lon="17.7298588">
        <ele>30.4188</ele>
        <time>2013-05-13T18:13:25Z</time>
      </trkpt>
      <trkpt lat="59.988585" lon="17.7298903">
        <ele>30.4188</ele>
        <time>2013-05-13T18:13:26Z</time>
      </trkpt>
      <trkpt lat="59.9885633" lon="17.7299215">
        <ele>30.4188</ele>
        <time>2013-05-13T18:13:27Z</time>
      </trkpt>
      <trkpt lat="59.9885457" lon="17.7299502">
        <ele>30.4188</ele>
        <time>2013-05-13T18:13:28Z</time>
      </trkpt>
      <trkpt lat="59.98853" lon="17.7299823">
        <ele>30.4188</ele>
        <time>2013-05-13T18:13:29Z</time>
      </trkpt>
      <trkpt lat="59.9885089" lon="17.7300075">
        <ele>30.4188</ele>
        <time>2013-05-13T18:13:30Z</time>
      </trkpt>
      <trkpt lat="59.9884857" lon="17.7300307">
        <ele>30.4188</ele>
        <time>2013-05-13T18:13:31Z</time>
      </trkpt>
      <trkpt lat="59.9884638" lon="17.7300571">
        <ele>30.4188</ele>
        <time>2013-05-13T18:13:32Z</time>
      </trkpt>
      <trkpt lat="59.9884432" lon="17.7300825">
        <ele>29.9381</ele>
        <time>2013-05-13T18:13:33Z</time>
      </trkpt>
      <trkpt lat="59.9884217" lon="17.7301069">
        <ele>30.4188</ele>
        <time>2013-05-13T18:13:34Z</time>
      </trkpt>
      <trkpt lat="59.9884022" lon="17.7301405">
        <ele>30.4188</ele>
        <time>2013-05-13T18:13:35Z</time>
      </trkpt>
      <trkpt lat="59.9883856" lon="17.7301814">
        <ele>30.4188</ele>
        <time>2013-05-13T18:13:36Z</time>
      </trkpt>
      <trkpt lat="59.988366" lon="17.7302089">
        <ele>30.4188</ele>
        <time>2013-05-13T18:13:37Z</time>
      </trkpt>
      <trkpt lat="59.9883441" lon="17.7302289">
        <ele>30.8995</ele>
        <time>2013-05-13T18:13:38Z</time>
      </trkpt>
      <trkpt lat="59.9883219" lon="17.7302589">
        <ele>30.8995</ele>
        <time>2013-05-13T18:13:39Z</time>
      </trkpt>
      <trkpt lat="59.9883028" lon="17.7302829">
        <ele>31.3801</ele>
        <time>2013-05-13T18:13:40Z</time>
      </trkpt>
      <trkpt lat="59.9882877" lon="17.7303066">
        <ele>31.3801</ele>
        <time>2013-05-13T18:13:41Z</time>
      </trkpt>
      <trkpt lat="59.988272" lon="17.730331">
        <ele>31.3801</ele>
        <time>2013-05-13T18:13:42Z</time>
      </trkpt>
      <trkpt lat="59.9882536" lon="17.7303601">
        <ele>31.8607</ele>
        <time>2013-05-13T18:13:43Z</time>
      </trkpt>
      <trkpt lat="59.9882401" lon="17.7303885">
        <ele>31.3801</ele>
        <time>2013-05-13T18:13:44Z</time>
      </trkpt>
      <trkpt lat="59.9882256" lon="17.7304145">
        <ele>31.8607</ele>
        <time>2013-05-13T18:13:45Z</time>
      </trkpt>
      <trkpt lat="59.9882098" lon="17.7304382">
        <ele>31.8607</ele>
        <time>2013-05-13T18:13:46Z</time>
      </trkpt>
      <trkpt lat="59.9881934" lon="17.7304667">
        <ele>31.3801</ele>
        <time>2013-05-13T18:13:47Z</time>
      </trkpt>
      <trkpt lat="59.9881785" lon="17.7304949">
        <ele>31.3801</ele>
        <time>2013-05-13T18:13:48Z</time>
      </trkpt>
      <trkpt lat="59.9881633" lon="17.7305353">
        <ele>31.8607</ele>
        <time>2013-05-13T18:13:49Z</time>
      </trkpt>
      <trkpt lat="59.988152" lon="17.7305663">
        <ele>31.3801</ele>
        <time>2013-05-13T18:13:50Z</time>
      </trkpt>
      <trkpt lat="59.9881426" lon="17.7305928">
        <ele>31.3801</ele>
        <time>2013-05-13T18:13:51Z</time>
      </trkpt>
      <trkpt lat="59.9881288" lon="17.7306217">
        <ele>31.3801</ele>
        <time>2013-05-13T18:13:52Z</time>
      </trkpt>
      <trkpt lat="59.9881134" lon="17.7306563">
        <ele>31.3801</ele>
        <time>2013-05-13T18:13:53Z</time>
      </trkpt>
      <trkpt lat="59.9880992" lon="17.7306947">
        <ele>30.8995</ele>
        <time>2013-05-13T18:13:54Z</time>
      </trkpt>
      <trkpt lat="59.9880799" lon="17.7307372">
        <ele>31.3801</ele>
        <time>2013-05-13T18:13:55Z</time>
      </trkpt>
      <trkpt lat="59.9880625" lon="17.7307738">
        <ele>31.3801</ele>
        <time>2013-05-13T18:13:56Z</time>
      </trkpt>
      <trkpt lat="59.9880477" lon="17.7308071">
        <ele>30.8995</ele>
        <time>2013-05-13T18:13:57Z</time>
      </trkpt>
      <trkpt lat="59.9880318" lon="17.7308362">
        <ele>30.8995</ele>
        <time>2013-05-13T18:13:58Z</time>
      </trkpt>
      <trkpt lat="59.9880143" lon="17.7308624">
        <ele>30.4188</ele>
        <time>2013-05-13T18:13:59Z</time>
      </trkpt>
      <trkpt lat="59.9879944" lon="17.7308932">
        <ele>30.4188</ele>
        <time>2013-05-13T18:14:00Z</time>
      </trkpt>
      <trkpt lat="59.9879768" lon="17.7309237">
        <ele>30.4188</ele>
        <time>2013-05-13T18:14:01Z</time>
      </trkpt>
      <trkpt lat="59.9879577" lon="17.7309559">
        <ele>30.4188</ele>
        <time>2013-05-13T18:14:02Z</time>
      </trkpt>
      <trkpt lat="59.9879397" lon="17.73099">
        <ele>29.9381</ele>
        <time>2013-05-13T18:14:03Z</time>
      </trkpt>
      <trkpt lat="59.9879225" lon="17.7310216">
        <ele>29.9381</ele>
        <time>2013-05-13T18:14:04Z</time>
      </trkpt>
      <trkpt lat="59.9879047" lon="17.7310571">
        <ele>29.4575</ele>
        <time>2013-05-13T18:14:05Z</time>
      </trkpt>
      <trkpt lat="59.9878894" lon="17.7310874">
        <ele>29.4575</ele>
        <time>2013-05-13T18:14:06Z</time>
      </trkpt>
      <trkpt lat="59.9878736" lon="17.7311121">
        <ele>29.4575</ele>
        <time>2013-05-13T18:14:07Z</time>
      </trkpt>
      <trkpt lat="59.9878573" lon="17.7311359">
        <ele>28.9769</ele>
        <time>2013-05-13T18:14:08Z</time>
      </trkpt>
      <trkpt lat="59.9878407" lon="17.731163">
        <ele>28.4962</ele>
        <time>2013-05-13T18:14:09Z</time>
      </trkpt>
      <trkpt lat="59.9878242" lon="17.7311883">
        <ele>28.4962</ele>
        <time>2013-05-13T18:14:10Z</time>
      </trkpt>
      <trkpt lat="59.9878044" lon="17.7312153">
        <ele>28.4962</ele>
        <time>2013-05-13T18:14:11Z</time>
      </trkpt>
      <trkpt lat="59.9877811" lon="17.7312418">
        <ele>28.4962</ele>
        <time>2013-05-13T18:14:12Z</time>
      </trkpt>
      <trkpt lat="59.9877583" lon="17.7312726">
        <ele>28.4962</ele>
        <time>2013-05-13T18:14:13Z</time>
      </trkpt>
      <trkpt lat="59.9877394" lon="17.7313037">
        <ele>28.0155</ele>
        <time>2013-05-13T18:14:14Z</time>
      </trkpt>
      <trkpt lat="59.987719" lon="17.7313329">
        <ele>27.5349</ele>
        <time>2013-05-13T18:14:15Z</time>
      </trkpt>
      <trkpt lat="59.9877012" lon="17.731361">
        <ele>27.5349</ele>
        <time>2013-05-13T18:14:16Z</time>
      </trkpt>
      <trkpt lat="59.9876867" lon="17.7313973">
        <ele>28.0155</ele>
        <time>2013-05-13T18:14:17Z</time>
      </trkpt>
      <trkpt lat="59.9876718" lon="17.7314346">
        <ele>28.0155</ele>
        <time>2013-05-13T18:14:18Z</time>
      </trkpt>
      <trkpt lat="59.9876594" lon="17.7314592">
        <ele>27.5349</ele>
        <time>2013-05-13T18:14:19Z</time>
      </trkpt>
      <trkpt lat="59.9876481" lon="17.7314788">
        <ele>27.5349</ele>
        <time>2013-05-13T18:14:20Z</time>
      </trkpt>
      <trkpt lat="59.9876328" lon="17.7315008">
        <ele>27.0543</ele>
        <time>2013-05-13T18:14:21Z</time>
      </trkpt>
      <trkpt lat="59.9876159" lon="17.7315252">
        <ele>26.5736</ele>
        <time>2013-05-13T18:14:22Z</time>
      </trkpt>
      <trkpt lat="59.9875936" lon="17.731551">
        <ele>26.5736</ele>
        <time>2013-05-13T18:14:23Z</time>
      </trkpt>
      <trkpt lat="59.9875747" lon="17.73158">
        <ele>26.5736</ele>
        <time>2013-05-13T18:14:24Z</time>
      </trkpt>
      <trkpt lat="59.9875535" lon="17.7316059">
        <ele>26.0929</ele>
        <time>2013-05-13T18:14:25Z</time>
      </trkpt>
      <trkpt lat="59.9875348" lon="17.7316354">
        <ele>26.0929</ele>
        <time>2013-05-13T18:14:26Z</time>
      </trkpt>
      <trkpt lat="59.987519" lon="17.7316642">
        <ele>26.0929</ele>
        <time>2013-05-13T18:14:27Z</time>
      </trkpt>
      <trkpt lat="59.9875051" lon="17.731691">
        <ele>26.0929</ele>
        <time>2013-05-13T18:14:28Z</time>
      </trkpt>
      <trkpt lat="59.9874899" lon="17.7317182">
        <ele>26.0929</ele>
        <time>2013-05-13T18:14:29Z</time>
      </trkpt>
      <trkpt lat="59.987469" lon="17.7317514">
        <ele>25.6123</ele>
        <time>2013-05-13T18:14:30Z</time>
      </trkpt>
      <trkpt lat="59.9874445" lon="17.7317892">
        <ele>26.0929</ele>
        <time>2013-05-13T18:14:31Z</time>
      </trkpt>
      <trkpt lat="59.9874257" lon="17.7318215">
        <ele>26.0929</ele>
        <time>2013-05-13T18:14:32Z</time>
      </trkpt>
      <trkpt lat="59.9874088" lon="17.7318521">
        <ele>26.0929</ele>
        <time>2013-05-13T18:14:33Z</time>
      </trkpt>
      <trkpt lat="59.9873955" lon="17.7318909">
        <ele>26.0929</ele>
        <time>2013-05-13T18:14:34Z</time>
      </trkpt>
      <trkpt lat="59.9873852" lon="17.7319317">
        <ele>26.0929</ele>
        <time>2013-05-13T18:14:35Z</time>
      </trkpt>
      <trkpt lat="59.9873733" lon="17.7319649">
        <ele>26.0929</ele>
        <time>2013-05-13T18:14:36Z</time>
      </trkpt>
      <trkpt lat="59.9873649" lon="17.7320016">
        <ele>26.0929</ele>
        <time>2013-05-13T18:14:37Z</time>
      </trkpt>
      <trkpt lat="59.9873536" lon="17.732036">
        <ele>25.6123</ele>
        <time>2013-05-13T18:14:38Z</time>
      </trkpt>
      <trkpt lat="59.9873449" lon="17.7320728">
        <ele>25.6123</ele>
        <time>2013-05-13T18:14:39Z</time>
      </trkpt>
      <trkpt lat="59.9873351" lon="17.73211">
        <ele>25.1317</ele>
        <time>2013-05-13T18:14:40Z</time>
      </trkpt>
      <trkpt lat="59.9873258" lon="17.7321404">
        <ele>24.651</ele>
        <time>2013-05-13T18:14:41Z</time>
      </trkpt>
      <trkpt lat="59.9873165" lon="17.7321779">
        <ele>24.1703</ele>
        <time>2013-05-13T18:14:42Z</time>
      </trkpt>
      <trkpt lat="59.9873067" lon="17.7322103">
        <ele>24.1703</ele>
        <time>2013-05-13T18:14:43Z</time>
      </trkpt>
      <trkpt lat="59.9872992" lon="17.7322403">
        <ele>24.1703</ele>
        <time>2013-05-13T18:14:44Z</time>
      </trkpt>
      <trkpt lat="59.9872895" lon="17.7322791">
        <ele>24.1703</ele>
        <time>2013-05-13T18:14:45Z</time>
      </trkpt>
      <trkpt lat="59.987278" lon="17.7323151">
        <ele>23.6896</ele>
        <time>2013-05-13T18:14:46Z</time>
      </trkpt>
      <trkpt lat="59.9872704" lon="17.7323522">
        <ele>23.209</ele>
        <time>2013-05-13T18:14:47Z</time>
      </trkpt>
      <trkpt lat="59.9872626" lon="17.7323948">
        <ele>23.209</ele>
        <time>2013-05-13T18:14:48Z</time>
      </trkpt>
      <trkpt lat="59.9872558" lon="17.7324436">
        <ele>22.7283</ele>
        <time>2013-05-13T18:14:49Z</time>
      </trkpt>
      <trkpt lat="59.9872515" lon="17.7324885">
        <ele>22.2476</ele>
        <time>2013-05-13T18:14:50Z</time>
      </trkpt>
      <trkpt lat="59.9872471" lon="17.732531">
        <ele>22.7283</ele>
        <time>2013-05-13T18:14:51Z</time>
      </trkpt>
      <trkpt lat="59.9872407" lon="17.7325751">
        <ele>22.7283</ele>
        <time>2013-05-13T18:14:52Z</time>
      </trkpt>
      <trkpt lat="59.9872346" lon="17.7326176">
        <ele>22.7283</ele>
        <time>2013-05-13T18:14:53Z</time>
      </trkpt>
      <trkpt lat="59.9872289" lon="17.7326606">
        <ele>22.7283</ele>
        <time>2013-05-13T18:14:54Z</time>
      </trkpt>
      <trkpt lat="59.9872206" lon="17.732701">
        <ele>23.209</ele>
        <time>2013-05-13T18:14:55Z</time>
      </trkpt>
      <trkpt lat="59.9872126" lon="17.7327345">
        <ele>23.209</ele>
        <time>2013-05-13T18:14:56Z</time>
      </trkpt>
      <trkpt lat="59.9872061" lon="17.7327746">
        <ele>22.7283</ele>
        <time>2013-05-13T18:14:57Z</time>
      </trkpt>
      <trkpt lat="59.9871968" lon="17.7328118">
        <ele>22.2476</ele>
        <time>2013-05-13T18:14:58Z</time>
      </trkpt>
      <trkpt lat="59.9871859" lon="17.7328512">
        <ele>21.767</ele>
        <time>2013-05-13T18:14:59Z</time>
      </trkpt>
      <trkpt lat="59.9871699" lon="17.7328932">
        <ele>22.2476</ele>
        <time>2013-05-13T18:15:00Z</time>
      </trkpt>
      <trkpt lat="59.987159" lon="17.7329332">
        <ele>22.7283</ele>
        <time>2013-05-13T18:15:01Z</time>
      </trkpt>
      <trkpt lat="59.9871539" lon="17.7329813">
        <ele>24.1703</ele>
        <time>2013-05-13T18:15:02Z</time>
      </trkpt>
      <trkpt lat="59.9871443" lon="17.7330333">
        <ele>25.1317</ele>
        <time>2013-05-13T18:15:03Z</time>
      </trkpt>
      <trkpt lat="59.9871341" lon="17.7330777">
        <ele>25.1317</ele>
        <time>2013-05-13T18:15:04Z</time>
      </trkpt>
      <trkpt lat="59.9871227" lon="17.7331216">
        <ele>25.1317</ele>
        <time>2013-05-13T18:15:05Z</time>
      </trkpt>
      <trkpt lat="59.9871092" lon="17.7331654">
        <ele>25.1317</ele>
        <time>2013-05-13T18:15:06Z</time>
      </trkpt>
      <trkpt lat="59.9870988" lon="17.7332113">
        <ele>24.651</ele>
        <time>2013-05-13T18:15:07Z</time>
      </trkpt>
      <trkpt lat="59.9870839" lon="17.7332547">
        <ele>24.651</ele>
        <time>2013-05-13T18:15:08Z</time>
      </trkpt>
      <trkpt lat="59.987071" lon="17.7332896">
        <ele>24.1703</ele>
        <time>2013-05-13T18:15:09Z</time>
      </trkpt>
      <trkpt lat="59.987061" lon="17.7333231">
        <ele>24.1703</ele>
        <time>2013-05-13T18:15:10Z</time>
      </trkpt>
      <trkpt lat="59.9870522" lon="17.7333589">
        <ele>23.6896</ele>
        <time>2013-05-13T18:15:11Z</time>
      </trkpt>
      <trkpt lat="59.9870419" lon="17.733397">
        <ele>22.7283</ele>
        <time>2013-05-13T18:15:12Z</time>
      </trkpt>
      <trkpt lat="59.9870346" lon="17.7334422">
        <ele>22.7283</ele>
        <time>2013-05-13T18:15:13Z</time>
      </trkpt>
      <trkpt lat="59.9870309" lon="17.7334894">
        <ele>22.2476</ele>
        <time>2013-05-13T18:15:14Z</time>
      </trkpt>
      <trkpt lat="59.9870228" lon="17.7335355">
        <ele>21.767</ele>
        <time>2013-05-13T18:15:15Z</time>
      </trkpt>
      <trkpt lat="59.9870134" lon="17.733569">
        <ele>21.2864</ele>
        <time>2013-05-13T18:15:16Z</time>
      </trkpt>
      <trkpt lat="59.9870018" lon="17.7336125">
        <ele>21.2864</ele>
        <time>2013-05-13T18:15:17Z</time>
      </trkpt>
      <trkpt lat="59.986988" lon="17.7336515">
        <ele>20.8057</ele>
        <time>2013-05-13T18:15:18Z</time>
      </trkpt>
      <trkpt lat="59.986973" lon="17.733693">
        <ele>20.8057</ele>
        <time>2013-05-13T18:15:19Z</time>
      </trkpt>
      <trkpt lat="59.9869626" lon="17.7337313">
        <ele>20.8057</ele>
        <time>2013-05-13T18:15:20Z</time>
      </trkpt>
      <trkpt lat="59.9869485" lon="17.7337824">
        <ele>21.767</ele>
        <time>2013-05-13T18:15:21Z</time>
      </trkpt>
      <trkpt lat="59.9869365" lon="17.7338219">
        <ele>21.2864</ele>
        <time>2013-05-13T18:15:22Z</time>
      </trkpt>
      <trkpt lat="59.9869265" lon="17.733867">
        <ele>21.2864</ele>
        <time>2013-05-13T18:15:23Z</time>
      </trkpt>
      <trkpt lat="59.986912" lon="17.7339137">
        <ele>22.2476</ele>
        <time>2013-05-13T18:15:24Z</time>
      </trkpt>
      <trkpt lat="59.9868979" lon="17.7339446">
        <ele>22.2476</ele>
        <time>2013-05-13T18:15:25Z</time>
      </trkpt>
      <trkpt lat="59.9868873" lon="17.7339856">
        <ele>21.767</ele>
        <time>2013-05-13T18:15:26Z</time>
      </trkpt>
      <trkpt lat="59.9868799" lon="17.734023">
        <ele>22.2476</ele>
        <time>2013-05-13T18:15:27Z</time>
      </trkpt>
      <trkpt lat="59.9868736" lon="17.734055">
        <ele>21.767</ele>
        <time>2013-05-13T18:15:28Z</time>
      </trkpt>
      <trkpt lat="59.9868611" lon="17.7341059">
        <ele>23.209</ele>
        <time>2013-05-13T18:15:29Z</time>
      </trkpt>
      <trkpt lat="59.9868474" lon="17.7341592">
        <ele>24.651</ele>
        <time>2013-05-13T18:15:30Z</time>
      </trkpt>
      <trkpt lat="59.9868306" lon="17.7342074">
        <ele>25.6123</ele>
        <time>2013-05-13T18:15:31Z</time>
      </trkpt>
      <trkpt lat="59.9868165" lon="17.7342517">
        <ele>26.0929</ele>
        <time>2013-05-13T18:15:32Z</time>
      </trkpt>
      <trkpt lat="59.9868037" lon="17.7342988">
        <ele>27.0543</ele>
        <time>2013-05-13T18:15:33Z</time>
      </trkpt>
      <trkpt lat="59.9867915" lon="17.7343379">
        <ele>27.5349</ele>
        <time>2013-05-13T18:15:34Z</time>
      </trkpt>
      <trkpt lat="59.9867839" lon="17.7343741">
        <ele>28.0155</ele>
        <time>2013-05-13T18:15:35Z</time>
      </trkpt>
      <trkpt lat="59.9867786" lon="17.7344151">
        <ele>28.0155</ele>
        <time>2013-05-13T18:15:36Z</time>
      </trkpt>
      <trkpt lat="59.9867658" lon="17.7344613">
        <ele>28.0155</ele>
        <time>2013-05-13T18:15:37Z</time>
      </trkpt>
      <trkpt lat="59.9867512" lon="17.7345105">
        <ele>28.4962</ele>
        <time>2013-05-13T18:15:38Z</time>
      </trkpt>
      <trkpt lat="59.9867394" lon="17.7345499">
        <ele>28.9769</ele>
        <time>2013-05-13T18:15:39Z</time>
      </trkpt>
      <trkpt lat="59.98673" lon="17.7345938">
        <ele>28.9769</ele>
        <time>2013-05-13T18:15:40Z</time>
      </trkpt>
      <trkpt lat="59.9867211" lon="17.7346337">
        <ele>29.4575</ele>
        <time>2013-05-13T18:15:41Z</time>
      </trkpt>
      <trkpt lat="59.9867154" lon="17.7346701">
        <ele>29.4575</ele>
        <time>2013-05-13T18:15:42Z</time>
      </trkpt>
      <trkpt lat="59.9867117" lon="17.7347072">
        <ele>29.4575</ele>
        <time>2013-05-13T18:15:43Z</time>
      </trkpt>
      <trkpt lat="59.9867073" lon="17.7347451">
        <ele>28.9769</ele>
        <time>2013-05-13T18:15:44Z</time>
      </trkpt>
      <trkpt lat="59.9866985" lon="17.7347812">
        <ele>28.9769</ele>
        <time>2013-05-13T18:15:45Z</time>
      </trkpt>
      <trkpt lat="59.9866948" lon="17.7348181">
        <ele>28.4962</ele>
        <time>2013-05-13T18:15:46Z</time>
      </trkpt>
      <trkpt lat="59.9866881" lon="17.7348614">
        <ele>28.4962</ele>
        <time>2013-05-13T18:15:47Z</time>
      </trkpt>
      <trkpt lat="59.9866767" lon="17.7349008">
        <ele>28.4962</ele>
        <time>2013-05-13T18:15:48Z</time>
      </trkpt>
      <trkpt lat="59.9866668" lon="17.7349305">
        <ele>28.4962</ele>
        <time>2013-05-13T18:15:49Z</time>
      </trkpt>
      <trkpt lat="59.9866585" lon="17.734964">
        <ele>28.0155</ele>
        <time>2013-05-13T18:15:50Z</time>
      </trkpt>
      <trkpt lat="59.9866492" lon="17.7350195">
        <ele>29.4575</ele>
        <time>2013-05-13T18:15:51Z</time>
      </trkpt>
      <trkpt lat="59.9866428" lon="17.7350624">
        <ele>28.9769</ele>
        <time>2013-05-13T18:15:52Z</time>
      </trkpt>
      <trkpt lat="59.9866376" lon="17.7351016">
        <ele>28.9769</ele>
        <time>2013-05-13T18:15:53Z</time>
      </trkpt>
      <trkpt lat="59.9866332" lon="17.7351481">
        <ele>28.4962</ele>
        <time>2013-05-13T18:15:54Z</time>
      </trkpt>
      <trkpt lat="59.9866234" lon="17.735188">
        <ele>28.4962</ele>
        <time>2013-05-13T18:15:55Z</time>
      </trkpt>
      <trkpt lat="59.9866217" lon="17.7352278">
        <ele>28.0155</ele>
        <time>2013-05-13T18:15:56Z</time>
      </trkpt>
      <trkpt lat="59.9866201" lon="17.7352696">
        <ele>27.5349</ele>
        <time>2013-05-13T18:15:57Z</time>
      </trkpt>
      <trkpt lat="59.9866151" lon="17.7353105">
        <ele>27.5349</ele>
        <time>2013-05-13T18:15:58Z</time>
      </trkpt>
      <trkpt lat="59.9866092" lon="17.7353501">
        <ele>27.5349</ele>
        <time>2013-05-13T18:15:59Z</time>
      </trkpt>
      <trkpt lat="59.9866043" lon="17.7353884">
        <ele>27.5349</ele>
        <time>2013-05-13T18:16:00Z</time>
      </trkpt>
      <trkpt lat="59.9865989" lon="17.7354303">
        <ele>27.0543</ele>
        <time>2013-05-13T18:16:01Z</time>
      </trkpt>
      <trkpt lat="59.9865936" lon="17.7354647">
        <ele>27.0543</ele>
        <time>2013-05-13T18:16:02Z</time>
      </trkpt>
      <trkpt lat="59.9865861" lon="17.7355032">
        <ele>26.5736</ele>
        <time>2013-05-13T18:16:03Z</time>
      </trkpt>
      <trkpt lat="59.9865787" lon="17.7355449">
        <ele>26.5736</ele>
        <time>2013-05-13T18:16:04Z</time>
      </trkpt>
      <trkpt lat="59.9865699" lon="17.7355872">
        <ele>26.5736</ele>
        <time>2013-05-13T18:16:05Z</time>
      </trkpt>
      <trkpt lat="59.9865611" lon="17.7356241">
        <ele>26.5736</ele>
        <time>2013-05-13T18:16:06Z</time>
      </trkpt>
      <trkpt lat="59.9865518" lon="17.735664">
        <ele>26.5736</ele>
        <time>2013-05-13T18:16:07Z</time>
      </trkpt>
      <trkpt lat="59.986541" lon="17.7357044">
        <ele>26.5736</ele>
        <time>2013-05-13T18:16:08Z</time>
      </trkpt>
      <trkpt lat="59.9865292" lon="17.7357417">
        <ele>27.0543</ele>
        <time>2013-05-13T18:16:09Z</time>
      </trkpt>
      <trkpt lat="59.9865177" lon="17.7357833">
        <ele>27.0543</ele>
        <time>2013-05-13T18:16:10Z</time>
      </trkpt>
      <trkpt lat="59.9865066" lon="17.7358204">
        <ele>26.5736</ele>
        <time>2013-05-13T18:16:11Z</time>
      </trkpt>
      <trkpt lat="59.9864955" lon="17.7358551">
        <ele>26.5736</ele>
        <time>2013-05-13T18:16:12Z</time>
      </trkpt>
      <trkpt lat="59.9864848" lon="17.7358895">
        <ele>26.5736</ele>
        <time>2013-05-13T18:16:13Z</time>
      </trkpt>
      <trkpt lat="59.9864695" lon="17.735923">
        <ele>26.5736</ele>
        <time>2013-05-13T18:16:14Z</time>
      </trkpt>
      <trkpt lat="59.9864548" lon="17.7359575">
        <ele>26.5736</ele>
        <time>2013-05-13T18:16:15Z</time>
      </trkpt>
      <trkpt lat="59.9864426" lon="17.7359943">
        <ele>26.5736</ele>
        <time>2013-05-13T18:16:16Z</time>
      </trkpt>
      <trkpt lat="59.986427" lon="17.7360296">
        <ele>26.5736</ele>
        <time>2013-05-13T18:16:17Z</time>
      </trkpt>
      <trkpt lat="59.9864102" lon="17.7360681">
        <ele>27.0543</ele>
        <time>2013-05-13T18:16:18Z</time>
      </trkpt>
      <trkpt lat="59.986395" lon="17.7361017">
        <ele>27.5349</ele>
        <time>2013-05-13T18:16:19Z</time>
      </trkpt>
      <trkpt lat="59.9863777" lon="17.7361376">
        <ele>28.0155</ele>
        <time>2013-05-13T18:16:20Z</time>
      </trkpt>
      <trkpt lat="59.9863607" lon="17.7361694">
        <ele>28.4962</ele>
        <time>2013-05-13T18:16:21Z</time>
      </trkpt>
      <trkpt lat="59.9863458" lon="17.7361974">
        <ele>28.4962</ele>
        <time>2013-05-13T18:16:22Z</time>
      </trkpt>
      <trkpt lat="59.9863259" lon="17.7362292">
        <ele>28.9769</ele>
        <time>2013-05-13T18:16:23Z</time>
      </trkpt>
      <trkpt lat="59.9863041" lon="17.7362528">
        <ele>29.4575</ele>
        <time>2013-05-13T18:16:24Z</time>
      </trkpt>
      <trkpt lat="59.9862846" lon="17.7362743">
        <ele>29.4575</ele>
        <time>2013-05-13T18:16:25Z</time>
      </trkpt>
      <trkpt lat="59.9862623" lon="17.7362973">
        <ele>29.4575</ele>
        <time>2013-05-13T18:16:26Z</time>
      </trkpt>
      <trkpt lat="59.9862298" lon="17.7363323">
        <ele>31.3801</ele>
        <time>2013-05-13T18:16:27Z</time>
      </trkpt>
      <trkpt lat="59.9862016" lon="17.7363659">
        <ele>32.8223</ele>
        <time>2013-05-13T18:16:28Z</time>
      </trkpt>
      <trkpt lat="59.9861802" lon="17.7364075">
        <ele>34.2642</ele>
        <time>2013-05-13T18:16:29Z</time>
      </trkpt>
      <trkpt lat="59.9861657" lon="17.7364432">
        <ele>34.7449</ele>
        <time>2013-05-13T18:16:30Z</time>
      </trkpt>
      <trkpt lat="59.986154" lon="17.7364781">
        <ele>34.2642</ele>
        <time>2013-05-13T18:16:31Z</time>
      </trkpt>
      <trkpt lat="59.9861409" lon="17.7365064">
        <ele>33.7834</ele>
        <time>2013-05-13T18:16:32Z</time>
      </trkpt>
      <trkpt lat="59.9861298" lon="17.7365337">
        <ele>33.7834</ele>
        <time>2013-05-13T18:16:33Z</time>
      </trkpt>
      <trkpt lat="59.9861186" lon="17.7365638">
        <ele>33.7834</ele>
        <time>2013-05-13T18:16:34Z</time>
      </trkpt>
      <trkpt lat="59.9861013" lon="17.7365869">
        <ele>33.3029</ele>
        <time>2013-05-13T18:16:35Z</time>
      </trkpt>
      <trkpt lat="59.9860846" lon="17.7366183">
        <ele>32.8223</ele>
        <time>2013-05-13T18:16:36Z</time>
      </trkpt>
      <trkpt lat="59.986067" lon="17.7366431">
        <ele>32.8223</ele>
        <time>2013-05-13T18:16:37Z</time>
      </trkpt>
      <trkpt lat="59.9860504" lon="17.7366664">
        <ele>32.3416</ele>
        <time>2013-05-13T18:16:38Z</time>
      </trkpt>
      <trkpt lat="59.9860357" lon="17.7366877">
        <ele>31.8607</ele>
        <time>2013-05-13T18:16:39Z</time>
      </trkpt>
      <trkpt lat="59.9860163" lon="17.7367087">
        <ele>31.8607</ele>
        <time>2013-05-13T18:16:40Z</time>
      </trkpt>
      <trkpt lat="59.985995" lon="17.7367403">
        <ele>31.3801</ele>
        <time>2013-05-13T18:16:41Z</time>
      </trkpt>
      <trkpt lat="59.9859778" lon="17.7367788">
        <ele>31.3801</ele>
        <time>2013-05-13T18:16:42Z</time>
      </trkpt>
      <trkpt lat="59.9859624" lon="17.7368093">
        <ele>31.3801</ele>
        <time>2013-05-13T18:16:43Z</time>
      </trkpt>
      <trkpt lat="59.9859499" lon="17.7368322">
        <ele>30.4188</ele>
        <time>2013-05-13T18:16:44Z</time>
      </trkpt>
      <trkpt lat="59.9859352" lon="17.736863">
        <ele>29.9381</ele>
        <time>2013-05-13T18:16:45Z</time>
      </trkpt>
      <trkpt lat="59.9859204" lon="17.7368938">
        <ele>29.4575</ele>
        <time>2013-05-13T18:16:46Z</time>
      </trkpt>
      <trkpt lat="59.9859021" lon="17.7369151">
        <ele>29.4575</ele>
        <time>2013-05-13T18:16:47Z</time>
      </trkpt>
      <trkpt lat="59.985882" lon="17.7369368">
        <ele>28.9769</ele>
        <time>2013-05-13T18:16:48Z</time>
      </trkpt>
      <trkpt lat="59.9858655" lon="17.7369586">
        <ele>28.4962</ele>
        <time>2013-05-13T18:16:49Z</time>
      </trkpt>
      <trkpt lat="59.9858497" lon="17.7369834">
        <ele>28.4962</ele>
        <time>2013-05-13T18:16:50Z</time>
      </trkpt>
      <trkpt lat="59.9858339" lon="17.7370037">
        <ele>28.0155</ele>
        <time>2013-05-13T18:16:51Z</time>
      </trkpt>
      <trkpt lat="59.9858209" lon="17.7370254">
        <ele>28.0155</ele>
        <time>2013-05-13T18:16:52Z</time>
      </trkpt>
      <trkpt lat="59.9858095" lon="17.7370459">
        <ele>28.0155</ele>
        <time>2013-05-13T18:16:53Z</time>
      </trkpt>
      <trkpt lat="59.9857912" lon="17.7370712">
        <ele>28.0155</ele>
        <time>2013-05-13T18:16:54Z</time>
      </trkpt>
      <trkpt lat="59.9857741" lon="17.7370896">
        <ele>28.0155</ele>
        <time>2013-05-13T18:16:55Z</time>
      </trkpt>
      <trkpt lat="59.9857593" lon="17.7371155">
        <ele>28.4962</ele>
        <time>2013-05-13T18:16:56Z</time>
      </trkpt>
      <trkpt lat="59.9857469" lon="17.7371398">
        <ele>28.0155</ele>
        <time>2013-05-13T18:16:57Z</time>
      </trkpt>
      <trkpt lat="59.985736" lon="17.7371575">
        <ele>28.0155</ele>
        <time>2013-05-13T18:16:58Z</time>
      </trkpt>
      <trkpt lat="59.9857202" lon="17.7371828">
        <ele>28.0155</ele>
        <time>2013-05-13T18:16:59Z</time>
      </trkpt>
      <trkpt lat="59.9857081" lon="17.7372171">
        <ele>27.0543</ele>
        <time>2013-05-13T18:17:00Z</time>
      </trkpt>
      <trkpt lat="59.9856961" lon="17.7372567">
        <ele>26.5736</ele>
        <time>2013-05-13T18:17:01Z</time>
      </trkpt>
      <trkpt lat="59.98568" lon="17.7372907">
        <ele>26.5736</ele>
        <time>2013-05-13T18:17:02Z</time>
      </trkpt>
      <trkpt lat="59.9856609" lon="17.7373268">
        <ele>26.0929</ele>
        <time>2013-05-13T18:17:03Z</time>
      </trkpt>
      <trkpt lat="59.9856436" lon="17.7373704">
        <ele>25.1317</ele>
        <time>2013-05-13T18:17:04Z</time>
      </trkpt>
      <trkpt lat="59.9856272" lon="17.7374154">
        <ele>25.1317</ele>
        <time>2013-05-13T18:17:05Z</time>
      </trkpt>
      <trkpt lat="59.9856133" lon="17.7374587">
        <ele>25.1317</ele>
        <time>2013-05-13T18:17:06Z</time>
      </trkpt>
      <trkpt lat="59.9856018" lon="17.7375034">
        <ele>24.651</ele>
        <time>2013-05-13T18:17:07Z</time>
      </trkpt>
      <trkpt lat="59.9855919" lon="17.7375421">
        <ele>24.651</ele>
        <time>2013-05-13T18:17:08Z</time>
      </trkpt>
      <trkpt lat="59.9855873" lon="17.7375804">
        <ele>24.1703</ele>
        <time>2013-05-13T18:17:09Z</time>
      </trkpt>
      <trkpt lat="59.9855878" lon="17.7376167">
        <ele>24.1703</ele>
        <time>2013-05-13T18:17:10Z</time>
      </trkpt>
      <trkpt lat="59.9855897" lon="17.7376623">
        <ele>23.6896</ele>
        <time>2013-05-13T18:17:11Z</time>
      </trkpt>
      <trkpt lat="59.9855935" lon="17.7377048">
        <ele>23.209</ele>
        <time>2013-05-13T18:17:12Z</time>
      </trkpt>
      <trkpt lat="59.985596" lon="17.7377479">
        <ele>23.209</ele>
        <time>2013-05-13T18:17:13Z</time>
      </trkpt>
      <trkpt lat="59.9855972" lon="17.737792">
        <ele>23.209</ele>
        <time>2013-05-13T18:17:14Z</time>
      </trkpt>
      <trkpt lat="59.9855975" lon="17.7378334">
        <ele>23.209</ele>
        <time>2013-05-13T18:17:15Z</time>
      </trkpt>
      <trkpt lat="59.9855968" lon="17.7378718">
        <ele>22.7283</ele>
        <time>2013-05-13T18:17:16Z</time>
      </trkpt>
      <trkpt lat="59.9855925" lon="17.7379035">
        <ele>22.7283</ele>
        <time>2013-05-13T18:17:17Z</time>
      </trkpt>
      <trkpt lat="59.9855843" lon="17.7379329">
        <ele>22.7283</ele>
        <time>2013-05-13T18:17:18Z</time>
      </trkpt>
      <trkpt lat="59.9855713" lon="17.7379658">
        <ele>22.7283</ele>
        <time>2013-05-13T18:17:19Z</time>
      </trkpt>
      <trkpt lat="59.9855571" lon="17.737998">
        <ele>22.2476</ele>
        <time>2013-05-13T18:17:20Z</time>
      </trkpt>
      <trkpt lat="59.9855384" lon="17.7380268">
        <ele>21.767</ele>
        <time>2013-05-13T18:17:21Z</time>
      </trkpt>
      <trkpt lat="59.985518" lon="17.7380487">
        <ele>21.767</ele>
        <time>2013-05-13T18:17:22Z</time>
      </trkpt>
      <trkpt lat="59.9854967" lon="17.7380632">
        <ele>21.767</ele>
        <time>2013-05-13T18:17:23Z</time>
      </trkpt>
      <trkpt lat="59.985475" lon="17.7380729">
        <ele>21.767</ele>
        <time>2013-05-13T18:17:24Z</time>
      </trkpt>
      <trkpt lat="59.9854546" lon="17.7380778">
        <ele>21.2864</ele>
        <time>2013-05-13T18:17:25Z</time>
      </trkpt>
      <trkpt lat="59.9854375" lon="17.7380868">
        <ele>21.767</ele>
        <time>2013-05-13T18:17:26Z</time>
      </trkpt>
      <trkpt lat="59.9854204" lon="17.738095">
        <ele>21.767</ele>
        <time>2013-05-13T18:17:27Z</time>
      </trkpt>
      <trkpt lat="59.9854033" lon="17.7380956">
        <ele>21.767</ele>
        <time>2013-05-13T18:17:28Z</time>
      </trkpt>
      <trkpt lat="59.9853831" lon="17.7380976">
        <ele>21.767</ele>
        <time>2013-05-13T18:17:29Z</time>
      </trkpt>
      <trkpt lat="59.9853639" lon="17.7380997">
        <ele>21.767</ele>
        <time>2013-05-13T18:17:30Z</time>
      </trkpt>
      <trkpt lat="59.9853445" lon="17.7381029">
        <ele>21.767</ele>
        <time>2013-05-13T18:17:31Z</time>
      </trkpt>
      <trkpt lat="59.9853257" lon="17.7381014">
        <ele>21.2864</ele>
        <time>2013-05-13T18:17:32Z</time>
      </trkpt>
      <trkpt lat="59.9853064" lon="17.7381012">
        <ele>21.2864</ele>
        <time>2013-05-13T18:17:33Z</time>
      </trkpt>
      <trkpt lat="59.9852862" lon="17.7381171">
        <ele>21.767</ele>
        <time>2013-05-13T18:17:34Z</time>
      </trkpt>
      <trkpt lat="59.9852656" lon="17.7381148">
        <ele>21.767</ele>
        <time>2013-05-13T18:17:35Z</time>
      </trkpt>
      <trkpt lat="59.9852465" lon="17.7381302">
        <ele>23.209</ele>
        <time>2013-05-13T18:17:36Z</time>
      </trkpt>
      <trkpt lat="59.9852309" lon="17.7381345">
        <ele>24.1703</ele>
        <time>2013-05-13T18:17:37Z</time>
      </trkpt>
      <trkpt lat="59.9852137" lon="17.7381432">
        <ele>25.1317</ele>
        <time>2013-05-13T18:17:38Z</time>
      </trkpt>
      <trkpt lat="59.9851958" lon="17.7381582">
        <ele>25.1317</ele>
        <time>2013-05-13T18:17:39Z</time>
      </trkpt>
      <trkpt lat="59.9851725" lon="17.7381743">
        <ele>25.6123</ele>
        <time>2013-05-13T18:17:40Z</time>
      </trkpt>
      <trkpt lat="59.9851491" lon="17.7381867">
        <ele>26.0929</ele>
        <time>2013-05-13T18:17:41Z</time>
      </trkpt>
      <trkpt lat="59.9851247" lon="17.738179">
        <ele>26.0929</ele>
        <time>2013-05-13T18:17:42Z</time>
      </trkpt>
      <trkpt lat="59.9851025" lon="17.7381845">
        <ele>26.5736</ele>
        <time>2013-05-13T18:17:43Z</time>
      </trkpt>
      <trkpt lat="59.9850873" lon="17.7381816">
        <ele>25.6123</ele>
        <time>2013-05-13T18:17:44Z</time>
      </trkpt>
      <trkpt lat="59.9850676" lon="17.7381938">
        <ele>25.6123</ele>
        <time>2013-05-13T18:17:45Z</time>
      </trkpt>
      <trkpt lat="59.9850468" lon="17.7381992">
        <ele>25.6123</ele>
        <time>2013-05-13T18:17:46Z</time>
      </trkpt>
      <trkpt lat="59.9850277" lon="17.7382012">
        <ele>25.6123</ele>
        <time>2013-05-13T18:17:47Z</time>
      </trkpt>
      <trkpt lat="59.9850103" lon="17.7382073">
        <ele>25.6123</ele>
        <time>2013-05-13T18:17:48Z</time>
      </trkpt>
      <trkpt lat="59.9849926" lon="17.7382074">
        <ele>25.1317</ele>
        <time>2013-05-13T18:17:49Z</time>
      </trkpt>
      <trkpt lat="59.9849739" lon="17.7382021">
        <ele>24.1703</ele>
        <time>2013-05-13T18:17:50Z</time>
      </trkpt>
      <trkpt lat="59.9849507" lon="17.738195">
        <ele>24.651</ele>
        <time>2013-05-13T18:17:51Z</time>
      </trkpt>
      <trkpt lat="59.9849327" lon="17.7381914">
        <ele>24.651</ele>
        <time>2013-05-13T18:17:52Z</time>
      </trkpt>
      <trkpt lat="59.9849082" lon="17.7381883">
        <ele>25.6123</ele>
        <time>2013-05-13T18:17:53Z</time>
      </trkpt>
      <trkpt lat="59.9848842" lon="17.7381949">
        <ele>25.1317</ele>
        <time>2013-05-13T18:17:54Z</time>
      </trkpt>
      <trkpt lat="59.9848502" lon="17.7381764">
        <ele>26.5736</ele>
        <time>2013-05-13T18:17:55Z</time>
      </trkpt>
      <trkpt lat="59.984828" lon="17.738166">
        <ele>26.0929</ele>
        <time>2013-05-13T18:17:56Z</time>
      </trkpt>
      <trkpt lat="59.9847937" lon="17.7381437">
        <ele>27.0543</ele>
        <time>2013-05-13T18:17:57Z</time>
      </trkpt>
      <trkpt lat="59.9847658" lon="17.7381152">
        <ele>27.0543</ele>
        <time>2013-05-13T18:17:58Z</time>
      </trkpt>
      <trkpt lat="59.9847418" lon="17.7380995">
        <ele>28.0155</ele>
        <time>2013-05-13T18:17:59Z</time>
      </trkpt>
      <trkpt lat="59.9847108" lon="17.7380862">
        <ele>28.4962</ele>
        <time>2013-05-13T18:18:00Z</time>
      </trkpt>
      <trkpt lat="59.9846807" lon="17.7380842">
        <ele>28.9769</ele>
        <time>2013-05-13T18:18:01Z</time>
      </trkpt>
      <trkpt lat="59.9846523" lon="17.7380753">
        <ele>29.4575</ele>
        <time>2013-05-13T18:18:02Z</time>
      </trkpt>
      <trkpt lat="59.9846264" lon="17.7380638">
        <ele>29.9381</ele>
        <time>2013-05-13T18:18:03Z</time>
      </trkpt>
      <trkpt lat="59.984597" lon="17.738052">
        <ele>30.4188</ele>
        <time>2013-05-13T18:18:04Z</time>
      </trkpt>
      <trkpt lat="59.9845732" lon="17.7380394">
        <ele>30.4188</ele>
        <time>2013-05-13T18:18:05Z</time>
      </trkpt>
      <trkpt lat="59.9845521" lon="17.7380304">
        <ele>30.4188</ele>
        <time>2013-05-13T18:18:06Z</time>
      </trkpt>
      <trkpt lat="59.9845269" lon="17.7380192">
        <ele>30.8995</ele>
        <time>2013-05-13T18:18:07Z</time>
      </trkpt>
      <trkpt lat="59.9845072" lon="17.7380101">
        <ele>30.8995</ele>
        <time>2013-05-13T18:18:08Z</time>
      </trkpt>
      <trkpt lat="59.9844854" lon="17.7380009">
        <ele>30.8995</ele>
        <time>2013-05-13T18:18:09Z</time>
      </trkpt>
      <trkpt lat="59.9844612" lon="17.7379836">
        <ele>31.3801</ele>
        <time>2013-05-13T18:18:10Z</time>
      </trkpt>
      <trkpt lat="59.9844309" lon="17.7379746">
        <ele>30.8995</ele>
        <time>2013-05-13T18:18:11Z</time>
      </trkpt>
      <trkpt lat="59.9843975" lon="17.7379702">
        <ele>31.3801</ele>
        <time>2013-05-13T18:18:12Z</time>
      </trkpt>
      <trkpt lat="59.9843694" lon="17.7379682">
        <ele>31.3801</ele>
        <time>2013-05-13T18:18:13Z</time>
      </trkpt>
      <trkpt lat="59.9843431" lon="17.7379635">
        <ele>30.8995</ele>
        <time>2013-05-13T18:18:14Z</time>
      </trkpt>
      <trkpt lat="59.984318" lon="17.7379658">
        <ele>31.3801</ele>
        <time>2013-05-13T18:18:15Z</time>
      </trkpt>
      <trkpt lat="59.9842932" lon="17.7379645">
        <ele>31.3801</ele>
        <time>2013-05-13T18:18:16Z</time>
      </trkpt>
      <trkpt lat="59.9842705" lon="17.7379609">
        <ele>31.3801</ele>
        <time>2013-05-13T18:18:17Z</time>
      </trkpt>
      <trkpt lat="59.984246" lon="17.7379539">
        <ele>31.3801</ele>
        <time>2013-05-13T18:18:18Z</time>
      </trkpt>
      <trkpt lat="59.9842151" lon="17.7379613">
        <ele>32.3416</ele>
        <time>2013-05-13T18:18:19Z</time>
      </trkpt>
      <trkpt lat="59.9841874" lon="17.737951">
        <ele>32.8223</ele>
        <time>2013-05-13T18:18:20Z</time>
      </trkpt>
      <trkpt lat="59.9841587" lon="17.737935">
        <ele>32.8223</ele>
        <time>2013-05-13T18:18:21Z</time>
      </trkpt>
      <trkpt lat="59.9841384" lon="17.7379292">
        <ele>32.8223</ele>
        <time>2013-05-13T18:18:22Z</time>
      </trkpt>
      <trkpt lat="59.9841146" lon="17.7379324">
        <ele>32.8223</ele>
        <time>2013-05-13T18:18:23Z</time>
      </trkpt>
      <trkpt lat="59.9840948" lon="17.7379231">
        <ele>32.3416</ele>
        <time>2013-05-13T18:18:24Z</time>
      </trkpt>
      <trkpt lat="59.984072" lon="17.7379205">
        <ele>31.8607</ele>
        <time>2013-05-13T18:18:25Z</time>
      </trkpt>
      <trkpt lat="59.9840492" lon="17.7379256">
        <ele>31.8607</ele>
        <time>2013-05-13T18:18:26Z</time>
      </trkpt>
      <trkpt lat="59.9840228" lon="17.737938">
        <ele>31.8607</ele>
        <time>2013-05-13T18:18:27Z</time>
      </trkpt>
      <trkpt lat="59.9839974" lon="17.7379408">
        <ele>31.8607</ele>
        <time>2013-05-13T18:18:28Z</time>
      </trkpt>
      <trkpt lat="59.9839721" lon="17.7379402">
        <ele>31.8607</ele>
        <time>2013-05-13T18:18:29Z</time>
      </trkpt>
      <trkpt lat="59.9839404" lon="17.7379434">
        <ele>31.8607</ele>
        <time>2013-05-13T18:18:30Z</time>
      </trkpt>
      <trkpt lat="59.9839103" lon="17.7379474">
        <ele>32.3416</ele>
        <time>2013-05-13T18:18:31Z</time>
      </trkpt>
      <trkpt lat="59.9838845" lon="17.7379418">
        <ele>32.8223</ele>
        <time>2013-05-13T18:18:32Z</time>
      </trkpt>
      <trkpt lat="59.9838582" lon="17.7379458">
        <ele>33.3029</ele>
        <time>2013-05-13T18:18:33Z</time>
      </trkpt>
      <trkpt lat="59.9838327" lon="17.7379593">
        <ele>33.3029</ele>
        <time>2013-05-13T18:18:34Z</time>
      </trkpt>
      <trkpt lat="59.9838063" lon="17.7379698">
        <ele>33.7834</ele>
        <time>2013-05-13T18:18:35Z</time>
      </trkpt>
      <trkpt lat="59.9837841" lon="17.737977">
        <ele>33.7834</ele>
        <time>2013-05-13T18:18:36Z</time>
      </trkpt>
      <trkpt lat="59.9837637" lon="17.7379826">
        <ele>33.7834</ele>
        <time>2013-05-13T18:18:37Z</time>
      </trkpt>
      <trkpt lat="59.9837399" lon="17.737986">
        <ele>33.7834</ele>
        <time>2013-05-13T18:18:38Z</time>
      </trkpt>
      <trkpt lat="59.98372" lon="17.7379899">
        <ele>34.2642</ele>
        <time>2013-05-13T18:18:39Z</time>
      </trkpt>
      <trkpt lat="59.9837006" lon="17.7379929">
        <ele>34.7449</ele>
        <time>2013-05-13T18:18:40Z</time>
      </trkpt>
      <trkpt lat="59.9836789" lon="17.7379995">
        <ele>34.7449</ele>
        <time>2013-05-13T18:18:41Z</time>
      </trkpt>
      <trkpt lat="59.9836565" lon="17.7380035">
        <ele>34.7449</ele>
        <time>2013-05-13T18:18:42Z</time>
      </trkpt>
      <trkpt lat="59.9836333" lon="17.738008">
        <ele>34.7449</ele>
        <time>2013-05-13T18:18:43Z</time>
      </trkpt>
      <trkpt lat="59.983606" lon="17.7380106">
        <ele>34.7449</ele>
        <time>2013-05-13T18:18:44Z</time>
      </trkpt>
      <trkpt lat="59.9835801" lon="17.7380132">
        <ele>34.7449</ele>
        <time>2013-05-13T18:18:45Z</time>
      </trkpt>
      <trkpt lat="59.9835561" lon="17.7380224">
        <ele>34.7449</ele>
        <time>2013-05-13T18:18:46Z</time>
      </trkpt>
      <trkpt lat="59.9835334" lon="17.7380259">
        <ele>34.7449</ele>
        <time>2013-05-13T18:18:47Z</time>
      </trkpt>
      <trkpt lat="59.9835097" lon="17.7380359">
        <ele>34.7449</ele>
        <time>2013-05-13T18:18:48Z</time>
      </trkpt>
      <trkpt lat="59.9834846" lon="17.7380484">
        <ele>34.7449</ele>
        <time>2013-05-13T18:18:49Z</time>
      </trkpt>
      <trkpt lat="59.9834638" lon="17.7380524">
        <ele>34.7449</ele>
        <time>2013-05-13T18:18:50Z</time>
      </trkpt>
      <trkpt lat="59.9834437" lon="17.7380448">
        <ele>34.7449</ele>
        <time>2013-05-13T18:18:51Z</time>
      </trkpt>
      <trkpt lat="59.9834236" lon="17.7380462">
        <ele>35.7061</ele>
        <time>2013-05-13T18:18:52Z</time>
      </trkpt>
      <trkpt lat="59.983405" lon="17.7380535">
        <ele>35.2255</ele>
        <time>2013-05-13T18:18:53Z</time>
      </trkpt>
      <trkpt lat="59.9833747" lon="17.7380795">
        <ele>37.1481</ele>
        <time>2013-05-13T18:18:54Z</time>
      </trkpt>
      <trkpt lat="59.9833526" lon="17.73808">
        <ele>37.1481</ele>
        <time>2013-05-13T18:18:55Z</time>
      </trkpt>
      <trkpt lat="59.9833334" lon="17.7380798">
        <ele>36.6675</ele>
        <time>2013-05-13T18:18:56Z</time>
      </trkpt>
      <trkpt lat="59.9833133" lon="17.7380821">
        <ele>36.1868</ele>
        <time>2013-05-13T18:18:57Z</time>
      </trkpt>
      <trkpt lat="59.9832908" lon="17.7380821">
        <ele>36.1868</ele>
        <time>2013-05-13T18:18:58Z</time>
      </trkpt>
      <trkpt lat="59.9832647" lon="17.7380799">
        <ele>36.1868</ele>
        <time>2013-05-13T18:18:59Z</time>
      </trkpt>
      <trkpt lat="59.9832417" lon="17.738081">
        <ele>36.1868</ele>
        <time>2013-05-13T18:19:00Z</time>
      </trkpt>
      <trkpt lat="59.98322" lon="17.7380909">
        <ele>36.1868</ele>
        <time>2013-05-13T18:19:01Z</time>
      </trkpt>
      <trkpt lat="59.9832003" lon="17.7380986">
        <ele>36.1868</ele>
        <time>2013-05-13T18:19:02Z</time>
      </trkpt>
      <trkpt lat="59.983178" lon="17.7381057">
        <ele>36.1868</ele>
        <time>2013-05-13T18:19:03Z</time>
      </trkpt>
      <trkpt lat="59.9831577" lon="17.7381132">
        <ele>36.1868</ele>
        <time>2013-05-13T18:19:04Z</time>
      </trkpt>
      <trkpt lat="59.983138" lon="17.7381158">
        <ele>36.1868</ele>
        <time>2013-05-13T18:19:05Z</time>
      </trkpt>
      <trkpt lat="59.9831214" lon="17.7381193">
        <ele>36.1868</ele>
        <time>2013-05-13T18:19:06Z</time>
      </trkpt>
      <trkpt lat="59.983097" lon="17.73814">
        <ele>37.6287</ele>
        <time>2013-05-13T18:19:07Z</time>
      </trkpt>
      <trkpt lat="59.9830782" lon="17.7381391">
        <ele>37.6287</ele>
        <time>2013-05-13T18:19:08Z</time>
      </trkpt>
      <trkpt lat="59.9830608" lon="17.7381386">
        <ele>37.6287</ele>
        <time>2013-05-13T18:19:09Z</time>
      </trkpt>
      <trkpt lat="59.9830387" lon="17.7381386">
        <ele>37.6287</ele>
        <time>2013-05-13T18:19:10Z</time>
      </trkpt>
      <trkpt lat="59.983019" lon="17.7381313">
        <ele>37.1481</ele>
        <time>2013-05-13T18:19:11Z</time>
      </trkpt>
      <trkpt lat="59.9830003" lon="17.7381257">
        <ele>37.1481</ele>
        <time>2013-05-13T18:19:12Z</time>
      </trkpt>
      <trkpt lat="59.9829813" lon="17.7381264">
        <ele>37.1481</ele>
        <time>2013-05-13T18:19:13Z</time>
      </trkpt>
      <trkpt lat="59.982963" lon="17.7381256">
        <ele>37.1481</ele>
        <time>2013-05-13T18:19:14Z</time>
      </trkpt>
      <trkpt lat="59.9829411" lon="17.7381257">
        <ele>36.1868</ele>
        <time>2013-05-13T18:19:15Z</time>
      </trkpt>
      <trkpt lat="59.9829186" lon="17.7381168">
        <ele>36.1868</ele>
        <time>2013-05-13T18:19:16Z</time>
      </trkpt>
      <trkpt lat="59.9828974" lon="17.7381078">
        <ele>35.7061</ele>
        <time>2013-05-13T18:19:17Z</time>
      </trkpt>
      <trkpt lat="59.9828759" lon="17.7381126">
        <ele>35.7061</ele>
        <time>2013-05-13T18:19:18Z</time>
      </trkpt>
      <trkpt lat="59.9828541" lon="17.7381143">
        <ele>36.6675</ele>
        <time>2013-05-13T18:19:19Z</time>
      </trkpt>
      <trkpt lat="59.9828294" lon="17.7381225">
        <ele>37.6287</ele>
        <time>2013-05-13T18:19:20Z</time>
      </trkpt>
      <trkpt lat="59.9828021" lon="17.7381292">
        <ele>38.1094</ele>
        <time>2013-05-13T18:19:21Z</time>
      </trkpt>
      <trkpt lat="59.982779" lon="17.7381246">
        <ele>37.6287</ele>
        <time>2013-05-13T18:19:22Z</time>
      </trkpt>
      <trkpt lat="59.9827564" lon="17.7381147">
        <ele>37.6287</ele>
        <time>2013-05-13T18:19:23Z</time>
      </trkpt>
      <trkpt lat="59.9827295" lon="17.7381075">
        <ele>38.1094</ele>
        <time>2013-05-13T18:19:24Z</time>
      </trkpt>
      <trkpt lat="59.9827065" lon="17.7381074">
        <ele>37.6287</ele>
        <time>2013-05-13T18:19:25Z</time>
      </trkpt>
      <trkpt lat="59.9826832" lon="17.7381033">
        <ele>37.6287</ele>
        <time>2013-05-13T18:19:26Z</time>
      </trkpt>
      <trkpt lat="59.98266" lon="17.7381007">
        <ele>37.6287</ele>
        <time>2013-05-13T18:19:27Z</time>
      </trkpt>
      <trkpt lat="59.9826366" lon="17.7381033">
        <ele>37.6287</ele>
        <time>2013-05-13T18:19:28Z</time>
      </trkpt>
      <trkpt lat="59.9826143" lon="17.7380945">
        <ele>37.6287</ele>
        <time>2013-05-13T18:19:29Z</time>
      </trkpt>
      <trkpt lat="59.9825901" lon="17.7380907">
        <ele>37.1481</ele>
        <time>2013-05-13T18:19:30Z</time>
      </trkpt>
      <trkpt lat="59.9825678" lon="17.7380867">
        <ele>37.1481</ele>
        <time>2013-05-13T18:19:31Z</time>
      </trkpt>
      <trkpt lat="59.9825449" lon="17.7380848">
        <ele>36.1868</ele>
        <time>2013-05-13T18:19:32Z</time>
      </trkpt>
      <trkpt lat="59.9825234" lon="17.7380846">
        <ele>35.7061</ele>
        <time>2013-05-13T18:19:33Z</time>
      </trkpt>
      <trkpt lat="59.9825055" lon="17.7380779">
        <ele>35.2255</ele>
        <time>2013-05-13T18:19:34Z</time>
      </trkpt>
      <trkpt lat="59.9824858" lon="17.7380712">
        <ele>35.2255</ele>
        <time>2013-05-13T18:19:35Z</time>
      </trkpt>
      <trkpt lat="59.9824635" lon="17.7380628">
        <ele>34.7449</ele>
        <time>2013-05-13T18:19:36Z</time>
      </trkpt>
      <trkpt lat="59.9824371" lon="17.7380531">
        <ele>34.2642</ele>
        <time>2013-05-13T18:19:37Z</time>
      </trkpt>
      <trkpt lat="59.9824125" lon="17.7380489">
        <ele>33.7834</ele>
        <time>2013-05-13T18:19:38Z</time>
      </trkpt>
      <trkpt lat="59.9823906" lon="17.7380531">
        <ele>33.3029</ele>
        <time>2013-05-13T18:19:39Z</time>
      </trkpt>
      <trkpt lat="59.9823646" lon="17.7380588">
        <ele>32.8223</ele>
        <time>2013-05-13T18:19:40Z</time>
      </trkpt>
      <trkpt lat="59.9823383" lon="17.7380582">
        <ele>32.3416</ele>
        <time>2013-05-13T18:19:41Z</time>
      </trkpt>
      <trkpt lat="59.9823138" lon="17.7380562">
        <ele>32.8223</ele>
        <time>2013-05-13T18:19:42Z</time>
      </trkpt>
      <trkpt lat="59.9822893" lon="17.7380606">
        <ele>32.3416</ele>
        <time>2013-05-13T18:19:43Z</time>
      </trkpt>
      <trkpt lat="59.9822644" lon="17.7380671">
        <ele>32.3416</ele>
        <time>2013-05-13T18:19:44Z</time>
      </trkpt>
      <trkpt lat="59.9822405" lon="17.7380762">
        <ele>31.8607</ele>
        <time>2013-05-13T18:19:45Z</time>
      </trkpt>
      <trkpt lat="59.9822143" lon="17.7380871">
        <ele>31.8607</ele>
        <time>2013-05-13T18:19:46Z</time>
      </trkpt>
      <trkpt lat="59.9821892" lon="17.738098">
        <ele>31.8607</ele>
        <time>2013-05-13T18:19:47Z</time>
      </trkpt>
      <trkpt lat="59.9821651" lon="17.7381023">
        <ele>31.8607</ele>
        <time>2013-05-13T18:19:48Z</time>
      </trkpt>
      <trkpt lat="59.9821409" lon="17.7381153">
        <ele>31.8607</ele>
        <time>2013-05-13T18:19:49Z</time>
      </trkpt>
      <trkpt lat="59.9821164" lon="17.7381285">
        <ele>31.8607</ele>
        <time>2013-05-13T18:19:50Z</time>
      </trkpt>
      <trkpt lat="59.9820909" lon="17.7381401">
        <ele>32.3416</ele>
        <time>2013-05-13T18:19:51Z</time>
      </trkpt>
      <trkpt lat="59.9820668" lon="17.738151">
        <ele>32.3416</ele>
        <time>2013-05-13T18:19:52Z</time>
      </trkpt>
      <trkpt lat="59.9820435" lon="17.7381639">
        <ele>32.3416</ele>
        <time>2013-05-13T18:19:53Z</time>
      </trkpt>
      <trkpt lat="59.9820186" lon="17.7381773">
        <ele>32.3416</ele>
        <time>2013-05-13T18:19:54Z</time>
      </trkpt>
      <trkpt lat="59.9819929" lon="17.7381929">
        <ele>32.8223</ele>
        <time>2013-05-13T18:19:55Z</time>
      </trkpt>
      <trkpt lat="59.9819698" lon="17.7382079">
        <ele>32.8223</ele>
        <time>2013-05-13T18:19:56Z</time>
      </trkpt>
      <trkpt lat="59.9819463" lon="17.7382197">
        <ele>32.8223</ele>
        <time>2013-05-13T18:19:57Z</time>
      </trkpt>
      <trkpt lat="59.9819227" lon="17.7382295">
        <ele>33.3029</ele>
        <time>2013-05-13T18:19:58Z</time>
      </trkpt>
      <trkpt lat="59.9819008" lon="17.7382414">
        <ele>33.7834</ele>
        <time>2013-05-13T18:19:59Z</time>
      </trkpt>
      <trkpt lat="59.9818779" lon="17.7382578">
        <ele>33.7834</ele>
        <time>2013-05-13T18:20:00Z</time>
      </trkpt>
      <trkpt lat="59.9818538" lon="17.7382739">
        <ele>34.2642</ele>
        <time>2013-05-13T18:20:01Z</time>
      </trkpt>
      <trkpt lat="59.9818323" lon="17.7382841">
        <ele>34.2642</ele>
        <time>2013-05-13T18:20:02Z</time>
      </trkpt>
      <trkpt lat="59.9818121" lon="17.7382935">
        <ele>34.7449</ele>
        <time>2013-05-13T18:20:03Z</time>
      </trkpt>
      <trkpt lat="59.9817898" lon="17.7383021">
        <ele>34.7449</ele>
        <time>2013-05-13T18:20:04Z</time>
      </trkpt>
      <trkpt lat="59.9817691" lon="17.7383058">
        <ele>35.2255</ele>
        <time>2013-05-13T18:20:05Z</time>
      </trkpt>
      <trkpt lat="59.9817494" lon="17.7383135">
        <ele>35.2255</ele>
        <time>2013-05-13T18:20:06Z</time>
      </trkpt>
      <trkpt lat="59.9817307" lon="17.7383202">
        <ele>35.2255</ele>
        <time>2013-05-13T18:20:07Z</time>
      </trkpt>
      <trkpt lat="59.9817108" lon="17.7383322">
        <ele>35.2255</ele>
        <time>2013-05-13T18:20:08Z</time>
      </trkpt>
      <trkpt lat="59.9816908" lon="17.7383367">
        <ele>35.2255</ele>
        <time>2013-05-13T18:20:09Z</time>
      </trkpt>
      <trkpt lat="59.9816682" lon="17.7383386">
        <ele>34.7449</ele>
        <time>2013-05-13T18:20:10Z</time>
      </trkpt>
      <trkpt lat="59.9816437" lon="17.7383421">
        <ele>34.7449</ele>
        <time>2013-05-13T18:20:11Z</time>
      </trkpt>
      <trkpt lat="59.9816163" lon="17.7383426">
        <ele>34.7449</ele>
        <time>2013-05-13T18:20:12Z</time>
      </trkpt>
      <trkpt lat="59.9815867" lon="17.7383507">
        <ele>34.7449</ele>
        <time>2013-05-13T18:20:13Z</time>
      </trkpt>
      <trkpt lat="59.9815588" lon="17.7383555">
        <ele>34.7449</ele>
        <time>2013-05-13T18:20:14Z</time>
      </trkpt>
      <trkpt lat="59.9815349" lon="17.738365">
        <ele>34.7449</ele>
        <time>2013-05-13T18:20:15Z</time>
      </trkpt>
      <trkpt lat="59.9815145" lon="17.7383748">
        <ele>34.2642</ele>
        <time>2013-05-13T18:20:16Z</time>
      </trkpt>
      <trkpt lat="59.9814957" lon="17.7383893">
        <ele>33.7834</ele>
        <time>2013-05-13T18:20:17Z</time>
      </trkpt>
      <trkpt lat="59.9814751" lon="17.7383961">
        <ele>33.3029</ele>
        <time>2013-05-13T18:20:18Z</time>
      </trkpt>
      <trkpt lat="59.9814527" lon="17.7384089">
        <ele>33.3029</ele>
        <time>2013-05-13T18:20:19Z</time>
      </trkpt>
      <trkpt lat="59.9814299" lon="17.7384219">
        <ele>32.8223</ele>
        <time>2013-05-13T18:20:20Z</time>
      </trkpt>
      <trkpt lat="59.9814074" lon="17.7384343">
        <ele>33.3029</ele>
        <time>2013-05-13T18:20:21Z</time>
      </trkpt>
      <trkpt lat="59.9813887" lon="17.7384503">
        <ele>33.3029</ele>
        <time>2013-05-13T18:20:22Z</time>
      </trkpt>
      <trkpt lat="59.9813676" lon="17.7384602">
        <ele>33.3029</ele>
        <time>2013-05-13T18:20:23Z</time>
      </trkpt>
      <trkpt lat="59.9813425" lon="17.7384742">
        <ele>33.7834</ele>
        <time>2013-05-13T18:20:24Z</time>
      </trkpt>
      <trkpt lat="59.9813174" lon="17.7384763">
        <ele>33.3029</ele>
        <time>2013-05-13T18:20:25Z</time>
      </trkpt>
      <trkpt lat="59.9812918" lon="17.7384735">
        <ele>33.3029</ele>
        <time>2013-05-13T18:20:26Z</time>
      </trkpt>
      <trkpt lat="59.9812594" lon="17.7384895">
        <ele>34.7449</ele>
        <time>2013-05-13T18:20:27Z</time>
      </trkpt>
      <trkpt lat="59.9812366" lon="17.7384913">
        <ele>34.7449</ele>
        <time>2013-05-13T18:20:28Z</time>
      </trkpt>
      <trkpt lat="59.9812102" lon="17.7384908">
        <ele>35.2255</ele>
        <time>2013-05-13T18:20:29Z</time>
      </trkpt>
      <trkpt lat="59.9811863" lon="17.7384932">
        <ele>34.7449</ele>
        <time>2013-05-13T18:20:30Z</time>
      </trkpt>
      <trkpt lat="59.9811638" lon="17.7385037">
        <ele>34.7449</ele>
        <time>2013-05-13T18:20:31Z</time>
      </trkpt>
      <trkpt lat="59.9811417" lon="17.7385135">
        <ele>34.2642</ele>
        <time>2013-05-13T18:20:32Z</time>
      </trkpt>
      <trkpt lat="59.9811177" lon="17.7385181">
        <ele>33.7834</ele>
        <time>2013-05-13T18:20:33Z</time>
      </trkpt>
      <trkpt lat="59.98109" lon="17.7385198">
        <ele>33.3029</ele>
        <time>2013-05-13T18:20:34Z</time>
      </trkpt>
      <trkpt lat="59.9810673" lon="17.7385214">
        <ele>32.8223</ele>
        <time>2013-05-13T18:20:35Z</time>
      </trkpt>
      <trkpt lat="59.981044" lon="17.7385311">
        <ele>32.3416</ele>
        <time>2013-05-13T18:20:36Z</time>
      </trkpt>
      <trkpt lat="59.9810185" lon="17.7385424">
        <ele>32.3416</ele>
        <time>2013-05-13T18:20:37Z</time>
      </trkpt>
      <trkpt lat="59.9809929" lon="17.7385494">
        <ele>31.3801</ele>
        <time>2013-05-13T18:20:38Z</time>
      </trkpt>
      <trkpt lat="59.9809694" lon="17.738554">
        <ele>30.8995</ele>
        <time>2013-05-13T18:20:39Z</time>
      </trkpt>
      <trkpt lat="59.9809459" lon="17.7385561">
        <ele>30.8995</ele>
        <time>2013-05-13T18:20:40Z</time>
      </trkpt>
      <trkpt lat="59.9809252" lon="17.7385679">
        <ele>30.4188</ele>
        <time>2013-05-13T18:20:41Z</time>
      </trkpt>
      <trkpt lat="59.9809027" lon="17.7385803">
        <ele>30.4188</ele>
        <time>2013-05-13T18:20:42Z</time>
      </trkpt>
      <trkpt lat="59.9808779" lon="17.7385856">
        <ele>29.9381</ele>
        <time>2013-05-13T18:20:43Z</time>
      </trkpt>
      <trkpt lat="59.9808542" lon="17.7385926">
        <ele>29.9381</ele>
        <time>2013-05-13T18:20:44Z</time>
      </trkpt>
      <trkpt lat="59.9808342" lon="17.738602">
        <ele>29.4575</ele>
        <time>2013-05-13T18:20:45Z</time>
      </trkpt>
      <trkpt lat="59.9808086" lon="17.7386154">
        <ele>29.4575</ele>
        <time>2013-05-13T18:20:46Z</time>
      </trkpt>
      <trkpt lat="59.9807844" lon="17.7386232">
        <ele>28.9769</ele>
        <time>2013-05-13T18:20:47Z</time>
      </trkpt>
      <trkpt lat="59.9807658" lon="17.7386379">
        <ele>28.9769</ele>
        <time>2013-05-13T18:20:48Z</time>
      </trkpt>
      <trkpt lat="59.9807438" lon="17.7386488">
        <ele>28.9769</ele>
        <time>2013-05-13T18:20:49Z</time>
      </trkpt>
      <trkpt lat="59.9807175" lon="17.7386563">
        <ele>28.4962</ele>
        <time>2013-05-13T18:20:50Z</time>
      </trkpt>
      <trkpt lat="59.9806914" lon="17.738658">
        <ele>28.9769</ele>
        <time>2013-05-13T18:20:51Z</time>
      </trkpt>
      <trkpt lat="59.9806642" lon="17.7386624">
        <ele>28.9769</ele>
        <time>2013-05-13T18:20:52Z</time>
      </trkpt>
      <trkpt lat="59.9806432" lon="17.7386663">
        <ele>28.9769</ele>
        <time>2013-05-13T18:20:53Z</time>
      </trkpt>
      <trkpt lat="59.9806248" lon="17.7386681">
        <ele>28.9769</ele>
        <time>2013-05-13T18:20:54Z</time>
      </trkpt>
      <trkpt lat="59.980607" lon="17.738668">
        <ele>29.4575</ele>
        <time>2013-05-13T18:20:55Z</time>
      </trkpt>
      <trkpt lat="59.98059" lon="17.7386628">
        <ele>29.9381</ele>
        <time>2013-05-13T18:20:56Z</time>
      </trkpt>
      <trkpt lat="59.980571" lon="17.7386606">
        <ele>29.9381</ele>
        <time>2013-05-13T18:20:57Z</time>
      </trkpt>
      <trkpt lat="59.9805445" lon="17.7386668">
        <ele>30.4188</ele>
        <time>2013-05-13T18:20:58Z</time>
      </trkpt>
      <trkpt lat="59.9805196" lon="17.7386654">
        <ele>30.4188</ele>
        <time>2013-05-13T18:20:59Z</time>
      </trkpt>
      <trkpt lat="59.9804925" lon="17.7386704">
        <ele>29.9381</ele>
        <time>2013-05-13T18:21:00Z</time>
      </trkpt>
      <trkpt lat="59.980465" lon="17.7386807">
        <ele>29.9381</ele>
        <time>2013-05-13T18:21:01Z</time>
      </trkpt>
      <trkpt lat="59.9804392" lon="17.7386872">
        <ele>29.9381</ele>
        <time>2013-05-13T18:21:02Z</time>
      </trkpt>
      <trkpt lat="59.9804146" lon="17.7386845">
        <ele>29.9381</ele>
        <time>2013-05-13T18:21:03Z</time>
      </trkpt>
      <trkpt lat="59.9803925" lon="17.7386706">
        <ele>29.9381</ele>
        <time>2013-05-13T18:21:04Z</time>
      </trkpt>
      <trkpt lat="59.9803736" lon="17.7386644">
        <ele>29.9381</ele>
        <time>2013-05-13T18:21:05Z</time>
      </trkpt>
      <trkpt lat="59.9803563" lon="17.7386566">
        <ele>29.9381</ele>
        <time>2013-05-13T18:21:06Z</time>
      </trkpt>
      <trkpt lat="59.9803306" lon="17.7386566">
        <ele>29.4575</ele>
        <time>2013-05-13T18:21:07Z</time>
      </trkpt>
      <trkpt lat="59.9803045" lon="17.7386611">
        <ele>28.9769</ele>
        <time>2013-05-13T18:21:08Z</time>
      </trkpt>
      <trkpt lat="59.9802777" lon="17.7386589">
        <ele>28.4962</ele>
        <time>2013-05-13T18:21:09Z</time>
      </trkpt>
      <trkpt lat="59.9802526" lon="17.7386563">
        <ele>28.0155</ele>
        <time>2013-05-13T18:21:10Z</time>
      </trkpt>
      <trkpt lat="59.9802288" lon="17.7386579">
        <ele>27.5349</ele>
        <time>2013-05-13T18:21:11Z</time>
      </trkpt>
      <trkpt lat="59.9802038" lon="17.7386555">
        <ele>27.5349</ele>
        <time>2013-05-13T18:21:12Z</time>
      </trkpt>
      <trkpt lat="59.9801786" lon="17.7386498">
        <ele>27.0543</ele>
        <time>2013-05-13T18:21:13Z</time>
      </trkpt>
      <trkpt lat="59.9801507" lon="17.7386446">
        <ele>27.0543</ele>
        <time>2013-05-13T18:21:14Z</time>
      </trkpt>
      <trkpt lat="59.9801242" lon="17.7386415">
        <ele>27.5349</ele>
        <time>2013-05-13T18:21:15Z</time>
      </trkpt>
      <trkpt lat="59.9800984" lon="17.7386398">
        <ele>27.5349</ele>
        <time>2013-05-13T18:21:16Z</time>
      </trkpt>
      <trkpt lat="59.9800731" lon="17.7386383">
        <ele>27.0543</ele>
        <time>2013-05-13T18:21:17Z</time>
      </trkpt>
      <trkpt lat="59.9800432" lon="17.7386545">
        <ele>28.4962</ele>
        <time>2013-05-13T18:21:18Z</time>
      </trkpt>
      <trkpt lat="59.9800181" lon="17.73866">
        <ele>28.0155</ele>
        <time>2013-05-13T18:21:19Z</time>
      </trkpt>
      <trkpt lat="59.9799913" lon="17.7386721">
        <ele>28.4962</ele>
        <time>2013-05-13T18:21:20Z</time>
      </trkpt>
      <trkpt lat="59.9799662" lon="17.7386793">
        <ele>28.9769</ele>
        <time>2013-05-13T18:21:21Z</time>
      </trkpt>
      <trkpt lat="59.9799387" lon="17.7386845">
        <ele>29.4575</ele>
        <time>2013-05-13T18:21:22Z</time>
      </trkpt>
      <trkpt lat="59.9799128" lon="17.7387006">
        <ele>29.9381</ele>
        <time>2013-05-13T18:21:23Z</time>
      </trkpt>
      <trkpt lat="59.9798916" lon="17.7387171">
        <ele>29.9381</ele>
        <time>2013-05-13T18:21:24Z</time>
      </trkpt>
      <trkpt lat="59.9798638" lon="17.7387313">
        <ele>30.4188</ele>
        <time>2013-05-13T18:21:25Z</time>
      </trkpt>
      <trkpt lat="59.9798369" lon="17.7387389">
        <ele>31.3801</ele>
        <time>2013-05-13T18:21:26Z</time>
      </trkpt>
      <trkpt lat="59.9798142" lon="17.7387476">
        <ele>32.3416</ele>
        <time>2013-05-13T18:21:27Z</time>
      </trkpt>
      <trkpt lat="59.9797916" lon="17.7387616">
        <ele>32.8223</ele>
        <time>2013-05-13T18:21:28Z</time>
      </trkpt>
      <trkpt lat="59.9797701" lon="17.7387673">
        <ele>33.3029</ele>
        <time>2013-05-13T18:21:29Z</time>
      </trkpt>
      <trkpt lat="59.9797463" lon="17.7387755">
        <ele>33.7834</ele>
        <time>2013-05-13T18:21:30Z</time>
      </trkpt>
      <trkpt lat="59.9797217" lon="17.7387856">
        <ele>34.2642</ele>
        <time>2013-05-13T18:21:31Z</time>
      </trkpt>
      <trkpt lat="59.9796971" lon="17.7387903">
        <ele>34.2642</ele>
        <time>2013-05-13T18:21:32Z</time>
      </trkpt>
      <trkpt lat="59.9796757" lon="17.738796">
        <ele>34.2642</ele>
        <time>2013-05-13T18:21:33Z</time>
      </trkpt>
      <trkpt lat="59.9796541" lon="17.7388083">
        <ele>34.7449</ele>
        <time>2013-05-13T18:21:34Z</time>
      </trkpt>
      <trkpt lat="59.9796307" lon="17.7388223">
        <ele>35.2255</ele>
        <time>2013-05-13T18:21:35Z</time>
      </trkpt>
      <trkpt lat="59.9796064" lon="17.73884">
        <ele>35.2255</ele>
        <time>2013-05-13T18:21:36Z</time>
      </trkpt>
      <trkpt lat="59.9795819" lon="17.7388565">
        <ele>35.2255</ele>
        <time>2013-05-13T18:21:37Z</time>
      </trkpt>
      <trkpt lat="59.9795551" lon="17.7388719">
        <ele>35.7061</ele>
        <time>2013-05-13T18:21:38Z</time>
      </trkpt>
      <trkpt lat="59.9795292" lon="17.738885">
        <ele>35.7061</ele>
        <time>2013-05-13T18:21:39Z</time>
      </trkpt>
      <trkpt lat="59.9795062" lon="17.7388959">
        <ele>35.2255</ele>
        <time>2013-05-13T18:21:40Z</time>
      </trkpt>
      <trkpt lat="59.9794857" lon="17.7389092">
        <ele>34.7449</ele>
        <time>2013-05-13T18:21:41Z</time>
      </trkpt>
      <trkpt lat="59.9794679" lon="17.7389257">
        <ele>34.7449</ele>
        <time>2013-05-13T18:21:42Z</time>
      </trkpt>
      <trkpt lat="59.9794513" lon="17.7389472">
        <ele>34.2642</ele>
        <time>2013-05-13T18:21:43Z</time>
      </trkpt>
      <trkpt lat="59.9794297" lon="17.7389719">
        <ele>34.2642</ele>
        <time>2013-05-13T18:21:44Z</time>
      </trkpt>
      <trkpt lat="59.9794048" lon="17.7389938">
        <ele>34.2642</ele>
        <time>2013-05-13T18:21:45Z</time>
      </trkpt>
      <trkpt lat="59.9793772" lon="17.7390122">
        <ele>34.2642</ele>
        <time>2013-05-13T18:21:46Z</time>
      </trkpt>
      <trkpt lat="59.979348" lon="17.7390288">
        <ele>34.2642</ele>
        <time>2013-05-13T18:21:47Z</time>
      </trkpt>
      <trkpt lat="59.979321" lon="17.7390451">
        <ele>34.7449</ele>
        <time>2013-05-13T18:21:48Z</time>
      </trkpt>
      <trkpt lat="59.9792944" lon="17.7390637">
        <ele>34.7449</ele>
        <time>2013-05-13T18:21:49Z</time>
      </trkpt>
      <trkpt lat="59.9792692" lon="17.7390773">
        <ele>34.7449</ele>
        <time>2013-05-13T18:21:50Z</time>
      </trkpt>
      <trkpt lat="59.979246" lon="17.7390887">
        <ele>34.7449</ele>
        <time>2013-05-13T18:21:51Z</time>
      </trkpt>
      <trkpt lat="59.9792231" lon="17.7391042">
        <ele>35.2255</ele>
        <time>2013-05-13T18:21:52Z</time>
      </trkpt>
      <trkpt lat="59.9792034" lon="17.7391181">
        <ele>34.7449</ele>
        <time>2013-05-13T18:21:53Z</time>
      </trkpt>
      <trkpt lat="59.979182" lon="17.7391342">
        <ele>34.7449</ele>
        <time>2013-05-13T18:21:54Z</time>
      </trkpt>
      <trkpt lat="59.9791583" lon="17.7391488">
        <ele>35.2255</ele>
        <time>2013-05-13T18:21:55Z</time>
      </trkpt>
      <trkpt lat="59.9791343" lon="17.7391624">
        <ele>35.2255</ele>
        <time>2013-05-13T18:21:56Z</time>
      </trkpt>
      <trkpt lat="59.9791095" lon="17.7391777">
        <ele>35.2255</ele>
        <time>2013-05-13T18:21:57Z</time>
      </trkpt>
      <trkpt lat="59.9790843" lon="17.7391914">
        <ele>35.2255</ele>
        <time>2013-05-13T18:21:58Z</time>
      </trkpt>
      <trkpt lat="59.9790595" lon="17.7392067">
        <ele>35.2255</ele>
        <time>2013-05-13T18:21:59Z</time>
      </trkpt>
      <trkpt lat="59.9790329" lon="17.7392201">
        <ele>35.2255</ele>
        <time>2013-05-13T18:22:00Z</time>
      </trkpt>
      <trkpt lat="59.9790043" lon="17.7392258">
        <ele>35.2255</ele>
        <time>2013-05-13T18:22:01Z</time>
      </trkpt>
      <trkpt lat="59.9789791" lon="17.7392247">
        <ele>35.2255</ele>
        <time>2013-05-13T18:22:02Z</time>
      </trkpt>
      <trkpt lat="59.9789574" lon="17.7392269">
        <ele>34.7449</ele>
        <time>2013-05-13T18:22:03Z</time>
      </trkpt>
      <trkpt lat="59.9789376" lon="17.7392265">
        <ele>34.7449</ele>
        <time>2013-05-13T18:22:04Z</time>
      </trkpt>
      <trkpt lat="59.9789141" lon="17.7392179">
        <ele>34.7449</ele>
        <time>2013-05-13T18:22:05Z</time>
      </trkpt>
      <trkpt lat="59.9788862" lon="17.7392107">
        <ele>34.2642</ele>
        <time>2013-05-13T18:22:06Z</time>
      </trkpt>
      <trkpt lat="59.9788609" lon="17.7392098">
        <ele>33.7834</ele>
        <time>2013-05-13T18:22:07Z</time>
      </trkpt>
      <trkpt lat="59.9788403" lon="17.7392091">
        <ele>33.7834</ele>
        <time>2013-05-13T18:22:08Z</time>
      </trkpt>
      <trkpt lat="59.978819" lon="17.7392044">
        <ele>33.7834</ele>
        <time>2013-05-13T18:22:09Z</time>
      </trkpt>
      <trkpt lat="59.9788001" lon="17.7392031">
        <ele>33.7834</ele>
        <time>2013-05-13T18:22:10Z</time>
      </trkpt>
      <trkpt lat="59.9787846" lon="17.7392051">
        <ele>33.7834</ele>
        <time>2013-05-13T18:22:11Z</time>
      </trkpt>
      <trkpt lat="59.9787631" lon="17.7392056">
        <ele>33.7834</ele>
        <time>2013-05-13T18:22:12Z</time>
      </trkpt>
      <trkpt lat="59.9787404" lon="17.7391975">
        <ele>33.3029</ele>
        <time>2013-05-13T18:22:13Z</time>
      </trkpt>
      <trkpt lat="59.9787196" lon="17.7391914">
        <ele>32.8223</ele>
        <time>2013-05-13T18:22:14Z</time>
      </trkpt>
      <trkpt lat="59.9786881" lon="17.7392086">
        <ele>33.7834</ele>
        <time>2013-05-13T18:22:15Z</time>
      </trkpt>
      <trkpt lat="59.9786624" lon="17.7392041">
        <ele>34.2642</ele>
        <time>2013-05-13T18:22:16Z</time>
      </trkpt>
      <trkpt lat="59.9786404" lon="17.7392041">
        <ele>34.7449</ele>
        <time>2013-05-13T18:22:17Z</time>
      </trkpt>
      <trkpt lat="59.9786216" lon="17.7392122">
        <ele>35.7061</ele>
        <time>2013-05-13T18:22:18Z</time>
      </trkpt>
      <trkpt lat="59.9786021" lon="17.7392185">
        <ele>36.1868</ele>
        <time>2013-05-13T18:22:19Z</time>
      </trkpt>
      <trkpt lat="59.9785812" lon="17.7392238">
        <ele>36.1868</ele>
        <time>2013-05-13T18:22:20Z</time>
      </trkpt>
      <trkpt lat="59.9785591" lon="17.7392325">
        <ele>36.1868</ele>
        <time>2013-05-13T18:22:21Z</time>
      </trkpt>
      <trkpt lat="59.9785383" lon="17.7392351">
        <ele>37.1481</ele>
        <time>2013-05-13T18:22:22Z</time>
      </trkpt>
      <trkpt lat="59.9785194" lon="17.7392321">
        <ele>37.6287</ele>
        <time>2013-05-13T18:22:23Z</time>
      </trkpt>
      <trkpt lat="59.9784969" lon="17.7392358">
        <ele>37.1481</ele>
        <time>2013-05-13T18:22:24Z</time>
      </trkpt>
      <trkpt lat="59.9784719" lon="17.7392348">
        <ele>36.6675</ele>
        <time>2013-05-13T18:22:25Z</time>
      </trkpt>
      <trkpt lat="59.9784451" lon="17.73923">
        <ele>36.1868</ele>
        <time>2013-05-13T18:22:26Z</time>
      </trkpt>
      <trkpt lat="59.9784211" lon="17.7392278">
        <ele>36.1868</ele>
        <time>2013-05-13T18:22:27Z</time>
      </trkpt>
      <trkpt lat="59.9783958" lon="17.7392242">
        <ele>36.1868</ele>
        <time>2013-05-13T18:22:28Z</time>
      </trkpt>
      <trkpt lat="59.9783725" lon="17.7392192">
        <ele>35.7061</ele>
        <time>2013-05-13T18:22:29Z</time>
      </trkpt>
      <trkpt lat="59.9783469" lon="17.7392248">
        <ele>36.1868</ele>
        <time>2013-05-13T18:22:30Z</time>
      </trkpt>
      <trkpt lat="59.9783172" lon="17.7392259">
        <ele>36.1868</ele>
        <time>2013-05-13T18:22:31Z</time>
      </trkpt>
      <trkpt lat="59.978287" lon="17.7392218">
        <ele>35.7061</ele>
        <time>2013-05-13T18:22:32Z</time>
      </trkpt>
      <trkpt lat="59.97826" lon="17.7392196">
        <ele>36.1868</ele>
        <time>2013-05-13T18:22:33Z</time>
      </trkpt>
      <trkpt lat="59.9782337" lon="17.7392311">
        <ele>36.1868</ele>
        <time>2013-05-13T18:22:34Z</time>
      </trkpt>
      <trkpt lat="59.9782087" lon="17.7392326">
        <ele>36.1868</ele>
        <time>2013-05-13T18:22:35Z</time>
      </trkpt>
      <trkpt lat="59.978183" lon="17.7392201">
        <ele>35.7061</ele>
        <time>2013-05-13T18:22:36Z</time>
      </trkpt>
      <trkpt lat="59.9781592" lon="17.7392058">
        <ele>35.7061</ele>
        <time>2013-05-13T18:22:37Z</time>
      </trkpt>
      <trkpt lat="59.9781374" lon="17.7391914">
        <ele>35.7061</ele>
        <time>2013-05-13T18:22:38Z</time>
      </trkpt>
      <trkpt lat="59.9781176" lon="17.7391829">
        <ele>35.7061</ele>
        <time>2013-05-13T18:22:39Z</time>
      </trkpt>
      <trkpt lat="59.9780947" lon="17.739175">
        <ele>35.7061</ele>
        <time>2013-05-13T18:22:40Z</time>
      </trkpt>
      <trkpt lat="59.9780715" lon="17.7391646">
        <ele>35.2255</ele>
        <time>2013-05-13T18:22:41Z</time>
      </trkpt>
      <trkpt lat="59.9780498" lon="17.7391483">
        <ele>35.2255</ele>
        <time>2013-05-13T18:22:42Z</time>
      </trkpt>
      <trkpt lat="59.9780296" lon="17.7391336">
        <ele>34.7449</ele>
        <time>2013-05-13T18:22:43Z</time>
      </trkpt>
      <trkpt lat="59.9780093" lon="17.7391217">
        <ele>33.7834</ele>
        <time>2013-05-13T18:22:44Z</time>
      </trkpt>
      <trkpt lat="59.9779886" lon="17.7391117">
        <ele>33.7834</ele>
        <time>2013-05-13T18:22:45Z</time>
      </trkpt>
      <trkpt lat="59.9779691" lon="17.7391042">
        <ele>33.3029</ele>
        <time>2013-05-13T18:22:46Z</time>
      </trkpt>
      <trkpt lat="59.9779486" lon="17.7390947">
        <ele>32.8223</ele>
        <time>2013-05-13T18:22:47Z</time>
      </trkpt>
      <trkpt lat="59.9779254" lon="17.7390824">
        <ele>32.8223</ele>
        <time>2013-05-13T18:22:48Z</time>
      </trkpt>
      <trkpt lat="59.9779059" lon="17.7390721">
        <ele>32.8223</ele>
        <time>2013-05-13T18:22:49Z</time>
      </trkpt>
      <trkpt lat="59.9778871" lon="17.7390647">
        <ele>32.3416</ele>
        <time>2013-05-13T18:22:50Z</time>
      </trkpt>
      <trkpt lat="59.9778623" lon="17.7390579">
        <ele>32.3416</ele>
        <time>2013-05-13T18:22:51Z</time>
      </trkpt>
      <trkpt lat="59.9778358" lon="17.739046">
        <ele>32.8223</ele>
        <time>2013-05-13T18:22:52Z</time>
      </trkpt>
      <trkpt lat="59.9778131" lon="17.7390352">
        <ele>32.3416</ele>
        <time>2013-05-13T18:22:53Z</time>
      </trkpt>
      <trkpt lat="59.9777892" lon="17.7390255">
        <ele>32.3416</ele>
        <time>2013-05-13T18:22:54Z</time>
      </trkpt>
      <trkpt lat="59.9777648" lon="17.7390162">
        <ele>32.8223</ele>
        <time>2013-05-13T18:22:55Z</time>
      </trkpt>
      <trkpt lat="59.9777404" lon="17.7390079">
        <ele>32.8223</ele>
        <time>2013-05-13T18:22:56Z</time>
      </trkpt>
      <trkpt lat="59.9777173" lon="17.7389991">
        <ele>32.8223</ele>
        <time>2013-05-13T18:22:57Z</time>
      </trkpt>
      <trkpt lat="59.9776923" lon="17.7389979">
        <ele>32.8223</ele>
        <time>2013-05-13T18:22:58Z</time>
      </trkpt>
      <trkpt lat="59.9776662" lon="17.7389982">
        <ele>32.8223</ele>
        <time>2013-05-13T18:22:59Z</time>
      </trkpt>
      <trkpt lat="59.9776406" lon="17.738997">
        <ele>32.8223</ele>
        <time>2013-05-13T18:23:00Z</time>
      </trkpt>
      <trkpt lat="59.9776147" lon="17.7389995">
        <ele>32.3416</ele>
        <time>2013-05-13T18:23:01Z</time>
      </trkpt>
      <trkpt lat="59.9775867" lon="17.739006">
        <ele>32.3416</ele>
        <time>2013-05-13T18:23:02Z</time>
      </trkpt>
      <trkpt lat="59.9775587" lon="17.7390104">
        <ele>32.3416</ele>
        <time>2013-05-13T18:23:03Z</time>
      </trkpt>
      <trkpt lat="59.9775338" lon="17.7390139">
        <ele>31.8607</ele>
        <time>2013-05-13T18:23:04Z</time>
      </trkpt>
      <trkpt lat="59.9775079" lon="17.7390211">
        <ele>31.8607</ele>
        <time>2013-05-13T18:23:05Z</time>
      </trkpt>
      <trkpt lat="59.9774815" lon="17.7390264">
        <ele>31.8607</ele>
        <time>2013-05-13T18:23:06Z</time>
      </trkpt>
      <trkpt lat="59.9774562" lon="17.7390351">
        <ele>31.3801</ele>
        <time>2013-05-13T18:23:07Z</time>
      </trkpt>
      <trkpt lat="59.9774316" lon="17.7390457">
        <ele>31.3801</ele>
        <time>2013-05-13T18:23:08Z</time>
      </trkpt>
      <trkpt lat="59.9774048" lon="17.7390528">
        <ele>31.3801</ele>
        <time>2013-05-13T18:23:09Z</time>
      </trkpt>
      <trkpt lat="59.9773785" lon="17.7390622">
        <ele>31.3801</ele>
        <time>2013-05-13T18:23:10Z</time>
      </trkpt>
      <trkpt lat="59.9773549" lon="17.739078">
        <ele>30.8995</ele>
        <time>2013-05-13T18:23:11Z</time>
      </trkpt>
      <trkpt lat="59.9773301" lon="17.739092">
        <ele>30.8995</ele>
        <time>2013-05-13T18:23:12Z</time>
      </trkpt>
      <trkpt lat="59.9773064" lon="17.7391052">
        <ele>30.8995</ele>
        <time>2013-05-13T18:23:13Z</time>
      </trkpt>
      <trkpt lat="59.9772836" lon="17.7391228">
        <ele>30.4188</ele>
        <time>2013-05-13T18:23:14Z</time>
      </trkpt>
      <trkpt lat="59.9772602" lon="17.7391405">
        <ele>29.9381</ele>
        <time>2013-05-13T18:23:15Z</time>
      </trkpt>
      <trkpt lat="59.9772347" lon="17.7391568">
        <ele>29.9381</ele>
        <time>2013-05-13T18:23:16Z</time>
      </trkpt>
      <trkpt lat="59.977209" lon="17.7391766">
        <ele>29.9381</ele>
        <time>2013-05-13T18:23:17Z</time>
      </trkpt>
      <trkpt lat="59.9771831" lon="17.7391938">
        <ele>29.9381</ele>
        <time>2013-05-13T18:23:18Z</time>
      </trkpt>
      <trkpt lat="59.9771592" lon="17.7392101">
        <ele>29.9381</ele>
        <time>2013-05-13T18:23:19Z</time>
      </trkpt>
      <trkpt lat="59.9771356" lon="17.7392251">
        <ele>30.4188</ele>
        <time>2013-05-13T18:23:20Z</time>
      </trkpt>
      <trkpt lat="59.9771114" lon="17.7392414">
        <ele>29.9381</ele>
        <time>2013-05-13T18:23:21Z</time>
      </trkpt>
      <trkpt lat="59.9770878" lon="17.7392539">
        <ele>29.4575</ele>
        <time>2013-05-13T18:23:22Z</time>
      </trkpt>
      <trkpt lat="59.9770655" lon="17.7392717">
        <ele>29.4575</ele>
        <time>2013-05-13T18:23:23Z</time>
      </trkpt>
      <trkpt lat="59.9770416" lon="17.7392843">
        <ele>29.4575</ele>
        <time>2013-05-13T18:23:24Z</time>
      </trkpt>
      <trkpt lat="59.9770173" lon="17.7392945">
        <ele>29.4575</ele>
        <time>2013-05-13T18:23:25Z</time>
      </trkpt>
      <trkpt lat="59.9769961" lon="17.7393056">
        <ele>28.9769</ele>
        <time>2013-05-13T18:23:26Z</time>
      </trkpt>
      <trkpt lat="59.9769703" lon="17.7393169">
        <ele>28.9769</ele>
        <time>2013-05-13T18:23:27Z</time>
      </trkpt>
      <trkpt lat="59.9769452" lon="17.7393242">
        <ele>28.9769</ele>
        <time>2013-05-13T18:23:28Z</time>
      </trkpt>
      <trkpt lat="59.9769208" lon="17.7393269">
        <ele>28.4962</ele>
        <time>2013-05-13T18:23:29Z</time>
      </trkpt>
      <trkpt lat="59.9768963" lon="17.7393404">
        <ele>28.4962</ele>
        <time>2013-05-13T18:23:30Z</time>
      </trkpt>
      <trkpt lat="59.9768708" lon="17.7393512">
        <ele>28.0155</ele>
        <time>2013-05-13T18:23:31Z</time>
      </trkpt>
      <trkpt lat="59.9768457" lon="17.7393575">
        <ele>28.4962</ele>
        <time>2013-05-13T18:23:32Z</time>
      </trkpt>
      <trkpt lat="59.9768208" lon="17.7393648">
        <ele>28.4962</ele>
        <time>2013-05-13T18:23:33Z</time>
      </trkpt>
      <trkpt lat="59.9767967" lon="17.73937">
        <ele>28.0155</ele>
        <time>2013-05-13T18:23:34Z</time>
      </trkpt>
      <trkpt lat="59.9767716" lon="17.7393759">
        <ele>28.0155</ele>
        <time>2013-05-13T18:23:35Z</time>
      </trkpt>
      <trkpt lat="59.976749" lon="17.7393885">
        <ele>27.5349</ele>
        <time>2013-05-13T18:23:36Z</time>
      </trkpt>
      <trkpt lat="59.9767237" lon="17.7393994">
        <ele>27.5349</ele>
        <time>2013-05-13T18:23:37Z</time>
      </trkpt>
      <trkpt lat="59.9767003" lon="17.7394003">
        <ele>27.0543</ele>
        <time>2013-05-13T18:23:38Z</time>
      </trkpt>
      <trkpt lat="59.9766765" lon="17.7394041">
        <ele>27.0543</ele>
        <time>2013-05-13T18:23:39Z</time>
      </trkpt>
      <trkpt lat="59.9766516" lon="17.7394204">
        <ele>27.0543</ele>
        <time>2013-05-13T18:23:40Z</time>
      </trkpt>
      <trkpt lat="59.9766227" lon="17.739451">
        <ele>27.0543</ele>
        <time>2013-05-13T18:23:41Z</time>
      </trkpt>
      <trkpt lat="59.9765973" lon="17.7394826">
        <ele>26.5736</ele>
        <time>2013-05-13T18:23:42Z</time>
      </trkpt>
      <trkpt lat="59.976575" lon="17.7395096">
        <ele>26.5736</ele>
        <time>2013-05-13T18:23:43Z</time>
      </trkpt>
      <trkpt lat="59.9765532" lon="17.7395383">
        <ele>25.6123</ele>
        <time>2013-05-13T18:23:44Z</time>
      </trkpt>
      <trkpt lat="59.9765289" lon="17.7395644">
        <ele>26.0929</ele>
        <time>2013-05-13T18:23:45Z</time>
      </trkpt>
      <trkpt lat="59.9765085" lon="17.739593">
        <ele>26.0929</ele>
        <time>2013-05-13T18:23:46Z</time>
      </trkpt>
      <trkpt lat="59.9764865" lon="17.7396221">
        <ele>26.0929</ele>
        <time>2013-05-13T18:23:47Z</time>
      </trkpt>
      <trkpt lat="59.9764646" lon="17.7396536">
        <ele>26.0929</ele>
        <time>2013-05-13T18:23:48Z</time>
      </trkpt>
      <trkpt lat="59.9764455" lon="17.7396884">
        <ele>26.5736</ele>
        <time>2013-05-13T18:23:49Z</time>
      </trkpt>
      <trkpt lat="59.9764248" lon="17.7397257">
        <ele>27.0543</ele>
        <time>2013-05-13T18:23:50Z</time>
      </trkpt>
      <trkpt lat="59.9764055" lon="17.7397605">
        <ele>27.5349</ele>
        <time>2013-05-13T18:23:51Z</time>
      </trkpt>
      <trkpt lat="59.976388" lon="17.7398048">
        <ele>27.5349</ele>
        <time>2013-05-13T18:23:52Z</time>
      </trkpt>
      <trkpt lat="59.9763692" lon="17.7398552">
        <ele>28.0155</ele>
        <time>2013-05-13T18:23:53Z</time>
      </trkpt>
      <trkpt lat="59.9763512" lon="17.7399024">
        <ele>28.4962</ele>
        <time>2013-05-13T18:23:54Z</time>
      </trkpt>
      <trkpt lat="59.9763337" lon="17.7399547">
        <ele>28.4962</ele>
        <time>2013-05-13T18:23:55Z</time>
      </trkpt>
      <trkpt lat="59.9763156" lon="17.7400022">
        <ele>29.4575</ele>
        <time>2013-05-13T18:23:56Z</time>
      </trkpt>
      <trkpt lat="59.9763014" lon="17.7400479">
        <ele>29.4575</ele>
        <time>2013-05-13T18:23:57Z</time>
      </trkpt>
      <trkpt lat="59.9762876" lon="17.7400971">
        <ele>29.9381</ele>
        <time>2013-05-13T18:23:58Z</time>
      </trkpt>
      <trkpt lat="59.9762728" lon="17.7401438">
        <ele>29.9381</ele>
        <time>2013-05-13T18:23:59Z</time>
      </trkpt>
      <trkpt lat="59.9762596" lon="17.7401888">
        <ele>30.4188</ele>
        <time>2013-05-13T18:24:00Z</time>
      </trkpt>
      <trkpt lat="59.9762455" lon="17.740237">
        <ele>30.8995</ele>
        <time>2013-05-13T18:24:01Z</time>
      </trkpt>
      <trkpt lat="59.9762304" lon="17.7402847">
        <ele>31.3801</ele>
        <time>2013-05-13T18:24:02Z</time>
      </trkpt>
      <trkpt lat="59.9762155" lon="17.7403316">
        <ele>31.3801</ele>
        <time>2013-05-13T18:24:03Z</time>
      </trkpt>
      <trkpt lat="59.9762014" lon="17.7403732">
        <ele>31.3801</ele>
        <time>2013-05-13T18:24:04Z</time>
      </trkpt>
      <trkpt lat="59.9761864" lon="17.7404162">
        <ele>31.8607</ele>
        <time>2013-05-13T18:24:05Z</time>
      </trkpt>
      <trkpt lat="59.9761714" lon="17.7404603">
        <ele>32.3416</ele>
        <time>2013-05-13T18:24:06Z</time>
      </trkpt>
      <trkpt lat="59.976156" lon="17.7405042">
        <ele>32.8223</ele>
        <time>2013-05-13T18:24:07Z</time>
      </trkpt>
      <trkpt lat="59.9761404" lon="17.7405469">
        <ele>33.3029</ele>
        <time>2013-05-13T18:24:08Z</time>
      </trkpt>
      <trkpt lat="59.9761268" lon="17.740588">
        <ele>33.7834</ele>
        <time>2013-05-13T18:24:09Z</time>
      </trkpt>
      <trkpt lat="59.9761145" lon="17.7406266">
        <ele>33.7834</ele>
        <time>2013-05-13T18:24:10Z</time>
      </trkpt>
      <trkpt lat="59.976101" lon="17.7406644">
        <ele>34.2642</ele>
        <time>2013-05-13T18:24:11Z</time>
      </trkpt>
      <trkpt lat="59.9760884" lon="17.740709">
        <ele>34.2642</ele>
        <time>2013-05-13T18:24:12Z</time>
      </trkpt>
      <trkpt lat="59.9760739" lon="17.7407642">
        <ele>34.7449</ele>
        <time>2013-05-13T18:24:13Z</time>
      </trkpt>
      <trkpt lat="59.9760592" lon="17.7408087">
        <ele>35.2255</ele>
        <time>2013-05-13T18:24:14Z</time>
      </trkpt>
      <trkpt lat="59.9760461" lon="17.7408528">
        <ele>35.7061</ele>
        <time>2013-05-13T18:24:15Z</time>
      </trkpt>
      <trkpt lat="59.9760338" lon="17.7408996">
        <ele>36.1868</ele>
        <time>2013-05-13T18:24:16Z</time>
      </trkpt>
      <trkpt lat="59.9760198" lon="17.7409436">
        <ele>36.1868</ele>
        <time>2013-05-13T18:24:17Z</time>
      </trkpt>
      <trkpt lat="59.9760067" lon="17.7409964">
        <ele>36.6675</ele>
        <time>2013-05-13T18:24:18Z</time>
      </trkpt>
      <trkpt lat="59.9759952" lon="17.7410472">
        <ele>37.1481</ele>
        <time>2013-05-13T18:24:19Z</time>
      </trkpt>
      <trkpt lat="59.9759839" lon="17.7410809">
        <ele>37.6287</ele>
        <time>2013-05-13T18:24:20Z</time>
      </trkpt>
      <trkpt lat="59.9759735" lon="17.7411165">
        <ele>37.6287</ele>
        <time>2013-05-13T18:24:21Z</time>
      </trkpt>
      <trkpt lat="59.9759607" lon="17.7411663">
        <ele>38.1094</ele>
        <time>2013-05-13T18:24:22Z</time>
      </trkpt>
      <trkpt lat="59.9759498" lon="17.7412197">
        <ele>38.5901</ele>
        <time>2013-05-13T18:24:23Z</time>
      </trkpt>
      <trkpt lat="59.975941" lon="17.7412654">
        <ele>38.1094</ele>
        <time>2013-05-13T18:24:24Z</time>
      </trkpt>
      <trkpt lat="59.9759283" lon="17.7413093">
        <ele>38.5901</ele>
        <time>2013-05-13T18:24:25Z</time>
      </trkpt>
      <trkpt lat="59.9759161" lon="17.7413559">
        <ele>39.0707</ele>
        <time>2013-05-13T18:24:26Z</time>
      </trkpt>
      <trkpt lat="59.9759072" lon="17.7413942">
        <ele>39.0707</ele>
        <time>2013-05-13T18:24:27Z</time>
      </trkpt>
      <trkpt lat="59.9758964" lon="17.7414346">
        <ele>39.0707</ele>
        <time>2013-05-13T18:24:28Z</time>
      </trkpt>
      <trkpt lat="59.9758863" lon="17.7414756">
        <ele>39.5513</ele>
        <time>2013-05-13T18:24:29Z</time>
      </trkpt>
      <trkpt lat="59.9758772" lon="17.7415195">
        <ele>39.5513</ele>
        <time>2013-05-13T18:24:30Z</time>
      </trkpt>
      <trkpt lat="59.9758651" lon="17.7415662">
        <ele>39.5513</ele>
        <time>2013-05-13T18:24:31Z</time>
      </trkpt>
      <trkpt lat="59.9758538" lon="17.7416144">
        <ele>39.5513</ele>
        <time>2013-05-13T18:24:32Z</time>
      </trkpt>
      <trkpt lat="59.9758451" lon="17.74166">
        <ele>39.5513</ele>
        <time>2013-05-13T18:24:33Z</time>
      </trkpt>
      <trkpt lat="59.9758342" lon="17.7417012">
        <ele>40.0321</ele>
        <time>2013-05-13T18:24:34Z</time>
      </trkpt>
      <trkpt lat="59.9758211" lon="17.7417422">
        <ele>40.0321</ele>
        <time>2013-05-13T18:24:35Z</time>
      </trkpt>
      <trkpt lat="59.9758086" lon="17.7417832">
        <ele>40.5128</ele>
        <time>2013-05-13T18:24:36Z</time>
      </trkpt>
      <trkpt lat="59.9757972" lon="17.7418217">
        <ele>40.9934</ele>
        <time>2013-05-13T18:24:37Z</time>
      </trkpt>
      <trkpt lat="59.9757831" lon="17.7418651">
        <ele>41.474</ele>
        <time>2013-05-13T18:24:38Z</time>
      </trkpt>
      <trkpt lat="59.9757706" lon="17.7419069">
        <ele>41.474</ele>
        <time>2013-05-13T18:24:39Z</time>
      </trkpt>
      <trkpt lat="59.9757591" lon="17.7419504">
        <ele>41.9547</ele>
        <time>2013-05-13T18:24:40Z</time>
      </trkpt>
      <trkpt lat="59.9757457" lon="17.7419934">
        <ele>41.9547</ele>
        <time>2013-05-13T18:24:41Z</time>
      </trkpt>
      <trkpt lat="59.9757347" lon="17.7420315">
        <ele>41.9547</ele>
        <time>2013-05-13T18:24:42Z</time>
      </trkpt>
      <trkpt lat="59.9757258" lon="17.7420687">
        <ele>42.4354</ele>
        <time>2013-05-13T18:24:43Z</time>
      </trkpt>
      <trkpt lat="59.9757118" lon="17.7421126">
        <ele>42.4354</ele>
        <time>2013-05-13T18:24:44Z</time>
      </trkpt>
      <trkpt lat="59.9756975" lon="17.7421568">
        <ele>42.4354</ele>
        <time>2013-05-13T18:24:45Z</time>
      </trkpt>
      <trkpt lat="59.9756865" lon="17.7422003">
        <ele>42.916</ele>
        <time>2013-05-13T18:24:46Z</time>
      </trkpt>
      <trkpt lat="59.9756736" lon="17.7422468">
        <ele>43.3966</ele>
        <time>2013-05-13T18:24:47Z</time>
      </trkpt>
      <trkpt lat="59.9756591" lon="17.7422925">
        <ele>43.8773</ele>
        <time>2013-05-13T18:24:48Z</time>
      </trkpt>
      <trkpt lat="59.9756472" lon="17.7423402">
        <ele>43.8773</ele>
        <time>2013-05-13T18:24:49Z</time>
      </trkpt>
      <trkpt lat="59.9756353" lon="17.7423924">
        <ele>43.3966</ele>
        <time>2013-05-13T18:24:50Z</time>
      </trkpt>
      <trkpt lat="59.9756244" lon="17.7424352">
        <ele>43.3966</ele>
        <time>2013-05-13T18:24:51Z</time>
      </trkpt>
      <trkpt lat="59.9756161" lon="17.7424732">
        <ele>43.3966</ele>
        <time>2013-05-13T18:24:52Z</time>
      </trkpt>
      <trkpt lat="59.9756067" lon="17.7425111">
        <ele>43.3966</ele>
        <time>2013-05-13T18:24:53Z</time>
      </trkpt>
      <trkpt lat="59.9755929" lon="17.7425572">
        <ele>43.3966</ele>
        <time>2013-05-13T18:24:54Z</time>
      </trkpt>
      <trkpt lat="59.9755786" lon="17.7426059">
        <ele>43.3966</ele>
        <time>2013-05-13T18:24:55Z</time>
      </trkpt>
      <trkpt lat="59.9755655" lon="17.7426504">
        <ele>43.3966</ele>
        <time>2013-05-13T18:24:56Z</time>
      </trkpt>
      <trkpt lat="59.9755509" lon="17.7426922">
        <ele>43.3966</ele>
        <time>2013-05-13T18:24:57Z</time>
      </trkpt>
      <trkpt lat="59.9755395" lon="17.7427281">
        <ele>43.3966</ele>
        <time>2013-05-13T18:24:58Z</time>
      </trkpt>
      <trkpt lat="59.9755294" lon="17.7427697">
        <ele>43.3966</ele>
        <time>2013-05-13T18:24:59Z</time>
      </trkpt>
      <trkpt lat="59.9755188" lon="17.7428188">
        <ele>43.3966</ele>
        <time>2013-05-13T18:25:00Z</time>
      </trkpt>
      <trkpt lat="59.9755098" lon="17.7428587">
        <ele>43.3966</ele>
        <time>2013-05-13T18:25:01Z</time>
      </trkpt>
      <trkpt lat="59.9755006" lon="17.7428994">
        <ele>42.916</ele>
        <time>2013-05-13T18:25:02Z</time>
      </trkpt>
      <trkpt lat="59.9754898" lon="17.7429354">
        <ele>42.916</ele>
        <time>2013-05-13T18:25:03Z</time>
      </trkpt>
      <trkpt lat="59.975482" lon="17.7429781">
        <ele>42.916</ele>
        <time>2013-05-13T18:25:04Z</time>
      </trkpt>
      <trkpt lat="59.975474" lon="17.7430245">
        <ele>42.4354</ele>
        <time>2013-05-13T18:25:05Z</time>
      </trkpt>
      <trkpt lat="59.9754619" lon="17.7430628">
        <ele>41.9547</ele>
        <time>2013-05-13T18:25:06Z</time>
      </trkpt>
      <trkpt lat="59.9754525" lon="17.7431045">
        <ele>41.474</ele>
        <time>2013-05-13T18:25:07Z</time>
      </trkpt>
      <trkpt lat="59.9754442" lon="17.7431402">
        <ele>41.474</ele>
        <time>2013-05-13T18:25:08Z</time>
      </trkpt>
      <trkpt lat="59.9754324" lon="17.743171">
        <ele>41.474</ele>
        <time>2013-05-13T18:25:09Z</time>
      </trkpt>
      <trkpt lat="59.9754198" lon="17.7432035">
        <ele>40.9934</ele>
        <time>2013-05-13T18:25:10Z</time>
      </trkpt>
      <trkpt lat="59.9754095" lon="17.743234">
        <ele>40.9934</ele>
        <time>2013-05-13T18:25:11Z</time>
      </trkpt>
      <trkpt lat="59.9753981" lon="17.7432668">
        <ele>40.9934</ele>
        <time>2013-05-13T18:25:12Z</time>
      </trkpt>
      <trkpt lat="59.9753876" lon="17.7433021">
        <ele>40.5128</ele>
        <time>2013-05-13T18:25:13Z</time>
      </trkpt>
      <trkpt lat="59.9753799" lon="17.743346">
        <ele>40.0321</ele>
        <time>2013-05-13T18:25:14Z</time>
      </trkpt>
      <trkpt lat="59.9753712" lon="17.7433926">
        <ele>40.5128</ele>
        <time>2013-05-13T18:25:15Z</time>
      </trkpt>
      <trkpt lat="59.9753573" lon="17.7434306">
        <ele>40.5128</ele>
        <time>2013-05-13T18:25:16Z</time>
      </trkpt>
      <trkpt lat="59.9753464" lon="17.7434689">
        <ele>40.5128</ele>
        <time>2013-05-13T18:25:17Z</time>
      </trkpt>
      <trkpt lat="59.9753389" lon="17.7435139">
        <ele>40.5128</ele>
        <time>2013-05-13T18:25:18Z</time>
      </trkpt>
      <trkpt lat="59.9753359" lon="17.743563">
        <ele>40.0321</ele>
        <time>2013-05-13T18:25:19Z</time>
      </trkpt>
      <trkpt lat="59.9753306" lon="17.7436101">
        <ele>40.0321</ele>
        <time>2013-05-13T18:25:20Z</time>
      </trkpt>
      <trkpt lat="59.9753277" lon="17.7436574">
        <ele>40.5128</ele>
        <time>2013-05-13T18:25:21Z</time>
      </trkpt>
      <trkpt lat="59.975324" lon="17.7437065">
        <ele>40.5128</ele>
        <time>2013-05-13T18:25:22Z</time>
      </trkpt>
      <trkpt lat="59.9753183" lon="17.7437486">
        <ele>40.0321</ele>
        <time>2013-05-13T18:25:23Z</time>
      </trkpt>
      <trkpt lat="59.9753136" lon="17.7437865">
        <ele>39.5513</ele>
        <time>2013-05-13T18:25:24Z</time>
      </trkpt>
      <trkpt lat="59.9753044" lon="17.7438271">
        <ele>39.5513</ele>
        <time>2013-05-13T18:25:25Z</time>
      </trkpt>
      <trkpt lat="59.9752949" lon="17.7438691">
        <ele>39.0707</ele>
        <time>2013-05-13T18:25:26Z</time>
      </trkpt>
      <trkpt lat="59.9752894" lon="17.7439154">
        <ele>39.0707</ele>
        <time>2013-05-13T18:25:27Z</time>
      </trkpt>
      <trkpt lat="59.97528" lon="17.7439613">
        <ele>38.5901</ele>
        <time>2013-05-13T18:25:28Z</time>
      </trkpt>
      <trkpt lat="59.9752736" lon="17.7440034">
        <ele>38.5901</ele>
        <time>2013-05-13T18:25:29Z</time>
      </trkpt>
      <trkpt lat="59.9752684" lon="17.7440439">
        <ele>38.5901</ele>
        <time>2013-05-13T18:25:30Z</time>
      </trkpt>
      <trkpt lat="59.9752618" lon="17.7440765">
        <ele>38.1094</ele>
        <time>2013-05-13T18:25:31Z</time>
      </trkpt>
      <trkpt lat="59.9752566" lon="17.7441138">
        <ele>38.1094</ele>
        <time>2013-05-13T18:25:32Z</time>
      </trkpt>
      <trkpt lat="59.975252" lon="17.7441506">
        <ele>37.6287</ele>
        <time>2013-05-13T18:25:33Z</time>
      </trkpt>
      <trkpt lat="59.9752456" lon="17.7441812">
        <ele>37.6287</ele>
        <time>2013-05-13T18:25:34Z</time>
      </trkpt>
      <trkpt lat="59.9752388" lon="17.7442148">
        <ele>37.1481</ele>
        <time>2013-05-13T18:25:35Z</time>
      </trkpt>
      <trkpt lat="59.9752347" lon="17.744253">
        <ele>36.6675</ele>
        <time>2013-05-13T18:25:36Z</time>
      </trkpt>
      <trkpt lat="59.975229" lon="17.7442941">
        <ele>36.1868</ele>
        <time>2013-05-13T18:25:37Z</time>
      </trkpt>
      <trkpt lat="59.975221" lon="17.7443372">
        <ele>35.7061</ele>
        <time>2013-05-13T18:25:38Z</time>
      </trkpt>
      <trkpt lat="59.9752168" lon="17.7443741">
        <ele>35.7061</ele>
        <time>2013-05-13T18:25:39Z</time>
      </trkpt>
      <trkpt lat="59.975208" lon="17.7444126">
        <ele>35.2255</ele>
        <time>2013-05-13T18:25:40Z</time>
      </trkpt>
      <trkpt lat="59.9751927" lon="17.7444438">
        <ele>35.7061</ele>
        <time>2013-05-13T18:25:41Z</time>
      </trkpt>
      <trkpt lat="59.9751826" lon="17.7444747">
        <ele>35.2255</ele>
        <time>2013-05-13T18:25:42Z</time>
      </trkpt>
      <trkpt lat="59.9751778" lon="17.7445183">
        <ele>34.7449</ele>
        <time>2013-05-13T18:25:43Z</time>
      </trkpt>
      <trkpt lat="59.9751741" lon="17.7445721">
        <ele>34.7449</ele>
        <time>2013-05-13T18:25:44Z</time>
      </trkpt>
      <trkpt lat="59.9751692" lon="17.7446224">
        <ele>34.7449</ele>
        <time>2013-05-13T18:25:45Z</time>
      </trkpt>
      <trkpt lat="59.9751608" lon="17.7446637">
        <ele>34.7449</ele>
        <time>2013-05-13T18:25:46Z</time>
      </trkpt>
      <trkpt lat="59.9751484" lon="17.7446919">
        <ele>34.7449</ele>
        <time>2013-05-13T18:25:47Z</time>
      </trkpt>
      <trkpt lat="59.9751271" lon="17.744731">
        <ele>34.2642</ele>
        <time>2013-05-13T18:25:48Z</time>
      </trkpt>
      <trkpt lat="59.9751084" lon="17.744767">
        <ele>34.2642</ele>
        <time>2013-05-13T18:25:49Z</time>
      </trkpt>
      <trkpt lat="59.9750962" lon="17.7447914">
        <ele>34.2642</ele>
        <time>2013-05-13T18:25:50Z</time>
      </trkpt>
      <trkpt lat="59.9750805" lon="17.744831">
        <ele>34.2642</ele>
        <time>2013-05-13T18:25:51Z</time>
      </trkpt>
      <trkpt lat="59.975064" lon="17.7448768">
        <ele>33.7834</ele>
        <time>2013-05-13T18:25:52Z</time>
      </trkpt>
      <trkpt lat="59.9750483" lon="17.7449184">
        <ele>33.3029</ele>
        <time>2013-05-13T18:25:53Z</time>
      </trkpt>
      <trkpt lat="59.9750337" lon="17.7449586">
        <ele>33.3029</ele>
        <time>2013-05-13T18:25:54Z</time>
      </trkpt>
      <trkpt lat="59.975023" lon="17.7449954">
        <ele>33.3029</ele>
        <time>2013-05-13T18:25:55Z</time>
      </trkpt>
      <trkpt lat="59.9750131" lon="17.7450347">
        <ele>33.3029</ele>
        <time>2013-05-13T18:25:56Z</time>
      </trkpt>
      <trkpt lat="59.9749996" lon="17.7450741">
        <ele>33.3029</ele>
        <time>2013-05-13T18:25:57Z</time>
      </trkpt>
      <trkpt lat="59.9749838" lon="17.7451182">
        <ele>33.3029</ele>
        <time>2013-05-13T18:25:58Z</time>
      </trkpt>
      <trkpt lat="59.9749723" lon="17.7451591">
        <ele>33.3029</ele>
        <time>2013-05-13T18:25:59Z</time>
      </trkpt>
      <trkpt lat="59.9749604" lon="17.7451991">
        <ele>33.3029</ele>
        <time>2013-05-13T18:26:00Z</time>
      </trkpt>
      <trkpt lat="59.9749469" lon="17.7452342">
        <ele>33.3029</ele>
        <time>2013-05-13T18:26:01Z</time>
      </trkpt>
      <trkpt lat="59.9749277" lon="17.7452658">
        <ele>32.8223</ele>
        <time>2013-05-13T18:26:02Z</time>
      </trkpt>
      <trkpt lat="59.9749086" lon="17.7453076">
        <ele>32.8223</ele>
        <time>2013-05-13T18:26:03Z</time>
      </trkpt>
      <trkpt lat="59.9748915" lon="17.7453524">
        <ele>32.3416</ele>
        <time>2013-05-13T18:26:04Z</time>
      </trkpt>
      <trkpt lat="59.974878" lon="17.7453929">
        <ele>32.3416</ele>
        <time>2013-05-13T18:26:05Z</time>
      </trkpt>
      <trkpt lat="59.9748718" lon="17.7454372">
        <ele>31.8607</ele>
        <time>2013-05-13T18:26:06Z</time>
      </trkpt>
      <trkpt lat="59.9748646" lon="17.7454776">
        <ele>31.3801</ele>
        <time>2013-05-13T18:26:07Z</time>
      </trkpt>
      <trkpt lat="59.9748531" lon="17.7455129">
        <ele>30.8995</ele>
        <time>2013-05-13T18:26:08Z</time>
      </trkpt>
      <trkpt lat="59.9748387" lon="17.7455511">
        <ele>30.4188</ele>
        <time>2013-05-13T18:26:09Z</time>
      </trkpt>
      <trkpt lat="59.9748236" lon="17.7455855">
        <ele>30.4188</ele>
        <time>2013-05-13T18:26:10Z</time>
      </trkpt>
      <trkpt lat="59.9748076" lon="17.7456238">
        <ele>30.4188</ele>
        <time>2013-05-13T18:26:11Z</time>
      </trkpt>
      <trkpt lat="59.9747915" lon="17.7456588">
        <ele>29.9381</ele>
        <time>2013-05-13T18:26:12Z</time>
      </trkpt>
      <trkpt lat="59.9747768" lon="17.7456845">
        <ele>29.9381</ele>
        <time>2013-05-13T18:26:13Z</time>
      </trkpt>
      <trkpt lat="59.9747621" lon="17.7457041">
        <ele>29.9381</ele>
        <time>2013-05-13T18:26:14Z</time>
      </trkpt>
      <trkpt lat="59.9747469" lon="17.7457396">
        <ele>29.4575</ele>
        <time>2013-05-13T18:26:15Z</time>
      </trkpt>
      <trkpt lat="59.9747338" lon="17.7457792">
        <ele>29.4575</ele>
        <time>2013-05-13T18:26:16Z</time>
      </trkpt>
      <trkpt lat="59.9747182" lon="17.7458217">
        <ele>29.4575</ele>
        <time>2013-05-13T18:26:17Z</time>
      </trkpt>
      <trkpt lat="59.9746981" lon="17.7458578">
        <ele>29.4575</ele>
        <time>2013-05-13T18:26:18Z</time>
      </trkpt>
      <trkpt lat="59.9746727" lon="17.7458775">
        <ele>29.4575</ele>
        <time>2013-05-13T18:26:19Z</time>
      </trkpt>
      <trkpt lat="59.9746506" lon="17.7459065">
        <ele>29.4575</ele>
        <time>2013-05-13T18:26:20Z</time>
      </trkpt>
      <trkpt lat="59.9746303" lon="17.7459388">
        <ele>29.9381</ele>
        <time>2013-05-13T18:26:21Z</time>
      </trkpt>
      <trkpt lat="59.9746175" lon="17.7459683">
        <ele>30.4188</ele>
        <time>2013-05-13T18:26:22Z</time>
      </trkpt>
      <trkpt lat="59.974604" lon="17.7459976">
        <ele>30.4188</ele>
        <time>2013-05-13T18:26:23Z</time>
      </trkpt>
      <trkpt lat="59.9745916" lon="17.7460205">
        <ele>30.4188</ele>
        <time>2013-05-13T18:26:24Z</time>
      </trkpt>
      <trkpt lat="59.9745781" lon="17.7460356">
        <ele>30.4188</ele>
        <time>2013-05-13T18:26:25Z</time>
      </trkpt>
      <trkpt lat="59.9745589" lon="17.7460515">
        <ele>30.4188</ele>
        <time>2013-05-13T18:26:26Z</time>
      </trkpt>
      <trkpt lat="59.9745367" lon="17.746079">
        <ele>30.8995</ele>
        <time>2013-05-13T18:26:27Z</time>
      </trkpt>
      <trkpt lat="59.9745184" lon="17.7461149">
        <ele>30.4188</ele>
        <time>2013-05-13T18:26:28Z</time>
      </trkpt>
      <trkpt lat="59.9744996" lon="17.7461418">
        <ele>30.4188</ele>
        <time>2013-05-13T18:26:29Z</time>
      </trkpt>
      <trkpt lat="59.9744864" lon="17.746165">
        <ele>30.4188</ele>
        <time>2013-05-13T18:26:30Z</time>
      </trkpt>
      <trkpt lat="59.9744718" lon="17.7461908">
        <ele>30.4188</ele>
        <time>2013-05-13T18:26:31Z</time>
      </trkpt>
      <trkpt lat="59.9744525" lon="17.7462151">
        <ele>30.8995</ele>
        <time>2013-05-13T18:26:32Z</time>
      </trkpt>
      <trkpt lat="59.9744339" lon="17.7462418">
        <ele>30.8995</ele>
        <time>2013-05-13T18:26:33Z</time>
      </trkpt>
      <trkpt lat="59.9744147" lon="17.7462682">
        <ele>31.3801</ele>
        <time>2013-05-13T18:26:34Z</time>
      </trkpt>
      <trkpt lat="59.9743983" lon="17.7463048">
        <ele>30.8995</ele>
        <time>2013-05-13T18:26:35Z</time>
      </trkpt>
      <trkpt lat="59.9743833" lon="17.7463441">
        <ele>30.8995</ele>
        <time>2013-05-13T18:26:36Z</time>
      </trkpt>
      <trkpt lat="59.9743608" lon="17.7463846">
        <ele>30.8995</ele>
        <time>2013-05-13T18:26:37Z</time>
      </trkpt>
      <trkpt lat="59.974339" lon="17.7464201">
        <ele>30.8995</ele>
        <time>2013-05-13T18:26:38Z</time>
      </trkpt>
      <trkpt lat="59.9743169" lon="17.7464521">
        <ele>31.3801</ele>
        <time>2013-05-13T18:26:39Z</time>
      </trkpt>
      <trkpt lat="59.9742962" lon="17.7464831">
        <ele>31.3801</ele>
        <time>2013-05-13T18:26:40Z</time>
      </trkpt>
      <trkpt lat="59.9742749" lon="17.746507">
        <ele>31.8607</ele>
        <time>2013-05-13T18:26:41Z</time>
      </trkpt>
      <trkpt lat="59.9742522" lon="17.7465422">
        <ele>31.8607</ele>
        <time>2013-05-13T18:26:42Z</time>
      </trkpt>
      <trkpt lat="59.9742316" lon="17.7465833">
        <ele>31.8607</ele>
        <time>2013-05-13T18:26:43Z</time>
      </trkpt>
      <trkpt lat="59.9742127" lon="17.7466172">
        <ele>31.8607</ele>
        <time>2013-05-13T18:26:44Z</time>
      </trkpt>
      <trkpt lat="59.9741927" lon="17.7466504">
        <ele>31.8607</ele>
        <time>2013-05-13T18:26:45Z</time>
      </trkpt>
      <trkpt lat="59.9741724" lon="17.7466687">
        <ele>32.3416</ele>
        <time>2013-05-13T18:26:46Z</time>
      </trkpt>
      <trkpt lat="59.9741476" lon="17.746679">
        <ele>32.3416</ele>
        <time>2013-05-13T18:26:47Z</time>
      </trkpt>
      <trkpt lat="59.9741212" lon="17.7466971">
        <ele>32.3416</ele>
        <time>2013-05-13T18:26:48Z</time>
      </trkpt>
      <trkpt lat="59.9741008" lon="17.7467254">
        <ele>31.8607</ele>
        <time>2013-05-13T18:26:49Z</time>
      </trkpt>
      <trkpt lat="59.9740818" lon="17.7467541">
        <ele>31.8607</ele>
        <time>2013-05-13T18:26:50Z</time>
      </trkpt>
      <trkpt lat="59.9740645" lon="17.74678">
        <ele>31.8607</ele>
        <time>2013-05-13T18:26:51Z</time>
      </trkpt>
      <trkpt lat="59.9740445" lon="17.7468038">
        <ele>31.3801</ele>
        <time>2013-05-13T18:26:52Z</time>
      </trkpt>
      <trkpt lat="59.9740226" lon="17.7468266">
        <ele>31.3801</ele>
        <time>2013-05-13T18:26:53Z</time>
      </trkpt>
      <trkpt lat="59.9740025" lon="17.7468515">
        <ele>31.3801</ele>
        <time>2013-05-13T18:26:54Z</time>
      </trkpt>
      <trkpt lat="59.9739811" lon="17.7468731">
        <ele>31.3801</ele>
        <time>2013-05-13T18:26:55Z</time>
      </trkpt>
      <trkpt lat="59.9739596" lon="17.746892">
        <ele>31.3801</ele>
        <time>2013-05-13T18:26:56Z</time>
      </trkpt>
      <trkpt lat="59.9739364" lon="17.7469177">
        <ele>31.8607</ele>
        <time>2013-05-13T18:26:57Z</time>
      </trkpt>
      <trkpt lat="59.9739187" lon="17.7469398">
        <ele>31.8607</ele>
        <time>2013-05-13T18:26:58Z</time>
      </trkpt>
      <trkpt lat="59.9739055" lon="17.746958">
        <ele>32.3416</ele>
        <time>2013-05-13T18:26:59Z</time>
      </trkpt>
      <trkpt lat="59.9738866" lon="17.7469824">
        <ele>32.3416</ele>
        <time>2013-05-13T18:27:00Z</time>
      </trkpt>
      <trkpt lat="59.9738652" lon="17.7470121">
        <ele>32.3416</ele>
        <time>2013-05-13T18:27:01Z</time>
      </trkpt>
      <trkpt lat="59.9738419" lon="17.7470498">
        <ele>32.3416</ele>
        <time>2013-05-13T18:27:02Z</time>
      </trkpt>
      <trkpt lat="59.9738223" lon="17.7470826">
        <ele>32.3416</ele>
        <time>2013-05-13T18:27:03Z</time>
      </trkpt>
      <trkpt lat="59.9738013" lon="17.7471088">
        <ele>32.3416</ele>
        <time>2013-05-13T18:27:04Z</time>
      </trkpt>
      <trkpt lat="59.973778" lon="17.7471338">
        <ele>32.3416</ele>
        <time>2013-05-13T18:27:05Z</time>
      </trkpt>
      <trkpt lat="59.973757" lon="17.7471539">
        <ele>32.3416</ele>
        <time>2013-05-13T18:27:06Z</time>
      </trkpt>
      <trkpt lat="59.9737397" lon="17.7471721">
        <ele>31.8607</ele>
        <time>2013-05-13T18:27:07Z</time>
      </trkpt>
      <trkpt lat="59.9737234" lon="17.7471887">
        <ele>31.8607</ele>
        <time>2013-05-13T18:27:08Z</time>
      </trkpt>
      <trkpt lat="59.9737047" lon="17.7472067">
        <ele>31.3801</ele>
        <time>2013-05-13T18:27:09Z</time>
      </trkpt>
      <trkpt lat="59.9736862" lon="17.7472305">
        <ele>31.3801</ele>
        <time>2013-05-13T18:27:10Z</time>
      </trkpt>
      <trkpt lat="59.9736678" lon="17.7472515">
        <ele>31.3801</ele>
        <time>2013-05-13T18:27:11Z</time>
      </trkpt>
      <trkpt lat="59.9736466" lon="17.7472709">
        <ele>31.3801</ele>
        <time>2013-05-13T18:27:12Z</time>
      </trkpt>
      <trkpt lat="59.9736255" lon="17.747289">
        <ele>31.3801</ele>
        <time>2013-05-13T18:27:13Z</time>
      </trkpt>
      <trkpt lat="59.9736058" lon="17.74731">
        <ele>31.3801</ele>
        <time>2013-05-13T18:27:14Z</time>
      </trkpt>
      <trkpt lat="59.973584" lon="17.7473379">
        <ele>31.3801</ele>
        <time>2013-05-13T18:27:15Z</time>
      </trkpt>
      <trkpt lat="59.9735623" lon="17.7473644">
        <ele>31.3801</ele>
        <time>2013-05-13T18:27:16Z</time>
      </trkpt>
      <trkpt lat="59.973543" lon="17.7473803">
        <ele>31.8607</ele>
        <time>2013-05-13T18:27:17Z</time>
      </trkpt>
      <trkpt lat="59.9735229" lon="17.7473915">
        <ele>31.8607</ele>
        <time>2013-05-13T18:27:18Z</time>
      </trkpt>
      <trkpt lat="59.973501" lon="17.7474046">
        <ele>32.3416</ele>
        <time>2013-05-13T18:27:19Z</time>
      </trkpt>
      <trkpt lat="59.9734808" lon="17.7474279">
        <ele>32.8223</ele>
        <time>2013-05-13T18:27:20Z</time>
      </trkpt>
      <trkpt lat="59.9734602" lon="17.747452">
        <ele>33.3029</ele>
        <time>2013-05-13T18:27:21Z</time>
      </trkpt>
      <trkpt lat="59.9734382" lon="17.7474693">
        <ele>33.7834</ele>
        <time>2013-05-13T18:27:22Z</time>
      </trkpt>
      <trkpt lat="59.9734173" lon="17.7474886">
        <ele>33.7834</ele>
        <time>2013-05-13T18:27:23Z</time>
      </trkpt>
      <trkpt lat="59.9733938" lon="17.7475177">
        <ele>34.2642</ele>
        <time>2013-05-13T18:27:24Z</time>
      </trkpt>
      <trkpt lat="59.9733689" lon="17.7475404">
        <ele>34.7449</ele>
        <time>2013-05-13T18:27:25Z</time>
      </trkpt>
      <trkpt lat="59.9733466" lon="17.747561">
        <ele>34.7449</ele>
        <time>2013-05-13T18:27:26Z</time>
      </trkpt>
      <trkpt lat="59.973325" lon="17.7475837">
        <ele>35.7061</ele>
        <time>2013-05-13T18:27:27Z</time>
      </trkpt>
      <trkpt lat="59.9733031" lon="17.7476062">
        <ele>35.7061</ele>
        <time>2013-05-13T18:27:28Z</time>
      </trkpt>
      <trkpt lat="59.973281" lon="17.7476307">
        <ele>36.1868</ele>
        <time>2013-05-13T18:27:29Z</time>
      </trkpt>
      <trkpt lat="59.9732601" lon="17.7476508">
        <ele>36.1868</ele>
        <time>2013-05-13T18:27:30Z</time>
      </trkpt>
      <trkpt lat="59.973238" lon="17.7476642">
        <ele>36.1868</ele>
        <time>2013-05-13T18:27:31Z</time>
      </trkpt>
      <trkpt lat="59.9732171" lon="17.7476843">
        <ele>36.1868</ele>
        <time>2013-05-13T18:27:32Z</time>
      </trkpt>
      <trkpt lat="59.973197" lon="17.7477114">
        <ele>36.6675</ele>
        <time>2013-05-13T18:27:33Z</time>
      </trkpt>
      <trkpt lat="59.9731748" lon="17.7477386">
        <ele>36.6675</ele>
        <time>2013-05-13T18:27:34Z</time>
      </trkpt>
      <trkpt lat="59.973153" lon="17.7477663">
        <ele>36.6675</ele>
        <time>2013-05-13T18:27:35Z</time>
      </trkpt>
      <trkpt lat="59.973131" lon="17.7477984">
        <ele>36.6675</ele>
        <time>2013-05-13T18:27:36Z</time>
      </trkpt>
      <trkpt lat="59.9731088" lon="17.7478326">
        <ele>36.6675</ele>
        <time>2013-05-13T18:27:37Z</time>
      </trkpt>
      <trkpt lat="59.9730899" lon="17.7478725">
        <ele>36.1868</ele>
        <time>2013-05-13T18:27:38Z</time>
      </trkpt>
      <trkpt lat="59.9730696" lon="17.7479087">
        <ele>36.1868</ele>
        <time>2013-05-13T18:27:39Z</time>
      </trkpt>
      <trkpt lat="59.973048" lon="17.7479344">
        <ele>36.1868</ele>
        <time>2013-05-13T18:27:40Z</time>
      </trkpt>
      <trkpt lat="59.9730267" lon="17.74796">
        <ele>36.1868</ele>
        <time>2013-05-13T18:27:41Z</time>
      </trkpt>
      <trkpt lat="59.9730039" lon="17.7479905">
        <ele>35.7061</ele>
        <time>2013-05-13T18:27:42Z</time>
      </trkpt>
      <trkpt lat="59.9729793" lon="17.7480186">
        <ele>35.7061</ele>
        <time>2013-05-13T18:27:43Z</time>
      </trkpt>
      <trkpt lat="59.9729577" lon="17.7480553">
        <ele>35.2255</ele>
        <time>2013-05-13T18:27:44Z</time>
      </trkpt>
      <trkpt lat="59.9729371" lon="17.7480917">
        <ele>35.2255</ele>
        <time>2013-05-13T18:27:45Z</time>
      </trkpt>
      <trkpt lat="59.9729187" lon="17.7481253">
        <ele>34.7449</ele>
        <time>2013-05-13T18:27:46Z</time>
      </trkpt>
      <trkpt lat="59.9729013" lon="17.7481564">
        <ele>35.2255</ele>
        <time>2013-05-13T18:27:47Z</time>
      </trkpt>
      <trkpt lat="59.9728817" lon="17.748187">
        <ele>35.2255</ele>
        <time>2013-05-13T18:27:48Z</time>
      </trkpt>
      <trkpt lat="59.9728646" lon="17.7482149">
        <ele>35.2255</ele>
        <time>2013-05-13T18:27:49Z</time>
      </trkpt>
      <trkpt lat="59.9728489" lon="17.7482479">
        <ele>35.2255</ele>
        <time>2013-05-13T18:27:50Z</time>
      </trkpt>
      <trkpt lat="59.9728329" lon="17.7482802">
        <ele>35.2255</ele>
        <time>2013-05-13T18:27:51Z</time>
      </trkpt>
      <trkpt lat="59.9728148" lon="17.7483178">
        <ele>35.7061</ele>
        <time>2013-05-13T18:27:52Z</time>
      </trkpt>
      <trkpt lat="59.9727894" lon="17.7483678">
        <ele>36.1868</ele>
        <time>2013-05-13T18:27:53Z</time>
      </trkpt>
      <trkpt lat="59.9727691" lon="17.7484107">
        <ele>36.1868</ele>
        <time>2013-05-13T18:27:54Z</time>
      </trkpt>
      <trkpt lat="59.9727505" lon="17.7484526">
        <ele>36.6675</ele>
        <time>2013-05-13T18:27:55Z</time>
      </trkpt>
      <trkpt lat="59.972736" lon="17.748492">
        <ele>36.6675</ele>
        <time>2013-05-13T18:27:56Z</time>
      </trkpt>
      <trkpt lat="59.9727272" lon="17.7485278">
        <ele>36.1868</ele>
        <time>2013-05-13T18:27:57Z</time>
      </trkpt>
      <trkpt lat="59.9727143" lon="17.7485674">
        <ele>35.7061</ele>
        <time>2013-05-13T18:27:58Z</time>
      </trkpt>
      <trkpt lat="59.9726956" lon="17.7486075">
        <ele>35.7061</ele>
        <time>2013-05-13T18:27:59Z</time>
      </trkpt>
      <trkpt lat="59.9726807" lon="17.7486377">
        <ele>35.2255</ele>
        <time>2013-05-13T18:28:00Z</time>
      </trkpt>
      <trkpt lat="59.9726674" lon="17.7486641">
        <ele>35.2255</ele>
        <time>2013-05-13T18:28:01Z</time>
      </trkpt>
      <trkpt lat="59.9726551" lon="17.7486871">
        <ele>35.2255</ele>
        <time>2013-05-13T18:28:02Z</time>
      </trkpt>
      <trkpt lat="59.9726422" lon="17.7487153">
        <ele>35.2255</ele>
        <time>2013-05-13T18:28:03Z</time>
      </trkpt>
      <trkpt lat="59.9726262" lon="17.7487461">
        <ele>35.2255</ele>
        <time>2013-05-13T18:28:04Z</time>
      </trkpt>
      <trkpt lat="59.9726097" lon="17.7487759">
        <ele>35.2255</ele>
        <time>2013-05-13T18:28:05Z</time>
      </trkpt>
      <trkpt lat="59.972591" lon="17.748805">
        <ele>35.2255</ele>
        <time>2013-05-13T18:28:06Z</time>
      </trkpt>
      <trkpt lat="59.972575" lon="17.7488324">
        <ele>34.7449</ele>
        <time>2013-05-13T18:28:07Z</time>
      </trkpt>
      <trkpt lat="59.9725614" lon="17.7488582">
        <ele>34.7449</ele>
        <time>2013-05-13T18:28:08Z</time>
      </trkpt>
      <trkpt lat="59.9725469" lon="17.7488853">
        <ele>34.2642</ele>
        <time>2013-05-13T18:28:09Z</time>
      </trkpt>
      <trkpt lat="59.9725349" lon="17.7489106">
        <ele>34.2642</ele>
        <time>2013-05-13T18:28:10Z</time>
      </trkpt>
      <trkpt lat="59.9725211" lon="17.7489283">
        <ele>33.7834</ele>
        <time>2013-05-13T18:28:11Z</time>
      </trkpt>
      <trkpt lat="59.9725054" lon="17.7489529">
        <ele>33.7834</ele>
        <time>2013-05-13T18:28:12Z</time>
      </trkpt>
      <trkpt lat="59.972491" lon="17.7489818">
        <ele>32.8223</ele>
        <time>2013-05-13T18:28:13Z</time>
      </trkpt>
      <trkpt lat="59.9724785" lon="17.7490162">
        <ele>32.3416</ele>
        <time>2013-05-13T18:28:14Z</time>
      </trkpt>
      <trkpt lat="59.9724659" lon="17.7490535">
        <ele>31.8607</ele>
        <time>2013-05-13T18:28:15Z</time>
      </trkpt>
      <trkpt lat="59.9724514" lon="17.749088">
        <ele>30.8995</ele>
        <time>2013-05-13T18:28:16Z</time>
      </trkpt>
      <trkpt lat="59.9724346" lon="17.749123">
        <ele>30.4188</ele>
        <time>2013-05-13T18:28:17Z</time>
      </trkpt>
      <trkpt lat="59.972419" lon="17.7491555">
        <ele>29.9381</ele>
        <time>2013-05-13T18:28:18Z</time>
      </trkpt>
      <trkpt lat="59.972404" lon="17.7491878">
        <ele>28.9769</ele>
        <time>2013-05-13T18:28:19Z</time>
      </trkpt>
      <trkpt lat="59.9723905" lon="17.7492162">
        <ele>28.4962</ele>
        <time>2013-05-13T18:28:20Z</time>
      </trkpt>
      <trkpt lat="59.9723754" lon="17.7492425">
        <ele>28.0155</ele>
        <time>2013-05-13T18:28:21Z</time>
      </trkpt>
      <trkpt lat="59.9723573" lon="17.7492706">
        <ele>27.0543</ele>
        <time>2013-05-13T18:28:22Z</time>
      </trkpt>
      <trkpt lat="59.972344" lon="17.7493072">
        <ele>26.5736</ele>
        <time>2013-05-13T18:28:23Z</time>
      </trkpt>
      <trkpt lat="59.9723321" lon="17.7493445">
        <ele>26.0929</ele>
        <time>2013-05-13T18:28:24Z</time>
      </trkpt>
      <trkpt lat="59.972319" lon="17.7493758">
        <ele>25.1317</ele>
        <time>2013-05-13T18:28:25Z</time>
      </trkpt>
      <trkpt lat="59.9723071" lon="17.7494025">
        <ele>24.651</ele>
        <time>2013-05-13T18:28:26Z</time>
      </trkpt>
      <trkpt lat="59.9722957" lon="17.7494321">
        <ele>25.1317</ele>
        <time>2013-05-13T18:28:27Z</time>
      </trkpt>
      <trkpt lat="59.9722832" lon="17.7494597">
        <ele>25.6123</ele>
        <time>2013-05-13T18:28:28Z</time>
      </trkpt>
      <trkpt lat="59.9722713" lon="17.7495014">
        <ele>26.5736</ele>
        <time>2013-05-13T18:28:29Z</time>
      </trkpt>
      <trkpt lat="59.9722568" lon="17.7495333">
        <ele>26.5736</ele>
        <time>2013-05-13T18:28:30Z</time>
      </trkpt>
      <trkpt lat="59.9722423" lon="17.7495607">
        <ele>26.0929</ele>
        <time>2013-05-13T18:28:31Z</time>
      </trkpt>
      <trkpt lat="59.9722278" lon="17.7495903">
        <ele>26.0929</ele>
        <time>2013-05-13T18:28:32Z</time>
      </trkpt>
      <trkpt lat="59.9722159" lon="17.7496104">
        <ele>25.1317</ele>
        <time>2013-05-13T18:28:33Z</time>
      </trkpt>
      <trkpt lat="59.9721998" lon="17.7496284">
        <ele>24.651</ele>
        <time>2013-05-13T18:28:34Z</time>
      </trkpt>
      <trkpt lat="59.9721818" lon="17.7496558">
        <ele>24.651</ele>
        <time>2013-05-13T18:28:35Z</time>
      </trkpt>
      <trkpt lat="59.9721668" lon="17.7496843">
        <ele>24.651</ele>
        <time>2013-05-13T18:28:36Z</time>
      </trkpt>
      <trkpt lat="59.9721522" lon="17.7497094">
        <ele>24.651</ele>
        <time>2013-05-13T18:28:37Z</time>
      </trkpt>
      <trkpt lat="59.9721383" lon="17.7497408">
        <ele>24.651</ele>
        <time>2013-05-13T18:28:38Z</time>
      </trkpt>
      <trkpt lat="59.9721209" lon="17.749778">
        <ele>24.651</ele>
        <time>2013-05-13T18:28:39Z</time>
      </trkpt>
      <trkpt lat="59.9721035" lon="17.7498223">
        <ele>24.651</ele>
        <time>2013-05-13T18:28:40Z</time>
      </trkpt>
      <trkpt lat="59.9720904" lon="17.7498766">
        <ele>24.1703</ele>
        <time>2013-05-13T18:28:41Z</time>
      </trkpt>
      <trkpt lat="59.9720786" lon="17.7499181">
        <ele>24.1703</ele>
        <time>2013-05-13T18:28:42Z</time>
      </trkpt>
      <trkpt lat="59.9720655" lon="17.7499549">
        <ele>25.1317</ele>
        <time>2013-05-13T18:28:43Z</time>
      </trkpt>
      <trkpt lat="59.972052" lon="17.7499958">
        <ele>25.1317</ele>
        <time>2013-05-13T18:28:44Z</time>
      </trkpt>
      <trkpt lat="59.9720389" lon="17.7500391">
        <ele>25.6123</ele>
        <time>2013-05-13T18:28:45Z</time>
      </trkpt>
      <trkpt lat="59.9720242" lon="17.7500816">
        <ele>26.0929</ele>
        <time>2013-05-13T18:28:46Z</time>
      </trkpt>
      <trkpt lat="59.9720098" lon="17.750117">
        <ele>26.0929</ele>
        <time>2013-05-13T18:28:47Z</time>
      </trkpt>
      <trkpt lat="59.9719937" lon="17.7501554">
        <ele>25.6123</ele>
        <time>2013-05-13T18:28:48Z</time>
      </trkpt>
      <trkpt lat="59.9719751" lon="17.7501957">
        <ele>26.0929</ele>
        <time>2013-05-13T18:28:49Z</time>
      </trkpt>
      <trkpt lat="59.9719575" lon="17.7502432">
        <ele>26.0929</ele>
        <time>2013-05-13T18:28:50Z</time>
      </trkpt>
      <trkpt lat="59.9719414" lon="17.7502905">
        <ele>26.0929</ele>
        <time>2013-05-13T18:28:51Z</time>
      </trkpt>
      <trkpt lat="59.971926" lon="17.7503356">
        <ele>25.6123</ele>
        <time>2013-05-13T18:28:52Z</time>
      </trkpt>
      <trkpt lat="59.9719082" lon="17.7503874">
        <ele>27.0543</ele>
        <time>2013-05-13T18:28:53Z</time>
      </trkpt>
      <trkpt lat="59.9718951" lon="17.7504317">
        <ele>26.5736</ele>
        <time>2013-05-13T18:28:54Z</time>
      </trkpt>
      <trkpt lat="59.9718735" lon="17.7504838">
        <ele>27.5349</ele>
        <time>2013-05-13T18:28:55Z</time>
      </trkpt>
      <trkpt lat="59.9718545" lon="17.7505385">
        <ele>28.0155</ele>
        <time>2013-05-13T18:28:56Z</time>
      </trkpt>
      <trkpt lat="59.97183" lon="17.7505831">
        <ele>28.4962</ele>
        <time>2013-05-13T18:28:57Z</time>
      </trkpt>
      <trkpt lat="59.9718081" lon="17.7506172">
        <ele>28.9769</ele>
        <time>2013-05-13T18:28:58Z</time>
      </trkpt>
      <trkpt lat="59.9717881" lon="17.7506515">
        <ele>28.9769</ele>
        <time>2013-05-13T18:28:59Z</time>
      </trkpt>
      <trkpt lat="59.9717645" lon="17.7506895">
        <ele>29.4575</ele>
        <time>2013-05-13T18:29:00Z</time>
      </trkpt>
      <trkpt lat="59.9717433" lon="17.7507277">
        <ele>29.9381</ele>
        <time>2013-05-13T18:29:01Z</time>
      </trkpt>
      <trkpt lat="59.971727" lon="17.7507617">
        <ele>29.9381</ele>
        <time>2013-05-13T18:29:02Z</time>
      </trkpt>
      <trkpt lat="59.9717084" lon="17.7507919">
        <ele>30.4188</ele>
        <time>2013-05-13T18:29:03Z</time>
      </trkpt>
      <trkpt lat="59.9716875" lon="17.7508245">
        <ele>30.4188</ele>
        <time>2013-05-13T18:29:04Z</time>
      </trkpt>
      <trkpt lat="59.9716689" lon="17.7508604">
        <ele>30.4188</ele>
        <time>2013-05-13T18:29:05Z</time>
      </trkpt>
      <trkpt lat="59.9716485" lon="17.7508951">
        <ele>29.9381</ele>
        <time>2013-05-13T18:29:06Z</time>
      </trkpt>
      <trkpt lat="59.9716264" lon="17.7509251">
        <ele>29.9381</ele>
        <time>2013-05-13T18:29:07Z</time>
      </trkpt>
      <trkpt lat="59.9716082" lon="17.7509557">
        <ele>29.9381</ele>
        <time>2013-05-13T18:29:08Z</time>
      </trkpt>
      <trkpt lat="59.9715886" lon="17.7509935">
        <ele>29.9381</ele>
        <time>2013-05-13T18:29:09Z</time>
      </trkpt>
      <trkpt lat="59.9715633" lon="17.7510282">
        <ele>30.4188</ele>
        <time>2013-05-13T18:29:10Z</time>
      </trkpt>
      <trkpt lat="59.9715437" lon="17.7510576">
        <ele>29.9381</ele>
        <time>2013-05-13T18:29:11Z</time>
      </trkpt>
      <trkpt lat="59.9715198" lon="17.7510852">
        <ele>30.4188</ele>
        <time>2013-05-13T18:29:12Z</time>
      </trkpt>
      <trkpt lat="59.9714941" lon="17.7511176">
        <ele>30.8995</ele>
        <time>2013-05-13T18:29:13Z</time>
      </trkpt>
      <trkpt lat="59.9714708" lon="17.7511468">
        <ele>31.3801</ele>
        <time>2013-05-13T18:29:14Z</time>
      </trkpt>
      <trkpt lat="59.9714458" lon="17.7511794">
        <ele>31.3801</ele>
        <time>2013-05-13T18:29:15Z</time>
      </trkpt>
      <trkpt lat="59.9714218" lon="17.7512142">
        <ele>31.3801</ele>
        <time>2013-05-13T18:29:16Z</time>
      </trkpt>
      <trkpt lat="59.9713965" lon="17.7512557">
        <ele>31.3801</ele>
        <time>2013-05-13T18:29:17Z</time>
      </trkpt>
      <trkpt lat="59.9713669" lon="17.7512969">
        <ele>31.8607</ele>
        <time>2013-05-13T18:29:18Z</time>
      </trkpt>
      <trkpt lat="59.9713465" lon="17.7513261">
        <ele>31.3801</ele>
        <time>2013-05-13T18:29:19Z</time>
      </trkpt>
      <trkpt lat="59.9713238" lon="17.751353">
        <ele>31.8607</ele>
        <time>2013-05-13T18:29:20Z</time>
      </trkpt>
      <trkpt lat="59.9712996" lon="17.7513888">
        <ele>31.8607</ele>
        <time>2013-05-13T18:29:21Z</time>
      </trkpt>
      <trkpt lat="59.9712757" lon="17.7514258">
        <ele>31.8607</ele>
        <time>2013-05-13T18:29:22Z</time>
      </trkpt>
      <trkpt lat="59.9712504" lon="17.7514614">
        <ele>31.8607</ele>
        <time>2013-05-13T18:29:23Z</time>
      </trkpt>
      <trkpt lat="59.9712242" lon="17.7514882">
        <ele>31.8607</ele>
        <time>2013-05-13T18:29:24Z</time>
      </trkpt>
      <trkpt lat="59.9712022" lon="17.7515102">
        <ele>32.3416</ele>
        <time>2013-05-13T18:29:25Z</time>
      </trkpt>
      <trkpt lat="59.9711758" lon="17.751532">
        <ele>32.3416</ele>
        <time>2013-05-13T18:29:26Z</time>
      </trkpt>
      <trkpt lat="59.9711502" lon="17.7515563">
        <ele>31.8607</ele>
        <time>2013-05-13T18:29:27Z</time>
      </trkpt>
      <trkpt lat="59.9711277" lon="17.7515848">
        <ele>32.3416</ele>
        <time>2013-05-13T18:29:28Z</time>
      </trkpt>
      <trkpt lat="59.9711" lon="17.7516057">
        <ele>32.8223</ele>
        <time>2013-05-13T18:29:29Z</time>
      </trkpt>
      <trkpt lat="59.9710716" lon="17.7516244">
        <ele>33.7834</ele>
        <time>2013-05-13T18:29:30Z</time>
      </trkpt>
      <trkpt lat="59.9710452" lon="17.7516441">
        <ele>34.2642</ele>
        <time>2013-05-13T18:29:31Z</time>
      </trkpt>
      <trkpt lat="59.9710213" lon="17.7516705">
        <ele>34.2642</ele>
        <time>2013-05-13T18:29:32Z</time>
      </trkpt>
      <trkpt lat="59.9709954" lon="17.7517015">
        <ele>34.7449</ele>
        <time>2013-05-13T18:29:33Z</time>
      </trkpt>
      <trkpt lat="59.9709686" lon="17.7517327">
        <ele>35.2255</ele>
        <time>2013-05-13T18:29:34Z</time>
      </trkpt>
      <trkpt lat="59.9709458" lon="17.7517607">
        <ele>35.7061</ele>
        <time>2013-05-13T18:29:35Z</time>
      </trkpt>
      <trkpt lat="59.9709254" lon="17.7517867">
        <ele>35.2255</ele>
        <time>2013-05-13T18:29:36Z</time>
      </trkpt>
      <trkpt lat="59.9708987" lon="17.7518125">
        <ele>35.7061</ele>
        <time>2013-05-13T18:29:37Z</time>
      </trkpt>
      <trkpt lat="59.9708743" lon="17.7518446">
        <ele>36.1868</ele>
        <time>2013-05-13T18:29:38Z</time>
      </trkpt>
      <trkpt lat="59.970852" lon="17.7518818">
        <ele>36.6675</ele>
        <time>2013-05-13T18:29:39Z</time>
      </trkpt>
      <trkpt lat="59.970829" lon="17.7519187">
        <ele>37.1481</ele>
        <time>2013-05-13T18:29:40Z</time>
      </trkpt>
      <trkpt lat="59.970809" lon="17.7519492">
        <ele>37.1481</ele>
        <time>2013-05-13T18:29:41Z</time>
      </trkpt>
      <trkpt lat="59.9707858" lon="17.7519762">
        <ele>37.6287</ele>
        <time>2013-05-13T18:29:42Z</time>
      </trkpt>
      <trkpt lat="59.9707643" lon="17.7520049">
        <ele>37.6287</ele>
        <time>2013-05-13T18:29:43Z</time>
      </trkpt>
      <trkpt lat="59.9707449" lon="17.7520342">
        <ele>37.6287</ele>
        <time>2013-05-13T18:29:44Z</time>
      </trkpt>
      <trkpt lat="59.970729" lon="17.7520631">
        <ele>37.6287</ele>
        <time>2013-05-13T18:29:45Z</time>
      </trkpt>
      <trkpt lat="59.9707083" lon="17.752088">
        <ele>37.6287</ele>
        <time>2013-05-13T18:29:46Z</time>
      </trkpt>
      <trkpt lat="59.9706893" lon="17.7521127">
        <ele>37.1481</ele>
        <time>2013-05-13T18:29:47Z</time>
      </trkpt>
      <trkpt lat="59.9706723" lon="17.7521386">
        <ele>37.1481</ele>
        <time>2013-05-13T18:29:48Z</time>
      </trkpt>
      <trkpt lat="59.9706571" lon="17.7521638">
        <ele>37.1481</ele>
        <time>2013-05-13T18:29:49Z</time>
      </trkpt>
      <trkpt lat="59.9706392" lon="17.7521951">
        <ele>37.1481</ele>
        <time>2013-05-13T18:29:50Z</time>
      </trkpt>
      <trkpt lat="59.9706199" lon="17.7522311">
        <ele>36.6675</ele>
        <time>2013-05-13T18:29:51Z</time>
      </trkpt>
      <trkpt lat="59.9705991" lon="17.7522707">
        <ele>36.6675</ele>
        <time>2013-05-13T18:29:52Z</time>
      </trkpt>
      <trkpt lat="59.9705743" lon="17.7523041">
        <ele>36.6675</ele>
        <time>2013-05-13T18:29:53Z</time>
      </trkpt>
      <trkpt lat="59.970562" lon="17.7523323">
        <ele>36.1868</ele>
        <time>2013-05-13T18:29:54Z</time>
      </trkpt>
      <trkpt lat="59.9705495" lon="17.752361">
        <ele>35.7061</ele>
        <time>2013-05-13T18:29:55Z</time>
      </trkpt>
      <trkpt lat="59.970539" lon="17.752396">
        <ele>35.7061</ele>
        <time>2013-05-13T18:29:56Z</time>
      </trkpt>
      <trkpt lat="59.9705282" lon="17.7524287">
        <ele>35.2255</ele>
        <time>2013-05-13T18:29:57Z</time>
      </trkpt>
      <trkpt lat="59.9705143" lon="17.7524512">
        <ele>35.2255</ele>
        <time>2013-05-13T18:29:58Z</time>
      </trkpt>
      <trkpt lat="59.9705047" lon="17.7524774">
        <ele>34.2642</ele>
        <time>2013-05-13T18:29:59Z</time>
      </trkpt>
      <trkpt lat="59.9704971" lon="17.7525035">
        <ele>33.7834</ele>
        <time>2013-05-13T18:30:00Z</time>
      </trkpt>
      <trkpt lat="59.9704827" lon="17.7525309">
        <ele>33.3029</ele>
        <time>2013-05-13T18:30:01Z</time>
      </trkpt>
      <trkpt lat="59.9704682" lon="17.752566">
        <ele>33.3029</ele>
        <time>2013-05-13T18:30:02Z</time>
      </trkpt>
      <trkpt lat="59.9704583" lon="17.7526072">
        <ele>33.3029</ele>
        <time>2013-05-13T18:30:03Z</time>
      </trkpt>
      <trkpt lat="59.970451" lon="17.7526397">
        <ele>33.3029</ele>
        <time>2013-05-13T18:30:04Z</time>
      </trkpt>
      <trkpt lat="59.97044" lon="17.7526691">
        <ele>33.3029</ele>
        <time>2013-05-13T18:30:05Z</time>
      </trkpt>
      <trkpt lat="59.9704309" lon="17.7526993">
        <ele>32.8223</ele>
        <time>2013-05-13T18:30:06Z</time>
      </trkpt>
      <trkpt lat="59.970418" lon="17.7527387">
        <ele>32.8223</ele>
        <time>2013-05-13T18:30:07Z</time>
      </trkpt>
      <trkpt lat="59.9704043" lon="17.7527817">
        <ele>33.3029</ele>
        <time>2013-05-13T18:30:08Z</time>
      </trkpt>
      <trkpt lat="59.9703911" lon="17.752826">
        <ele>33.3029</ele>
        <time>2013-05-13T18:30:09Z</time>
      </trkpt>
      <trkpt lat="59.9703794" lon="17.7528733">
        <ele>33.7834</ele>
        <time>2013-05-13T18:30:10Z</time>
      </trkpt>
      <trkpt lat="59.9703671" lon="17.7529123">
        <ele>34.7449</ele>
        <time>2013-05-13T18:30:11Z</time>
      </trkpt>
      <trkpt lat="59.9703527" lon="17.7529529">
        <ele>35.2255</ele>
        <time>2013-05-13T18:30:12Z</time>
      </trkpt>
      <trkpt lat="59.9703366" lon="17.7529931">
        <ele>35.2255</ele>
        <time>2013-05-13T18:30:13Z</time>
      </trkpt>
      <trkpt lat="59.9703209" lon="17.7530344">
        <ele>35.7061</ele>
        <time>2013-05-13T18:30:14Z</time>
      </trkpt>
      <trkpt lat="59.970304" lon="17.7530713">
        <ele>35.7061</ele>
        <time>2013-05-13T18:30:15Z</time>
      </trkpt>
      <trkpt lat="59.9702858" lon="17.7531075">
        <ele>35.7061</ele>
        <time>2013-05-13T18:30:16Z</time>
      </trkpt>
      <trkpt lat="59.9702661" lon="17.7531466">
        <ele>35.7061</ele>
        <time>2013-05-13T18:30:17Z</time>
      </trkpt>
      <trkpt lat="59.9702473" lon="17.7531857">
        <ele>35.7061</ele>
        <time>2013-05-13T18:30:18Z</time>
      </trkpt>
      <trkpt lat="59.9702321" lon="17.7532192">
        <ele>35.7061</ele>
        <time>2013-05-13T18:30:19Z</time>
      </trkpt>
      <trkpt lat="59.9702219" lon="17.7532577">
        <ele>35.7061</ele>
        <time>2013-05-13T18:30:20Z</time>
      </trkpt>
      <trkpt lat="59.9702147" lon="17.7533043">
        <ele>36.1868</ele>
        <time>2013-05-13T18:30:21Z</time>
      </trkpt>
      <trkpt lat="59.9702053" lon="17.7533472">
        <ele>35.7061</ele>
        <time>2013-05-13T18:30:22Z</time>
      </trkpt>
      <trkpt lat="59.9701921" lon="17.7533867">
        <ele>36.1868</ele>
        <time>2013-05-13T18:30:23Z</time>
      </trkpt>
      <trkpt lat="59.9701755" lon="17.7534376">
        <ele>36.1868</ele>
        <time>2013-05-13T18:30:24Z</time>
      </trkpt>
      <trkpt lat="59.9701563" lon="17.7534865">
        <ele>36.1868</ele>
        <time>2013-05-13T18:30:25Z</time>
      </trkpt>
      <trkpt lat="59.970136" lon="17.7535375">
        <ele>36.1868</ele>
        <time>2013-05-13T18:30:26Z</time>
      </trkpt>
      <trkpt lat="59.9701176" lon="17.7535923">
        <ele>36.6675</ele>
        <time>2013-05-13T18:30:27Z</time>
      </trkpt>
      <trkpt lat="59.9700998" lon="17.7536334">
        <ele>36.6675</ele>
        <time>2013-05-13T18:30:28Z</time>
      </trkpt>
      <trkpt lat="59.9700828" lon="17.753684">
        <ele>37.1481</ele>
        <time>2013-05-13T18:30:29Z</time>
      </trkpt>
      <trkpt lat="59.9700676" lon="17.753729">
        <ele>37.1481</ele>
        <time>2013-05-13T18:30:30Z</time>
      </trkpt>
      <trkpt lat="59.9700497" lon="17.7537649">
        <ele>37.1481</ele>
        <time>2013-05-13T18:30:31Z</time>
      </trkpt>
      <trkpt lat="59.9700284" lon="17.7538131">
        <ele>38.1094</ele>
        <time>2013-05-13T18:30:32Z</time>
      </trkpt>
      <trkpt lat="59.9700113" lon="17.753859">
        <ele>38.5901</ele>
        <time>2013-05-13T18:30:33Z</time>
      </trkpt>
      <trkpt lat="59.9699941" lon="17.7539025">
        <ele>38.5901</ele>
        <time>2013-05-13T18:30:34Z</time>
      </trkpt>
      <trkpt lat="59.9699765" lon="17.7539425">
        <ele>39.0707</ele>
        <time>2013-05-13T18:30:35Z</time>
      </trkpt>
      <trkpt lat="59.9699582" lon="17.7539761">
        <ele>39.0707</ele>
        <time>2013-05-13T18:30:36Z</time>
      </trkpt>
      <trkpt lat="59.9699388" lon="17.7540143">
        <ele>38.5901</ele>
        <time>2013-05-13T18:30:37Z</time>
      </trkpt>
      <trkpt lat="59.9699206" lon="17.7540537">
        <ele>38.5901</ele>
        <time>2013-05-13T18:30:38Z</time>
      </trkpt>
      <trkpt lat="59.9699031" lon="17.7540868">
        <ele>38.5901</ele>
        <time>2013-05-13T18:30:39Z</time>
      </trkpt>
      <trkpt lat="59.9698858" lon="17.7541155">
        <ele>38.1094</ele>
        <time>2013-05-13T18:30:40Z</time>
      </trkpt>
      <trkpt lat="59.9698663" lon="17.7541537">
        <ele>38.1094</ele>
        <time>2013-05-13T18:30:41Z</time>
      </trkpt>
      <trkpt lat="59.9698459" lon="17.7541923">
        <ele>38.1094</ele>
        <time>2013-05-13T18:30:42Z</time>
      </trkpt>
      <trkpt lat="59.9698303" lon="17.7542233">
        <ele>37.6287</ele>
        <time>2013-05-13T18:30:43Z</time>
      </trkpt>
      <trkpt lat="59.9698181" lon="17.754259">
        <ele>37.1481</ele>
        <time>2013-05-13T18:30:44Z</time>
      </trkpt>
      <trkpt lat="59.9698044" lon="17.7542932">
        <ele>37.1481</ele>
        <time>2013-05-13T18:30:45Z</time>
      </trkpt>
      <trkpt lat="59.9697907" lon="17.7543243">
        <ele>37.1481</ele>
        <time>2013-05-13T18:30:46Z</time>
      </trkpt>
      <trkpt lat="59.969776" lon="17.7543745">
        <ele>36.6675</ele>
        <time>2013-05-13T18:30:47Z</time>
      </trkpt>
      <trkpt lat="59.96976" lon="17.7544217">
        <ele>36.1868</ele>
        <time>2013-05-13T18:30:48Z</time>
      </trkpt>
      <trkpt lat="59.9697425" lon="17.7544605">
        <ele>36.1868</ele>
        <time>2013-05-13T18:30:49Z</time>
      </trkpt>
      <trkpt lat="59.9697326" lon="17.7545014">
        <ele>35.7061</ele>
        <time>2013-05-13T18:30:50Z</time>
      </trkpt>
      <trkpt lat="59.9697205" lon="17.7545391">
        <ele>35.2255</ele>
        <time>2013-05-13T18:30:51Z</time>
      </trkpt>
      <trkpt lat="59.9697035" lon="17.7545869">
        <ele>35.2255</ele>
        <time>2013-05-13T18:30:52Z</time>
      </trkpt>
      <trkpt lat="59.9696816" lon="17.7546299">
        <ele>34.7449</ele>
        <time>2013-05-13T18:30:53Z</time>
      </trkpt>
      <trkpt lat="59.9696641" lon="17.7546522">
        <ele>35.2255</ele>
        <time>2013-05-13T18:30:54Z</time>
      </trkpt>
      <trkpt lat="59.9696507" lon="17.7546771">
        <ele>34.7449</ele>
        <time>2013-05-13T18:30:55Z</time>
      </trkpt>
      <trkpt lat="59.9696296" lon="17.7547106">
        <ele>34.2642</ele>
        <time>2013-05-13T18:30:56Z</time>
      </trkpt>
      <trkpt lat="59.9696127" lon="17.7547381">
        <ele>34.2642</ele>
        <time>2013-05-13T18:30:57Z</time>
      </trkpt>
      <trkpt lat="59.969598" lon="17.7547634">
        <ele>34.7449</ele>
        <time>2013-05-13T18:30:58Z</time>
      </trkpt>
      <trkpt lat="59.9695756" lon="17.7548014">
        <ele>35.2255</ele>
        <time>2013-05-13T18:30:59Z</time>
      </trkpt>
      <trkpt lat="59.969555" lon="17.7548357">
        <ele>34.7449</ele>
        <time>2013-05-13T18:31:00Z</time>
      </trkpt>
      <trkpt lat="59.9695389" lon="17.7548695">
        <ele>34.7449</ele>
        <time>2013-05-13T18:31:01Z</time>
      </trkpt>
      <trkpt lat="59.9695202" lon="17.7549059">
        <ele>34.7449</ele>
        <time>2013-05-13T18:31:02Z</time>
      </trkpt>
      <trkpt lat="59.969499" lon="17.7549452">
        <ele>34.7449</ele>
        <time>2013-05-13T18:31:03Z</time>
      </trkpt>
      <trkpt lat="59.9694808" lon="17.7549836">
        <ele>35.2255</ele>
        <time>2013-05-13T18:31:04Z</time>
      </trkpt>
      <trkpt lat="59.9694648" lon="17.7550163">
        <ele>34.7449</ele>
        <time>2013-05-13T18:31:05Z</time>
      </trkpt>
      <trkpt lat="59.9694477" lon="17.7550442">
        <ele>34.7449</ele>
        <time>2013-05-13T18:31:06Z</time>
      </trkpt>
      <trkpt lat="59.9694335" lon="17.7550728">
        <ele>34.7449</ele>
        <time>2013-05-13T18:31:07Z</time>
      </trkpt>
      <trkpt lat="59.9694187" lon="17.7551066">
        <ele>34.7449</ele>
        <time>2013-05-13T18:31:08Z</time>
      </trkpt>
      <trkpt lat="59.9694004" lon="17.7551438">
        <ele>34.7449</ele>
        <time>2013-05-13T18:31:09Z</time>
      </trkpt>
      <trkpt lat="59.9693824" lon="17.7551775">
        <ele>34.7449</ele>
        <time>2013-05-13T18:31:10Z</time>
      </trkpt>
      <trkpt lat="59.9693627" lon="17.755211">
        <ele>34.7449</ele>
        <time>2013-05-13T18:31:11Z</time>
      </trkpt>
      <trkpt lat="59.9693406" lon="17.7552416">
        <ele>34.7449</ele>
        <time>2013-05-13T18:31:12Z</time>
      </trkpt>
      <trkpt lat="59.9693244" lon="17.7552816">
        <ele>34.2642</ele>
        <time>2013-05-13T18:31:13Z</time>
      </trkpt>
      <trkpt lat="59.9693032" lon="17.75532">
        <ele>34.7449</ele>
        <time>2013-05-13T18:31:14Z</time>
      </trkpt>
      <trkpt lat="59.9692825" lon="17.7553556">
        <ele>34.7449</ele>
        <time>2013-05-13T18:31:15Z</time>
      </trkpt>
      <trkpt lat="59.9692653" lon="17.7553987">
        <ele>35.2255</ele>
        <time>2013-05-13T18:31:16Z</time>
      </trkpt>
      <trkpt lat="59.9692498" lon="17.7554252">
        <ele>35.2255</ele>
        <time>2013-05-13T18:31:17Z</time>
      </trkpt>
      <trkpt lat="59.9692377" lon="17.7554541">
        <ele>34.2642</ele>
        <time>2013-05-13T18:31:18Z</time>
      </trkpt>
    </trkseg>
  </trk>
</gpx>